[[{"header":{"parameterUnit":"m.s-1","parameterCategory":1,"la1":30.6,"la2":29.2853,"lo1":-89.7004,"lo2":-87.6739,"dy":0.0162,"dx":0.0183,"nx":112,"ny":82,"refTime":"2024-03-18T18:00:00:Z","depth":0,"parameterNumber":2,"parameterNumberName":"U-component_of_WINDS"},"data":[0.0,0.0,0.0,0.0,0.0,0.0,0.0,0.0,0.0,0.0,0.0,0.0,0.0,0.0,0.0,0.0,0.0,0.0,0.0,0.0,0.0,0.0,0.0,0.0,0.0,0.0,0.0,0.0,0.0,0.0,0.0,0.0,0.0,0.0,0.0,0.0,0.0,0.0,0.0,0.0,0.0,0.0,0.0,0.0,0.0,0.0,0.0,0.0,0.0,0.0,0.0,0.0,0.0,0.0,0.0,0.0,0.0,0.0,0.0,0.0,0.0,0.0,0.0,0.0,0.0,0.0,0.0,0.0,0.0,0.0,0.0,0.0,0.0,0.0,0.0,0.0,0.0,0.0,0.0,0.0,0.0,0.0,0.0,0.0,0.0,0.0,0.0,0.0,0.0,0.0,5.0875,5.098,5.1024,5.1023,5.1023,5.1054,5.1123,5.1218,0.0,0.0,0.0,0.0,0.0,0.0,0.0,0.0,0.0,0.0,0.0,0.0,0.0,0.0,0.0,0.0,0.0,0.0,0.0,0.0,0.0,0.0,0.0,0.0,0.0,0.0,0.0,0.0,0.0,0.0,0.0,0.0,0.0,0.0,0.0,0.0,0.0,0.0,0.0,0.0,0.0,0.0,0.0,0.0,0.0,0.0,0.0,0.0,0.0,0.0,0.0,0.0,0.0,0.0,0.0,0.0,0.0,0.0,0.0,0.0,0.0,0.0,0.0,0.0,0.0,0.0,0.0,0.0,0.0,0.0,0.0,0.0,0.0,0.0,0.0,0.0,0.0,0.0,0.0,0.0,0.0,0.0,0.0,0.0,0.0,0.0,0.0,0.0,0.0,0.0,0.0,0.0,0.0,0.0,0.0,0.0,0.0,0.0,0.0,0.0,0.0,0.0,0.0,0.0,4.9161,4.9189,4.9844,5.0269,5.0269,5.0928,5.1357,5.1362,0.0,0.0,0.0,0.0,0.0,0.0,0.0,0.0,0.0,0.0,0.0,0.0,0.0,0.0,0.0,0.0,0.0,0.0,0.0,0.0,0.0,0.0,0.0,0.0,0.0,0.0,0.0,0.0,0.0,0.0,0.0,0.0,0.0,0.0,0.0,0.0,0.0,0.0,0.0,0.0,0.0,0.0,0.0,0.0,0.0,0.0,0.0,0.0,0.0,0.0,0.0,0.0,0.0,0.0,0.0,0.0,0.0,0.0,0.0,0.0,0.0,0.0,0.0,0.0,0.0,0.0,0.0,0.0,0.0,0.0,0.0,0.0,0.0,0.0,0.0,0.0,0.0,0.0,0.0,0.0,0.0,0.0,0.0,0.0,0.0,0.0,0.0,0.0,0.0,0.0,0.0,0.0,0.0,0.0,0.0,0.0,0.0,0.0,0.0,0.0,0.0,0.0,0.0,4.8798,4.8798,4.8798,4.9169,4.9403,4.9403,5.0184,5.0692,5.0692,5.1079,0.0,0.0,0.0,0.0,0.0,0.0,0.0,0.0,0.0,0.0,0.0,0.0,0.0,0.0,0.0,0.0,0.0,0.0,0.0,0.0,0.0,0.0,0.0,0.0,0.0,0.0,0.0,0.0,0.0,0.0,0.0,0.0,0.0,0.0,0.0,0.0,0.0,0.0,0.0,0.0,0.0,0.0,0.0,0.0,0.0,0.0,0.0,0.0,0.0,0.0,0.0,0.0,0.0,0.0,0.0,0.0,0.0,0.0,0.0,0.0,0.0,0.0,0.0,0.0,0.0,0.0,0.0,0.0,0.0,0.0,0.0,0.0,0.0,0.0,0.0,0.0,0.0,0.0,0.0,0.0,0.0,0.0,0.0,0.0,0.0,0.0,0.0,0.0,0.0,0.0,0.0,0.0,0.0,0.0,0.0,0.0,0.0,0.0,0.0,0.0,0.0,0.0,4.8213,4.8213,4.8213,4.8388,4.8525,4.8525,4.9306,4.9794,4.9794,5.0614,0.0,0.0,0.0,0.0,0.0,0.0,0.0,0.0,0.0,0.0,0.0,0.0,0.0,0.0,0.0,0.0,0.0,0.0,0.0,0.0,0.0,0.0,0.0,0.0,0.0,0.0,0.0,0.0,0.0,0.0,0.0,0.0,0.0,0.0,0.0,0.0,0.0,0.0,0.0,0.0,0.0,0.0,0.0,0.0,0.0,0.0,0.0,0.0,0.0,0.0,0.0,0.0,0.0,0.0,0.0,0.0,0.0,0.0,0.0,0.0,0.0,0.0,0.0,0.0,0.0,0.0,0.0,0.0,0.0,0.0,0.0,0.0,0.0,0.0,0.0,0.0,0.0,0.0,0.0,0.0,0.0,0.0,0.0,0.0,0.0,0.0,0.0,0.0,0.0,0.0,0.0,0.0,0.0,0.0,0.0,0.0,0.0,0.0,0.0,0.0,0.0,0.0,4.6475,4.6475,4.6475,4.7198,4.7686,4.7686,4.8427,4.8896,4.8896,4.9716,0.0,0.0,0.0,0.0,0.0,0.0,0.0,0.0,0.0,0.0,0.0,0.0,0.0,0.0,0.0,0.0,0.0,0.0,0.0,0.0,0.0,0.0,0.0,0.0,0.0,0.0,0.0,0.0,0.0,0.0,0.0,0.0,0.0,0.0,0.0,0.0,0.0,0.0,0.0,0.0,0.0,0.0,0.0,0.0,0.0,0.0,0.0,0.0,0.0,0.0,0.0,0.0,0.0,0.0,0.0,0.0,0.0,0.0,0.0,0.0,0.0,0.0,0.0,0.0,0.0,0.0,0.0,0.0,0.0,0.0,0.0,0.0,0.0,0.0,0.0,0.0,0.0,0.0,0.0,0.0,0.0,0.0,0.0,0.0,0.0,0.0,0.0,0.0,0.0,0.0,0.0,0.0,0.0,0.0,0.0,0.0,0.0,0.0,0.0,0.0,0.0,0.0,4.63,4.63,4.63,4.6593,4.6788,4.6788,4.7569,4.8057,4.8057,0.0,0.0,0.0,0.0,0.0,0.0,0.0,0.0,0.0,0.0,0.0,0.0,0.0,0.0,0.0,0.0,0.0,0.0,0.0,0.0,0.0,0.0,0.0,0.0,0.0,0.0,0.0,0.0,0.0,0.0,0.0,0.0,0.0,0.0,0.0,0.0,0.0,0.0,0.0,0.0,0.0,0.0,0.0,0.0,0.0,0.0,0.0,0.0,0.0,0.0,0.0,0.0,0.0,0.0,0.0,0.0,0.0,0.0,0.0,0.0,0.0,0.0,0.0,0.0,0.0,0.0,0.0,0.0,0.0,0.0,0.0,0.0,0.0,0.0,0.0,0.0,0.0,0.0,0.0,0.0,0.0,0.0,0.0,0.0,0.0,0.0,0.0,0.0,0.0,0.0,0.0,0.0,0.0,0.0,0.0,0.0,0.0,0.0,0.0,0.0,0.0,0.0,4.63,4.63,4.63,0.0,4.63,4.63,4.63,4.6846,4.7198,4.7198,0.0,0.0,0.0,0.0,0.0,0.0,0.0,0.0,0.0,0.0,0.0,0.0,0.0,0.0,0.0,0.0,0.0,0.0,0.0,0.0,0.0,0.0,0.0,0.0,0.0,0.0,0.0,0.0,0.0,0.0,0.0,0.0,0.0,0.0,0.0,0.0,0.0,0.0,0.0,0.0,0.0,0.0,0.0,0.0,0.0,0.0,0.0,0.0,0.0,0.0,0.0,0.0,0.0,0.0,0.0,0.0,0.0,0.0,0.0,0.0,0.0,0.0,0.0,0.0,0.0,0.0,0.0,0.0,0.0,0.0,0.0,0.0,0.0,0.0,0.0,0.0,0.0,0.0,0.0,0.0,0.0,0.0,0.0,0.0,0.0,0.0,0.0,0.0,0.0,0.0,0.0,0.0,0.0,0.0,0.0,0.0,0.0,0.0,0.0,0.0,0.0,0.0,4.63,4.63,4.63,4.63,4.63,4.63,4.63,4.63,4.63,0.0,0.0,0.0,0.0,0.0,0.0,0.0,0.0,0.0,0.0,0.0,0.0,0.0,0.0,0.0,0.0,0.0,0.0,0.0,0.0,0.0,0.0,0.0,0.0,0.0,0.0,0.0,0.0,0.0,0.0,0.0,0.0,0.0,0.0,0.0,0.0,0.0,0.0,0.0,0.0,0.0,0.0,0.0,0.0,0.0,0.0,0.0,0.0,0.0,0.0,0.0,0.0,0.0,0.0,0.0,0.0,0.0,0.0,0.0,0.0,0.0,0.0,0.0,0.0,0.0,0.0,0.0,0.0,0.0,0.0,0.0,0.0,0.0,0.0,0.0,0.0,0.0,0.0,0.0,0.0,0.0,0.0,0.0,0.0,0.0,0.0,0.0,0.0,0.0,0.0,0.0,0.0,0.0,0.0,0.0,0.0,0.0,0.0,0.0,0.0,0.0,0.0,0.0,4.63,4.63,4.63,4.63,4.63,4.63,4.63,4.63,4.63,4.63,0.0,0.0,0.0,0.0,0.0,0.0,0.0,0.0,0.0,0.0,0.0,0.0,0.0,0.0,0.0,0.0,0.0,0.0,0.0,0.0,0.0,0.0,0.0,0.0,0.0,0.0,0.0,0.0,0.0,0.0,0.0,0.0,0.0,0.0,0.0,0.0,0.0,0.0,0.0,0.0,0.0,0.0,0.0,0.0,0.0,0.0,0.0,0.0,0.0,0.0,0.0,0.0,0.0,0.0,0.0,0.0,0.0,0.0,0.0,0.0,0.0,0.0,0.0,0.0,0.0,0.0,0.0,0.0,0.0,0.0,0.0,0.0,0.0,0.0,0.0,0.0,0.0,0.0,0.0,0.0,0.0,0.0,0.0,0.0,0.0,0.0,0.0,0.0,0.0,0.0,0.0,0.0,0.0,0.0,0.0,0.0,0.0,0.0,0.0,0.0,0.0,0.0,4.63,4.63,4.63,4.63,4.63,4.63,4.63,4.63,4.63,4.63,0.0,0.0,0.0,0.0,0.0,0.0,0.0,0.0,0.0,0.0,0.0,0.0,0.0,0.0,0.0,0.0,0.0,0.0,0.0,0.0,0.0,0.0,0.0,0.0,0.0,0.0,0.0,0.0,0.0,0.0,0.0,0.0,0.0,0.0,0.0,0.0,0.0,0.0,0.0,0.0,0.0,0.0,0.0,0.0,0.0,0.0,0.0,0.0,0.0,0.0,0.0,0.0,0.0,0.0,0.0,0.0,0.0,0.0,0.0,0.0,0.0,0.0,0.0,0.0,0.0,0.0,0.0,0.0,0.0,0.0,0.0,0.0,0.0,0.0,0.0,0.0,0.0,0.0,0.0,0.0,0.0,0.0,0.0,0.0,0.0,0.0,0.0,0.0,0.0,0.0,0.0,0.0,0.0,0.0,0.0,0.0,0.0,0.0,0.0,0.0,0.0,0.0,4.63,4.63,4.63,4.63,4.63,4.63,4.63,4.63,4.63,4.63,0.0,0.0,0.0,0.0,0.0,0.0,0.0,0.0,0.0,0.0,0.0,0.0,0.0,0.0,0.0,0.0,0.0,0.0,0.0,0.0,0.0,0.0,0.0,0.0,0.0,0.0,0.0,0.0,0.0,0.0,0.0,0.0,0.0,0.0,0.0,0.0,0.0,0.0,0.0,0.0,0.0,0.0,0.0,0.0,0.0,0.0,0.0,0.0,0.0,0.0,0.0,0.0,0.0,0.0,0.0,0.0,0.0,0.0,0.0,0.0,4.3744,0.0,0.0,0.0,0.0,0.0,0.0,0.0,0.0,0.0,0.0,0.0,0.0,0.0,0.0,0.0,0.0,0.0,0.0,0.0,0.0,0.0,0.0,0.0,0.0,0.0,0.0,0.0,0.0,0.0,0.0,0.0,0.0,0.0,0.0,0.0,0.0,0.0,0.0,0.0,0.0,0.0,4.63,4.63,4.63,4.63,4.63,4.63,4.63,4.63,4.63,4.63,4.63,0.0,0.0,0.0,0.0,0.0,0.0,0.0,0.0,0.0,0.0,0.0,0.0,0.0,0.0,0.0,0.0,0.0,0.0,0.0,0.0,0.0,0.0,0.0,0.0,0.0,0.0,0.0,0.0,0.0,0.0,0.0,0.0,0.0,0.0,0.0,0.0,0.0,0.0,0.0,0.0,0.0,0.0,0.0,0.0,0.0,0.0,0.0,0.0,0.0,0.0,0.0,0.0,0.0,0.0,0.0,0.0,0.0,0.0,0.0,0.0,4.403,0.0,0.0,0.0,0.0,0.0,0.0,0.0,0.0,0.0,0.0,0.0,0.0,0.0,0.0,0.0,0.0,0.0,0.0,0.0,0.0,0.0,0.0,0.0,0.0,0.0,0.0,0.0,0.0,0.0,0.0,0.0,0.0,0.0,0.0,0.0,0.0,0.0,0.0,0.0,0.0,4.63,4.6273,4.6249,4.63,4.63,4.63,4.63,4.63,4.63,4.63,4.63,0.0,0.0,0.0,0.0,0.0,0.0,0.0,0.0,0.0,0.0,0.0,0.0,0.0,0.0,0.0,0.0,0.0,0.0,0.0,0.0,0.0,0.0,0.0,0.0,0.0,0.0,0.0,0.0,0.0,0.0,0.0,0.0,0.0,0.0,0.0,0.0,0.0,0.0,0.0,0.0,0.0,0.0,0.0,0.0,0.0,0.0,0.0,0.0,0.0,0.0,0.0,0.0,0.0,4.0821,4.1013,4.1542,4.1579,4.2103,4.2986,4.3564,4.393,4.414,4.4458,0.0,0.0,0.0,0.0,0.0,0.0,0.0,0.0,0.0,0.0,0.0,0.0,0.0,0.0,0.0,0.0,0.0,0.0,0.0,0.0,0.0,0.0,0.0,0.0,4.5997,4.5997,4.5997,0.0,0.0,0.0,0.0,0.0,0.0,0.0,0.0,0.0,0.0,0.0,4.6273,4.6221,4.6236,4.63,4.63,4.63,4.63,4.63,4.63,4.63,4.6303,4.6297,0.0,0.0,0.0,0.0,0.0,0.0,0.0,0.0,0.0,0.0,0.0,0.0,0.0,0.0,0.0,0.0,0.0,0.0,0.0,0.0,0.0,0.0,0.0,0.0,0.0,0.0,0.0,0.0,0.0,0.0,0.0,0.0,3.8933,3.9242,0.0,0.0,0.0,0.0,0.0,0.0,0.0,0.0,0.0,0.0,0.0,0.0,0.0,4.042,4.0936,4.0903,4.1052,4.1354,4.1516,4.1379,4.0937,4.1156,4.1374,4.163,4.2377,0.0,4.4091,4.417,0.0,0.0,0.0,0.0,0.0,0.0,0.0,0.0,0.0,0.0,0.0,0.0,0.0,0.0,0.0,0.0,0.0,0.0,0.0,0.0,0.0,0.0,4.5997,4.5997,4.5997,4.5997,0.0,4.5997,4.5997,4.5997,4.5997,0.0,0.0,0.0,0.0,0.0,0.0,0.0,4.6206,4.6211,4.6236,4.63,4.63,4.63,4.63,4.63,4.63,4.63,4.63,4.6269,4.6226,4.6212,0.0,0.0,0.0,0.0,0.0,0.0,0.0,0.0,0.0,0.0,0.0,0.0,0.0,0.0,0.0,0.0,0.0,0.0,0.0,0.0,0.0,0.0,0.0,0.0,0.0,0.0,0.0,0.0,0.0,3.7818,3.8086,3.8052,3.8498,3.8799,0.0,0.0,0.0,0.0,0.0,0.0,0.0,0.0,0.0,3.9349,3.937,3.9422,3.9534,3.9404,3.9304,3.927,3.9385,3.9641,3.9944,4.013,4.0643,4.1445,4.1827,4.2348,4.2978,4.3961,4.4421,4.4605,0.0,0.0,0.0,0.0,4.5829,4.6027,4.6054,4.6063,4.6063,4.6063,0.0,0.0,0.0,0.0,0.0,0.0,0.0,0.0,0.0,0.0,4.6046,4.6016,4.5994,4.6005,4.5997,4.6005,4.6005,0.0,4.5997,4.5997,4.5997,0.0,0.0,0.0,0.0,4.6099,4.6201,4.6195,4.624,4.6296,4.63,4.63,4.63,4.63,4.6306,4.63,4.6305,4.6269,4.6204,4.6202,4.6201,0.0,0.0,0.0,0.0,0.0,0.0,0.0,0.0,0.0,0.0,0.0,0.0,0.0,0.0,0.0,0.0,0.0,0.0,0.0,0.0,0.0,0.0,0.0,0.0,0.0,0.0,0.0,0.0,3.634,3.6733,3.6619,3.741,3.7868,0.0,0.0,0.0,0.0,0.0,0.0,3.8865,3.844,3.8259,3.8493,3.8741,3.8711,3.8355,3.8368,3.8337,3.8176,3.8176,3.8583,3.9378,3.9423,4.0059,4.1091,4.1351,4.1597,4.1952,4.331,4.4016,4.4293,4.454,4.4932,4.5416,4.566,4.5908,4.6105,4.6118,4.6125,4.6125,4.6125,4.6091,4.6072,4.6118,0.0,0.0,0.0,0.0,4.6119,4.6056,4.6095,4.6113,4.6064,4.6042,4.603,4.6033,4.5839,4.5731,0.0,4.5997,4.5997,4.5997,0.0,0.0,0.0,0.0,4.6047,4.6151,4.619,4.6222,4.6269,4.6296,4.63,4.63,4.63,4.6293,4.6307,4.6289,4.6249,4.6198,4.6191,4.6192,4.6192,0.0,0.0,0.0,0.0,0.0,0.0,0.0,0.0,0.0,0.0,0.0,0.0,0.0,0.0,0.0,0.0,0.0,0.0,0.0,0.0,0.0,0.0,0.0,0.0,0.0,0.0,0.0,0.0,0.0,3.402,3.5021,0.0,0.0,0.0,0.0,3.7524,3.7246,3.7394,3.8122,3.8287,3.7853,3.6673,3.8027,3.8512,3.794,3.8804,3.9382,3.969,3.969,3.9664,3.9585,3.9585,3.9698,3.9946,4.07,4.1193,4.1473,4.1914,4.2737,4.3687,4.3869,4.4614,4.5615,4.5817,4.5985,4.6112,4.6167,4.6179,4.6179,4.6179,4.6199,4.6191,4.6181,4.6189,0.0,0.0,4.6177,4.6192,4.6183,4.6182,4.6193,4.618,4.6139,4.6096,4.6096,4.5378,4.5013,0.0,4.5997,4.5997,4.5997,0.0,4.5997,4.6007,4.6007,4.6017,4.6093,4.6154,4.619,4.6206,4.6269,4.63,4.63,4.63,4.6293,4.6307,4.6249,4.6198,4.6191,4.6209,4.6203,4.6203,4.6203,0.0,0.0,0.0,0.0,0.0,0.0,0.0,0.0,0.0,0.0,0.0,0.0,0.0,0.0,0.0,0.0,0.0,0.0,0.0,0.0,0.0,0.0,0.0,0.0,0.0,0.0,0.0,0.0,3.1992,3.2788,0.0,3.4154,3.3713,3.41,3.5831,3.5144,3.5591,3.7607,3.7772,3.8063,3.8607,3.9151,3.7204,3.2529,3.2829,3.0823,2.6569,2.8766,2.9913,3.0149,3.2402,3.4554,3.6555,3.7051,3.8372,4.021,4.0604,4.1665,4.3035,4.3284,4.4003,4.4911,4.518,4.564,4.6178,4.6186,4.6207,4.6205,4.6189,4.6147,4.6072,4.6113,4.6073,4.601,4.6113,4.6148,4.6134,4.6137,4.5743,4.5352,4.5305,4.4892,4.4483,4.4489,4.4197,4.4031,4.4331,4.4841,4.522,4.522,4.5666,4.5997,4.5997,4.5997,4.6017,4.6093,4.6154,4.619,4.6206,4.6269,4.63,4.63,4.6295,4.6286,4.6249,4.6217,4.621,4.6209,4.6209,4.6196,4.6196,4.6196,4.6154,0.0,0.0,0.0,0.0,0.0,0.0,0.0,0.0,0.0,0.0,0.0,0.0,0.0,0.0,0.0,0.0,0.0,0.0,0.0,0.0,0.0,0.0,0.0,0.0,0.0,2.9397,2.9964,2.9915,3.0514,3.1222,3.1958,3.1258,3.1628,3.3795,3.3712,3.4587,3.6756,3.6968,3.5593,3.2521,3.2034,2.7755,1.9254,1.9447,1.7322,1.2884,1.5094,1.6243,1.6538,1.8859,2.2726,2.7688,2.8975,3.3082,3.8926,3.9388,4.0241,4.1401,4.2315,4.3253,4.4124,4.4354,4.4785,4.5329,4.5636,4.5924,4.6161,4.6148,4.6072,4.6006,4.6078,4.6034,4.5916,4.5727,4.565,4.5581,4.5307,4.4824,4.4421,4.437,4.3941,4.3576,4.3591,4.3339,4.3103,4.3103,4.3771,4.4365,4.4356,4.4792,4.5161,4.5161,4.5414,4.5609,4.5658,4.599,4.6209,4.6189,4.6264,4.63,4.63,4.63,4.6269,4.6205,4.6206,4.6211,4.6203,4.6189,4.6154,4.6138,4.6138,4.6084,4.5997,0.0,0.0,0.0,0.0,0.0,0.0,0.0,0.0,0.0,0.0,0.0,0.0,0.0,0.0,0.0,0.0,0.0,0.0,0.0,0.0,0.0,0.0,0.0,2.6646,2.6904,2.7025,2.7706,2.8061,2.8449,2.8946,2.8741,2.9377,3.1297,3.2896,3.4108,3.4883,3.5258,2.992,1.7815,1.6336,1.0255,-0.1166,-0.0512,-0.0131,-0.0141,-0.0261,-0.0314,-0.0314,-0.0221,0.4678,1.3296,1.6601,2.5251,3.7048,3.787,3.8306,3.8654,4.0896,4.2379,4.3276,4.3403,4.3473,4.3626,4.4462,4.5312,4.6013,4.5948,4.592,4.593,4.6003,4.6003,4.5822,4.4997,4.4763,4.4561,4.3727,4.3487,4.3455,4.3455,4.3437,4.3437,4.351,4.2851,4.2268,4.2259,4.2885,4.3428,4.3452,4.3471,4.351,4.3549,4.4268,0.0,4.4831,4.5624,4.6196,4.6196,4.6255,4.6303,4.6303,4.6301,4.6269,4.6204,4.6202,4.6206,4.6203,4.6138,4.6075,4.6007,4.5997,4.5997,4.5997,0.0,0.0,0.0,0.0,0.0,0.0,0.0,0.0,0.0,0.0,0.0,0.0,0.0,0.0,0.0,0.0,0.0,0.0,0.0,0.0,0.0,1.6998,1.7716,2.1267,2.2655,2.3293,2.3364,2.3416,2.4293,2.6343,2.37,2.305,2.5858,2.7726,2.5667,1.8551,2.1353,1.8161,0.722,0.6051,0.2048,-0.537,-0.5085,-0.733,-1.2125,-1.0343,-0.9471,-0.9413,-0.7499,-0.4184,0.0433,0.7107,1.4222,2.1647,2.875,3.3,3.5368,3.9363,4.1512,4.2373,4.2505,4.2955,4.3525,4.3775,4.402,4.4214,4.4187,4.4113,4.4051,4.4128,4.4071,4.3963,4.3807,4.3788,4.3749,4.3611,4.3062,4.2585,4.2682,4.2189,4.1719,4.178,4.1563,4.1364,4.1425,4.1616,4.195,4.2519,4.311,4.3704,4.4345,4.4656,0.0,4.5589,4.5974,4.6196,4.6196,4.6257,4.6303,4.6303,4.6267,4.6228,4.6202,4.6206,4.6196,4.6196,4.6189,4.6154,4.6146,4.5906,4.579,0.0,0.0,0.0,0.0,0.0,0.0,0.0,0.0,0.0,0.0,0.0,0.0,0.0,0.0,0.0,0.0,0.0,0.0,0.0,0.0,0.0,0.0,1.2624,1.276,1.4172,1.688,1.8883,1.9037,1.8825,1.9325,2.124,1.792,1.6349,1.8028,1.8072,1.519,0.8799,0.9773,0.5671,-0.4876,-0.705,-1.1796,-1.9629,-1.9577,-2.148,-2.5392,-2.3849,-2.3169,-2.3233,-2.1721,-2.0622,-1.9261,-0.7287,0.2127,0.9918,2.2152,2.8642,0.0,0.0,0.0,0.0,0.0,4.2102,4.2888,4.2898,4.3122,4.3413,4.3382,4.3307,4.3266,4.3342,4.3305,4.3175,4.2884,4.2814,4.2763,4.2528,4.2059,4.1686,4.1783,4.1422,4.1039,4.1064,4.1052,4.1046,4.1086,4.1093,0.0,4.1686,4.2142,4.2624,4.3093,4.3471,4.4015,4.4851,4.5371,4.5806,4.6157,4.6253,4.6301,4.6307,4.6243,0.0,0.0,0.0,4.6189,4.6154,4.6036,0.0,0.0,0.0,4.5634,4.5634,0.0,0.0,0.0,4.5501,4.5476,0.0,0.0,0.0,0.0,0.0,0.0,0.0,0.0,0.0,0.0,0.0,0.0,0.0,0.0,0.0,0.0,0.8287,0.7711,0.6436,0.9974,1.3296,1.4593,1.3981,1.3803,1.4669,1.1502,0.928,0.9081,0.6604,0.4058,0.1653,0.0,0.0,0.0,0.0,-2.7433,-3.6795,-3.6779,-3.6795,-3.6898,-3.687,-3.7014,-3.7259,-3.7354,-3.81,-3.8446,-2.2371,-0.9424,0.1475,1.6677,2.4674,2.7968,3.4627,3.7711,3.852,3.9976,4.1036,4.1753,4.1846,0.0,0.0,4.2902,4.2893,4.2908,4.3001,4.3015,4.286,4.2086,4.1854,4.1719,4.1061,4.09,4.0931,4.099,4.1056,4.1067,4.1012,4.1045,4.1081,4.1108,4.1108,4.1073,4.1016,4.0994,4.1006,4.1042,4.1704,4.2549,4.353,4.4386,4.5235,4.6112,0.0,0.0,4.6288,4.6226,4.6189,4.6201,4.6196,4.6146,4.6093,4.584,4.5764,4.5873,4.5623,4.549,4.549,4.56,4.5603,4.5473,4.5381,4.5438,0.0,0.0,0.0,0.0,0.0,0.0,0.0,0.0,0.0,0.0,0.0,0.0,0.0,0.0,0.0,0.3496,0.2635,0.1762,0.0968,0.1662,0.4086,0.8978,0.8239,0.7942,0.938,0.4836,0.1848,0.2067,0.1582,-0.3524,-1.4473,-1.3784,-1.8297,-2.979,-3.1654,-3.3275,-3.5023,-3.4593,-3.4569,-3.5018,0.0,0.0,-3.6367,-3.7069,-3.5485,-3.1809,-2.4672,-1.4749,-0.2709,0.8728,1.8834,2.7774,3.3905,3.7025,3.821,3.9472,4.0082,4.0234,4.0423,4.0665,4.0886,4.0918,4.0981,4.1056,4.1229,4.1274,0.0,4.1081,4.1023,4.1003,4.0906,4.09,4.0934,4.1055,4.1047,4.1026,4.1074,4.1042,4.1039,4.1081,4.1091,4.1089,4.1016,4.0994,4.122,4.1859,4.2092,4.2771,4.4355,4.4746,4.5226,4.6113,4.6211,4.6217,4.6226,4.621,4.6203,4.6196,4.6102,4.6027,4.6017,4.5815,4.5717,4.575,4.5571,4.549,4.549,4.5419,4.5361,4.5341,4.5522,4.5603,0.0,0.0,0.0,0.0,0.0,0.0,0.0,0.0,0.0,0.0,0.0,0.5921,0.3849,0.0,0.1324,-0.0618,-0.0975,-0.1332,-0.2038,-0.2451,-0.1216,0.2528,0.2413,0.1946,0.1973,-0.2022,-0.5148,-0.6479,-0.8984,-1.4101,-2.2435,-2.296,-2.5904,-3.2301,-3.3415,-3.3963,-3.4096,-3.3697,-3.3854,-3.4551,-3.4869,-3.5168,-3.5514,-3.5912,-3.3732,-2.9349,-2.4016,-1.577,-0.5052,0.7907,1.799,2.5684,3.038,3.4058,3.6886,3.8579,3.9397,3.9675,3.9925,4.0101,4.0212,4.0319,4.0419,4.0526,4.0621,4.0713,4.079,4.079,4.079,4.081,4.0919,4.0958,4.0974,4.1123,4.1126,4.1097,4.1093,4.1077,4.1066,4.1091,4.1091,4.1071,4.1016,4.0994,4.1123,4.1489,4.1548,4.2032,4.3383,4.3963,4.4575,4.5457,4.5937,4.6195,4.6204,4.6192,4.6162,4.6102,4.6047,4.5956,4.5859,4.5694,4.5603,4.5603,4.5473,4.54,4.54,4.5339,4.5297,4.5317,4.5438,4.5509,0.0,0.0,0.0,0.0,0.0,0.0,0.0,1.2053,0.9488,0.7274,0.4844,0.2389,0.0088,-0.0711,-0.1694,-0.3829,-0.392,-0.4001,-0.4687,-0.5456,-0.5557,-0.4381,-0.356,-0.359,-0.4938,-0.8107,-1.1147,-1.3784,-1.8705,-2.2915,-2.5744,-2.8495,-3.0432,-3.1442,-3.2225,-3.2937,-3.3623,-3.3411,-3.3715,-3.4526,-3.4298,-3.4435,-3.4908,-3.4851,-3.2089,-2.6938,-1.9436,-1.1578,-0.3187,0.975,1.8145,2.3082,2.6674,3.0652,3.4695,3.7138,3.8496,3.9119,3.9463,3.9745,4.0005,4.0119,4.0281,4.0431,4.0477,4.0621,4.0746,4.079,4.081,4.0829,4.0958,4.0996,4.105,4.1152,4.1188,4.1172,4.1112,4.111,4.1105,4.1107,4.1094,4.1068,4.1007,4.0998,4.0953,4.0917,4.0907,4.1244,4.2169,4.306,4.3941,4.4828,4.5683,4.6195,4.6192,4.6206,4.6146,4.6007,4.5956,4.5847,4.5675,4.5541,4.5455,4.5455,4.5361,4.5297,4.5297,4.5297,4.5297,4.5297,4.5275,4.53,2.7643,2.4271,2.0999,1.8825,1.6557,1.3824,0.0,0.8016,0.618,0.2842,0.0624,-0.1161,-0.2324,-0.3755,-0.5097,-0.598,-0.7291,-0.8376,-0.8743,-1.0178,-1.1297,-1.173,-0.9692,-0.8302,-0.8277,-1.243,-1.5458,-1.6243,-2.0811,-2.4163,-2.5516,-2.8526,-3.0587,-3.1291,-3.1969,-3.2674,-3.3343,-3.3302,-3.3616,-3.4227,-3.4221,-3.4435,-3.4908,-3.4889,-2.9853,-2.0404,-0.7629,0.1512,0.7677,1.1611,1.6068,2.0739,2.5074,2.8455,3.1289,3.4822,3.6677,3.7536,3.8191,3.8906,3.9561,3.9595,3.984,4.0195,4.0415,4.0511,4.0574,4.0746,4.0829,4.09,4.0919,4.0996,4.1086,4.1106,4.1159,4.1171,4.1119,4.1094,4.1101,4.1094,4.1052,4.1013,4.1006,4.0945,4.0897,4.0907,4.0907,4.1249,4.2186,4.3069,4.3962,4.4895,4.5722,4.6195,4.6196,4.6203,4.6146,4.6007,4.5835,4.566,4.5524,4.54,4.5319,4.5319,4.5317,4.5297,4.5297,4.5297,4.5297,4.5297,4.5125,4.5173,2.4343,2.1626,1.9316,1.6095,1.4255,1.2348,0.8892,0.6621,0.4423,0.1247,-0.0983,-0.2864,-0.4648,-0.5188,-0.6077,-0.8101,-0.8529,-0.9029,-1.0149,-1.112,-1.1909,-1.2647,-1.2507,-1.2532,-1.3016,-1.5505,-1.7588,-1.8802,-2.1812,-2.441,-2.6265,-2.788,-2.9424,-3.0937,-3.127,-3.1951,-3.3001,-3.3001,-3.34,-3.4197,-3.4321,-3.4548,-3.4889,-3.502,-2.957,-1.929,-0.5784,0.3555,0.9443,1.1654,1.5462,2.0256,2.3883,2.7024,2.9956,3.381,3.6035,3.7165,3.7853,3.8637,3.9401,3.9464,3.9772,4.0139,4.0334,4.0431,4.054,4.0746,4.081,4.0866,4.0937,4.1012,4.1057,4.1142,4.1175,4.1191,4.1168,4.1121,4.1094,4.1107,4.1048,4.0992,4.1007,4.094,4.0907,4.0907,4.0907,4.1054,4.1491,4.2759,4.414,4.5547,4.6002,4.6201,4.6203,4.6138,4.5998,4.5847,4.5679,4.5524,4.5381,4.5339,4.5297,4.5297,4.5109,4.5023,4.5023,4.4862,4.4789,4.4789,4.4739,4.4795,2.1776,1.9686,1.7914,1.3941,1.2298,1.0844,0.7778,0.5401,0.3105,0.0178,-0.17,-0.3582,-0.5719,-0.5899,-0.6428,-0.889,-0.8983,-0.9256,-1.0543,-1.1306,-1.2063,-1.2948,-1.4156,-1.5421,-1.6553,-1.7624,-1.8839,-2.0395,-2.2396,-2.4403,-2.6404,-2.736,-2.8685,-3.0526,-3.0811,-3.1534,-3.2795,-3.289,-3.3354,-3.4197,-3.4398,-3.4653,-3.4851,-3.3195,-2.7654,-1.8606,-0.5609,0.3511,0.9431,1.1392,1.5091,1.9843,2.311,2.6127,2.9111,3.2803,3.5205,3.6654,3.7417,3.8319,3.9146,3.9305,3.9614,3.9982,4.023,4.0367,4.0496,4.0733,4.081,4.0858,4.0974,4.1013,4.1058,4.117,4.1191,4.1191,4.1171,4.1126,4.1097,4.1099,4.1054,4.1007,4.0996,4.0948,4.0907,4.0907,4.0907,4.0918,4.0984,4.2535,4.4292,4.602,4.6201,4.6201,4.6203,4.6084,4.5914,4.5717,4.5571,4.5438,4.5317,4.5297,4.5256,4.5173,4.4915,4.4751,4.4676,4.4493,4.4383,4.4383,4.4383,4.4484,2.1166,1.9049,1.6498,1.3071,1.108,0.9039,0.5257,0.3657,0.2139,-0.0805,-0.2149,-0.3403,-0.5102,-0.5899,-0.6605,-0.7401,-0.8729,-0.9805,-1.0314,-1.1721,-1.3119,-1.4369,-1.5259,-1.6315,-1.7774,-1.8576,-1.942,-2.0515,-2.282,-2.4503,-2.5204,-2.7294,-2.8996,-3.0074,-3.0864,-3.1756,-3.2795,-3.3124,-3.3588,-3.4197,-3.4398,-3.4653,-3.4696,-2.8369,-2.2648,-1.7005,-0.5145,0.3557,0.9463,1.132,1.466,1.8994,2.2902,2.5948,2.8503,3.1561,3.3826,3.5494,3.6591,3.7685,3.8658,3.8943,3.9242,3.9628,4.0138,4.0317,4.0386,4.072,4.0848,4.0919,4.0977,4.1052,4.1113,4.1172,4.1191,4.1172,4.1129,4.1107,4.1108,4.1094,4.1048,4.1,4.1006,4.0929,4.0907,4.0907,4.0907,4.0918,4.0984,4.2572,4.4334,4.6014,4.619,4.6203,4.6196,4.6084,4.5914,4.5717,4.5571,4.5438,4.5317,4.5297,4.5151,4.48,4.4819,4.4676,4.4411,4.4383,4.4383,4.4402,4.4192,4.4279,1.9643,1.7831,1.5629,1.2178,1.0585,0.8952,0.5171,0.357,0.2051,-0.0805,-0.17,-0.2594,-0.501,-0.5447,-0.6116,-0.7943,-0.8884,-0.9754,-1.0954,-1.1395,-1.2385,-1.4322,-1.4824,-1.5737,-1.7628,-1.8307,-1.9156,-2.0333,-2.2091,-2.3645,-2.4942,-2.6777,-2.8355,-2.9745,-3.0534,-3.1442,-3.2464,-3.2809,-3.3284,-3.3947,-3.4408,-3.3037,-2.9939,-2.437,-1.8453,-1.1981,-0.0495,0.7042,1.1297,1.2592,1.5581,1.9692,2.2329,2.5306,2.8432,3.1019,3.3421,3.545,3.6551,3.7771,3.8886,3.898,3.9427,3.9941,4.023,4.0367,4.0481,4.0733,4.0848,4.0919,4.0977,4.145,4.1779,4.1304,4.1619,4.1824,4.1233,4.1097,4.1099,4.1101,4.1053,4.1007,4.0992,4.0948,4.0907,4.0907,4.0948,4.1393,4.2575,4.3294,4.4334,4.6025,4.6196,4.6196,4.6196,4.5958,4.5777,4.5703,4.5472,4.5341,4.5297,4.5297,4.5132,4.4819,4.4624,4.4402,4.4121,4.3886,4.3791,4.3791,4.3795,4.386,1.8885,1.7131,1.5155,1.177,1.0423,0.8952,0.5171,0.357,0.2051,-0.0805,-0.1431,-0.2236,-0.4921,-0.5176,-0.5657,-0.7781,-0.8704,-0.9565,-1.0444,-1.0889,-1.1768,-1.3433,-1.4171,-1.5163,-1.6982,-1.7823,-1.8757,-1.9998,-2.1596,-2.3009,-2.4138,-2.6044,-2.7694,-2.8948,-2.9886,-3.0943,-3.2109,-3.2332,-3.2911,-3.3899,-3.4454,-3.1948,-2.6615,-2.0901,-1.4006,-0.5986,0.3143,0.9008,1.2297,1.3519,1.6314,2.0092,2.2504,2.5455,2.8553,3.1151,3.3491,3.5521,3.6544,3.7754,3.8886,3.8952,3.9432,3.9983,4.0229,4.0399,4.054,4.0746,4.0848,4.097,4.1332,4.1862,4.2276,4.2138,4.2497,4.2624,4.1755,4.156,4.1462,4.1166,4.1054,4.0991,4.0991,4.0942,4.0917,4.0932,4.0964,4.1638,4.3383,4.3663,4.4334,4.6025,4.6196,4.6196,4.6196,4.5886,4.5703,4.5703,4.5456,4.5297,4.5297,4.5297,4.5132,4.4819,4.4546,4.4279,4.4005,4.3649,4.3497,4.3497,4.3548,4.3667,1.8964,1.7131,1.5155,1.177,1.0423,0.8952,0.5171,0.357,0.214,-0.0715,-0.1253,-0.2057,-0.4743,-0.5087,-0.5393,-0.6929,-0.8205,-0.9076,-0.9015,-1.0122,-1.1254,-1.1896,-1.3302,-1.4673,-1.6035,-1.7051,-1.8152,-1.953,0.0,-2.2518,-2.2857,-2.5149,-2.6872,-2.775,-2.8948,-3.0311,-3.1735,-3.1825,-3.2602,-3.4003,-3.4525,-3.1283,-2.4585,-1.7903,-0.9363,0.0546,0.5678,0.9554,1.2432,1.4126,1.6878,2.0317,2.3292,2.6148,2.8859,3.1774,3.3963,3.5615,3.657,3.7649,3.8658,3.8915,3.9333,3.9819,4.0174,4.0399,4.0559,4.0746,4.0868,4.116,4.1984,4.2325,4.2656,4.3507,4.373,4.3534,4.2659,4.2438,4.2165,4.1322,4.1074,4.0991,4.1007,4.0942,4.0924,4.0981,4.1042,4.168,4.339,4.3661,4.4348,4.6014,4.619,4.6196,4.6196,4.5886,4.5703,4.5703,4.5456,4.5297,4.5297,4.5277,4.5109,4.4795,4.4519,4.425,4.3974,4.3649,4.3479,4.3532,4.3548,4.3667,1.9158,1.7074,1.4448,1.2207,1.0768,0.8952,0.5171,0.4109,0.3126,0.0269,0.0179,-0.0179,-0.3044,-0.3307,-0.3791,-0.5864,-0.6964,-0.7817,-0.8672,-0.9113,-0.997,-1.1822,-1.2345,-1.3288,-1.5092,-1.579,-1.6558,-1.7335,-1.9454,-2.0801,-2.0923,-2.3612,-2.549,-2.617,-2.842,-3.0041,-3.0915,-3.2177,-3.3212,-3.3926,-3.4369,-2.9305,-1.9374,-1.3959,-0.6058,0.3705,0.8058,1.1186,1.3389,1.5424,1.8221,2.1381,2.3535,2.6204,2.918,3.1153,3.3386,3.5621,3.6523,3.7763,3.8915,3.898,3.9515,4.0175,4.0264,4.05,4.0746,4.0848,4.1345,4.1931,4.2194,4.3298,4.4201,4.3808,4.4198,4.4428,4.3566,4.2859,4.2327,4.2103,4.1484,4.0972,4.0921,4.0904,4.0924,4.0981,4.1549,4.2388,4.3534,4.3696,4.4343,4.6025,4.6209,4.619,4.6196,4.5886,4.5703,4.5703,4.5456,4.5297,4.5297,4.5045,4.4795,4.4493,4.425,4.3955,4.3615,4.3548,4.3532,4.3582,4.3582,4.3701,1.9483,1.7245,1.472,1.2983,1.1707,1.0077,0.6835,0.5786,0.4721,0.1783,0.1699,0.1075,-0.2329,-0.2684,-0.326,-0.5569,-0.6854,-0.7639,-0.8146,-0.8699,-0.9372,-1.0179,-1.1149,-1.2117,-1.3135,-1.4641,-1.5508,-1.5242,-1.8055,-1.9738,-1.9814,-2.2153,-2.4041,-2.5149,-2.713,-2.8928,-3.0443,-3.2141,-3.3158,-3.3503,-3.4389,-3.1457,-2.4746,-0.9474,0.1225,0.7736,0.0,1.2437,1.4771,1.7389,2.0161,2.2972,2.4929,2.7444,3.012,3.1549,3.3428,3.5426,3.6658,3.7771,3.873,3.9104,3.9694,4.03,4.03,4.08,4.1383,4.1422,4.2092,4.2898,4.3337,4.4221,4.4961,4.4879,4.5206,4.5241,4.3972,4.3325,4.2741,4.1932,4.1355,4.0978,4.0915,4.0907,4.0913,4.0983,4.1741,4.2646,4.357,4.4039,4.4777,4.605,4.6195,4.6183,4.613,4.5852,4.5675,4.5634,4.5438,4.5297,4.5297,4.5109,4.4887,4.4572,4.4318,4.403,4.3763,4.3615,4.36,4.3667,4.3734,4.38,1.9866,1.7738,1.5545,1.3995,1.299,1.1627,0.9191,0.7975,0.6477,0.3726,0.312,0.1968,-0.17,-0.2325,-0.3083,-0.5231,-0.685,-0.7635,-0.7374,-0.8385,-0.8912,-0.8156,-0.9734,-1.0926,-1.0932,-1.3186,-1.4283,-1.3375,-1.6504,-1.8593,-1.8747,-2.0703,-2.2673,-2.4651,-2.5607,-2.7353,-2.9989,-3.1388,-3.2312,-3.2838,-3.4171,-3.3552,-3.0369,-0.5559,0.8096,1.2087,1.2145,1.3869,1.6852,1.967,2.2374,2.486,2.6956,2.9171,3.1322,3.2431,3.3776,3.5276,3.6822,3.7734,3.8362,3.925,3.9956,4.049,4.0488,4.1316,4.2279,4.2276,4.3013,4.3943,4.4711,4.4952,4.5195,4.5941,4.603,4.5539,4.4039,4.3612,4.3021,4.1328,4.1008,4.0986,4.0906,4.0907,4.091,4.098,4.1833,4.2768,4.3596,4.4458,4.5304,4.6108,4.6195,4.615,4.6007,4.5822,4.5645,4.5507,4.5361,4.5297,4.5297,4.5256,4.5087,4.4751,4.4465,4.425,4.3999,4.3749,4.3667,4.3804,4.3883,4.3897,2.0518,1.8612,1.6503,1.5464,1.3723,1.1798,0.9775,0.8748,0.7709,0.5596,0.4625,0.3383,0.1071,-0.0536,-0.2117,-0.3628,-0.4856,-0.5764,-0.6359,-0.6626,-0.7084,-0.7783,-0.8156,-0.8832,-1.0018,-1.053,-1.1267,-1.2378,-1.3512,-1.4727,-1.5992,-1.8889,-2.1836,-2.4595,-2.4461,-2.5649,-2.8467,-2.865,-2.9779,-3.1844,-3.2441,-2.5021,-1.0635,-0.5605,0.3522,1.5369,1.5068,0.0,2.1113,2.2263,2.4204,2.6693,2.8476,3.0404,3.2302,3.2903,3.4079,3.5502,3.6664,3.7629,3.8508,3.9399,4.044,4.1409,4.1508,4.23,4.3194,4.3244,4.3948,4.4722,4.4926,4.4997,4.5039,4.5195,4.4679,4.4075,4.3762,4.3136,4.2304,4.1208,4.1,4.0986,4.0906,4.0907,4.091,4.098,4.2341,4.3452,4.3674,4.4458,4.5304,4.6108,4.6195,4.615,4.6007,4.5822,4.5645,4.5507,4.5361,4.5297,4.5297,4.5023,4.477,4.4465,4.4192,4.3923,4.3615,4.3615,4.3667,4.3804,4.3883,4.3929,2.0827,1.9018,1.7326,1.6561,1.517,1.3762,1.2457,1.1348,1.0058,0.8649,0.6994,0.4975,0.258,0.0981,-0.0617,-0.2529,-0.3432,-0.4119,-0.4787,-0.4993,-0.5461,-0.6388,-0.6773,-0.7419,-0.8667,-0.9413,-1.0067,-1.0416,-1.1403,-1.2998,-1.5296,-1.8215,-2.0459,-2.203,-2.2464,-2.3354,-2.4745,-2.6332,-2.4978,-2.0662,-1.6914,-1.0875,-0.2669,0.6699,1.5203,2.2393,2.057,2.1618,2.4549,2.5488,2.6925,2.873,3.0218,3.1638,3.2961,3.3775,3.4789,3.5916,3.731,3.8205,3.8918,3.9853,4.0553,4.105,4.1139,4.1933,4.2789,4.2849,4.3541,4.4275,4.4314,4.4315,4.431,4.431,4.3668,4.3006,4.2988,4.2296,4.1542,4.1084,4.096,4.0941,4.0917,4.0907,4.1085,4.1605,4.2773,4.3785,4.4315,4.5141,4.5811,4.6167,4.6201,4.6103,4.5871,4.579,4.565,4.54,4.536,4.5338,4.5297,4.5151,4.4862,4.443,4.426,4.403,4.3652,4.3686,4.3767,4.3897,4.3929,4.3974,2.1145,1.9668,1.839,1.7883,1.6846,1.5809,1.5304,1.3944,1.2492,1.1428,0.9438,0.7082,0.4515,0.2932,0.1407,-0.0592,-0.1592,-0.2391,-0.3,-0.3461,-0.4019,-0.4878,-0.5364,-0.5972,-0.6809,-0.7947,-0.8462,-0.8078,-0.9212,-1.1218,-1.4395,-1.6401,-1.7701,-1.8182,-1.8353,-1.883,-1.9621,-2.1357,-1.8375,-1.0574,-0.1024,0.4112,0.5682,2.033,2.7523,2.8383,2.6046,2.6219,2.816,2.9244,3.0302,3.1328,3.2484,3.3424,3.4246,3.5321,3.6002,3.6634,3.8341,3.9051,3.9353,4.0303,4.0696,4.0823,4.0915,4.1663,4.2505,4.2563,4.3114,4.3693,4.3674,4.355,4.3359,4.316,4.2597,4.2073,4.2007,4.1465,4.1007,4.0974,4.0941,4.0907,4.0907,4.0907,4.1221,4.2158,4.304,4.3921,4.485,4.5753,4.6284,4.6231,4.6211,4.6064,4.5757,4.5764,4.5654,4.5339,4.5359,4.5378,4.5317,4.5317,4.5042,4.4438,4.4411,4.4221,4.3804,4.3804,4.3883,4.3974,4.4005,4.4005,2.1949,2.1011,2.0226,2.0216,1.8532,1.6838,1.6838,1.5621,1.4048,1.2492,1.1348,1.0038,0.8313,0.575,0.3866,0.3781,0.1688,-0.0248,-0.1128,-0.1933,-0.2746,-0.3794,-0.3946,-0.4082,-0.4174,-0.4246,-0.4656,-0.5399,-0.5891,-0.7857,-1.1627,-1.1386,-1.1899,-1.3637,-1.0243,-0.9858,-1.2887,-1.0301,-0.9508,-1.0402,0.5476,1.6733,2.3682,2.75,2.917,2.9125,2.931,3.0608,0.0,3.373,3.4528,3.5162,3.5806,3.6509,3.7224,3.8042,3.8098,3.7976,3.9717,3.994,3.9615,4.0427,4.119,4.1809,4.1989,4.2711,4.3457,4.349,4.3587,4.3699,4.3641,4.302,4.2218,4.1442,4.1189,4.1098,4.1033,4.1007,4.0974,4.0915,4.0897,4.0907,4.0907,4.0907,4.1216,4.2156,4.3041,4.3915,4.4805,4.5712,4.6296,4.6284,4.6236,4.6091,4.5801,4.5803,4.5688,4.5399,4.5398,4.5398,4.5398,4.5398,4.5151,4.4591,4.4519,4.426,4.3804,4.3851,4.3915,4.3897,4.3974,4.4005,2.2176,2.1175,2.0459,2.0459,1.9027,1.7585,1.7585,1.637,1.4977,1.3957,1.2656,1.1268,0.962,0.7519,0.5838,0.5616,0.3882,0.2295,0.1599,0.0915,-0.0083,-0.1569,-0.1749,-0.2019,-0.264,-0.2613,-0.2676,-0.3005,-0.2649,-0.3014,-0.4291,-0.6705,-0.7748,-0.7267,-0.628,-0.5008,-0.3534,-0.3716,0.0237,0.8343,1.3534,2.1696,3.2279,3.3231,3.3763,3.3976,3.422,3.4807,0.0,3.6091,3.6422,3.6653,3.7022,3.7623,3.8346,3.8821,3.9252,3.9688,4.0386,4.0513,4.046,4.0816,4.1139,4.1376,4.1505,4.1796,4.2108,4.2108,4.2103,4.211,4.2044,4.1751,4.1373,4.1019,4.0933,4.094,4.0907,4.0926,4.0932,4.0917,4.0907,4.0907,4.0907,4.1335,4.1993,4.2896,4.3797,4.4694,4.5566,4.6046,4.63,4.6296,4.6284,4.6164,4.593,4.5875,4.5769,4.5526,4.5438,4.5649,4.6147,4.6146,4.617,4.6353,4.6169,4.5914,4.5593,4.4939,4.467,4.4753,4.4246,4.4005,2.2542,2.17,2.1155,2.0934,1.9825,1.8868,1.8868,1.7585,1.6288,1.5621,1.4441,1.299,1.1353,0.9927,0.8832,0.8132,0.6518,0.5137,0.4528,0.3507,0.228,0.0592,0.034,0.0086,-0.0609,-0.0344,0.0,0.0339,0.1354,0.2194,0.286,0.0082,-0.1296,-0.088,-0.0159,0.1877,0.5121,0.4506,1.0012,2.1677,2.0698,2.5681,3.5652,3.6369,3.6902,3.7292,3.7685,3.7854,0.0,3.8235,3.8363,3.8343,3.8789,3.9323,3.9859,4.0312,4.0773,4.1175,4.116,4.1096,4.103,4.1056,4.1033,4.0992,4.0984,4.1013,4.1061,4.1077,4.1009,4.0952,4.0965,4.0876,4.0791,4.0867,4.0888,4.0902,4.0907,4.0898,4.0907,4.0907,4.0907,4.0985,4.1238,4.1781,4.2587,4.3716,4.447,4.5216,4.609,4.6264,4.63,4.63,4.6292,4.6226,4.6049,4.5969,4.5832,4.5634,4.5774,4.6128,4.6704,4.6933,4.7214,4.7556,4.7378,4.717,4.693,4.6132,4.5767,4.5743,4.4904,4.4302,2.3213,2.3001,2.2777,2.1949,2.1242,2.076,2.076,1.9492,1.8052,1.7382,1.6764,1.5809,1.3977,1.3668,1.3399,1.2198,1.005,0.8249,0.7614,0.5757,0.3884,0.2334,0.2115,0.2053,0.2053,0.2939,0.3993,0.5117,0.6355,0.0,0.8685,0.9667,0.8647,0.5084,0.9693,1.2203,1.229,1.583,1.9655,2.3704,2.6426,2.9844,3.3913,3.63,3.7495,3.7766,3.8899,3.9388,0.0,4.0516,4.0847,4.0759,4.177,4.2168,4.2267,4.3131,4.297,4.228,4.2213,4.172,4.1083,4.103,4.0994,4.0957,4.0761,4.0848,4.0994,4.0994,4.0804,4.0646,4.0849,4.0706,4.0554,4.0745,4.0846,4.0907,4.0907,4.0908,4.0907,4.0907,4.0907,4.116,4.2034,4.2189,4.2792,4.452,4.4851,4.521,4.6085,4.6268,4.63,4.63,4.63,4.6245,4.6105,4.6045,4.5911,4.5713,4.6515,4.6921,4.6801,4.7626,4.795,4.7685,4.7697,4.7562,4.7296,4.7271,4.7133,4.6861,4.6064,4.5084,2.3537,2.2968,2.2553,2.2252,2.1624,2.0991,2.0991,1.9885,1.8461,1.7471,1.7009,1.6448,1.5418,1.4977,1.4623,1.4172,1.2811,1.1289,0.9849,0.8966,0.8009,0.667,0.6521,0.6461,0.6461,0.689,0.7567,0.8484,1.0169,1.1668,1.2736,1.4858,1.4574,1.1356,1.3067,1.5707,1.9123,2.109,2.4418,2.8915,3.0228,3.2907,3.6632,3.7392,3.834,3.9432,3.9975,4.0221,4.0266,4.0779,4.1283,4.1753,4.2028,4.2851,4.3806,4.2881,4.2767,4.2881,4.1765,4.1237,4.101,4.0858,4.0761,4.0698,4.0655,4.08,4.0983,4.0945,4.0733,4.0596,4.0771,4.0765,4.0726,4.0788,4.0834,4.0848,4.0897,4.0908,4.0907,4.0907,4.0907,4.1179,4.2053,4.2694,4.3471,4.4637,4.5328,4.5835,4.616,4.6229,4.6243,4.6303,4.63,4.6277,4.624,4.6125,4.6258,4.6705,4.6902,4.7458,4.8529,4.8798,4.9182,4.9738,4.9529,4.9377,4.9267,4.8549,4.7851,4.7159,4.6713,4.6025,2.4529,2.3829,2.3191,2.2894,2.2209,2.168,2.168,2.075,1.964,1.8665,1.8325,1.7861,1.6838,1.6791,1.6725,1.6259,1.5318,1.4153,1.2513,1.1758,1.0818,0.9209,0.9343,0.9506,0.9506,1.0262,1.1182,1.2253,1.3712,1.5094,1.6324,1.8599,1.9214,1.7778,1.8029,1.98,2.3257,2.5014,2.7655,3.1302,3.2322,3.4547,3.7675,3.7903,3.8702,3.9963,4.0185,4.0539,0.0,4.1207,4.1752,4.247,4.2845,4.3605,4.4316,4.2902,4.2746,4.298,4.1313,4.0797,4.0824,4.0677,4.0532,4.0456,4.0456,4.0669,4.0906,4.0777,4.0573,4.0425,4.0554,4.0549,4.0564,4.0655,4.075,4.0826,4.0888,4.0898,4.0907,4.0907,4.116,4.1665,4.2539,4.3413,4.4287,4.5122,4.5732,4.6118,4.6153,4.6173,4.621,4.6261,4.6258,4.641,4.6768,4.6704,4.6846,4.7242,4.7772,4.8473,4.9444,4.9702,5.0106,5.0683,5.0504,5.038,5.038,4.9596,4.877,4.7914,4.767,4.7099,0.0,2.5264,2.4492,2.3818,2.318,2.2777,2.2767,2.2059,0.0,2.0769,2.0474,1.9807,1.8205,1.8955,1.9525,1.8377,1.7635,1.6779,1.5486,1.4265,1.2742,1.0605,1.1059,1.1555,1.1555,1.3168,1.4691,1.6121,1.7041,1.8153,1.9565,2.1131,2.2626,2.391,2.4042,2.4495,2.5286,2.7683,2.975,3.1526,3.3093,3.502,3.7324,3.7932,3.8672,0.0,3.9754,4.048,4.149,4.1754,4.2258,4.2984,4.4053,4.4338,4.4071,4.3216,4.2891,4.2642,4.0901,4.0425,4.0562,4.0479,4.0321,4.0177,4.0177,4.0441,4.0673,4.0519,4.0339,4.0196,4.0196,4.0158,4.0176,4.0438,4.0636,4.0812,4.0849,4.0878,4.0917,4.0976,4.1646,4.25,4.3433,4.4268,4.5064,4.588,4.6044,4.6091,4.6098,4.6153,4.6192,4.6191,4.6269,4.6658,4.7517,4.7608,4.7587,4.7586,4.8983,4.9763,4.9702,5.0333,5.0702,5.0702,5.0702,5.0702,5.0702,5.0399,4.9847,4.9105,4.8827,4.8244,2.7108,0.0,2.4337,2.4779,2.3936,2.3065,0.0,2.282,2.188,2.1822,2.1669,2.1296,2.0668,2.1124,2.119,1.9971,1.9653,1.906,1.7722,1.6881,1.6032,1.5199,1.5321,1.5403,1.5403,1.5913,1.6968,1.8788,1.9849,2.1374,2.3509,2.4577,2.5451,2.6214,2.7087,2.7813,2.8416,2.9947,3.1566,3.3272,3.4523,3.5805,3.7234,3.7902,3.8589,3.9317,4.0339,4.094,4.1254,4.2068,4.2891,4.3671,4.3939,4.4397,4.4762,4.3463,4.287,4.2527,4.0991,4.0379,4.0271,4.0099,4.0,3.9958,3.9958,3.9935,3.9935,4.0196,4.0139,4.0,4.0158,4.0232,4.0283,4.0332,4.0462,4.0568,4.0596,4.0706,4.1009,4.1629,4.1994,4.2694,4.4229,4.4656,4.5064,4.588,4.5998,4.6046,4.6091,4.6112,4.6147,4.6192,4.6794,4.7285,4.7498,4.7562,4.8094,4.9243,4.9624,5.0035,5.0573,5.0661,5.0702,5.0702,5.0702,5.0702,5.0702,5.0624,5.0489,5.0297,4.9985,4.9391,2.7523,2.6321,2.5264,2.5721,2.4636,2.3632,2.4047,2.3442,2.2796,2.2486,2.2701,2.2808,2.2373,2.2617,2.2573,2.1578,2.1686,2.1289,1.9487,1.8148,1.7163,1.6738,1.7025,1.7423,1.7658,1.8149,1.9088,2.071,2.1769,2.3103,2.4886,2.5779,2.6564,2.731,2.822,2.8856,2.9115,3.0631,3.2118,3.3521,3.4382,3.5613,3.7082,3.7452,3.8259,3.9457,4.0307,4.1135,4.1983,4.2743,4.3494,4.418,4.4277,4.4539,4.4697,4.3121,4.2471,4.2174,4.0611,4.008,4.004,3.9935,3.9914,3.9892,3.98,3.9679,3.9656,3.9998,3.9979,3.9914,3.9935,3.9981,4.0062,4.0176,4.0319,4.0534,4.1031,4.1233,4.1551,4.2434,4.2966,4.3624,4.4626,4.5103,4.5491,4.5919,4.5997,4.5998,4.6054,4.6044,4.6232,4.6708,4.7165,4.779,4.8613,4.8738,4.9098,4.9945,5.0283,5.0616,5.1016,5.0908,5.0803,5.0793,5.074,5.0702,5.0702,5.0702,5.0702,5.0702,5.0504,5.0212,2.7523,2.704,2.6552,2.6427,2.5264,2.4131,2.4212,2.3932,2.3612,2.3264,2.3763,2.4085,2.3574,2.373,2.3724,2.3047,2.3464,2.3071,2.1006,1.9242,1.8046,1.7548,1.8155,1.8772,1.9256,1.9982,2.1001,2.2274,2.3095,2.4036,2.5252,2.6057,2.696,2.8026,2.8671,2.9024,2.9136,3.0867,3.229,3.3348,3.4021,3.5311,3.7075,3.7193,3.8204,3.99,0.0,0.0,4.2947,4.3446,4.3988,4.4524,4.4707,4.4655,4.4327,4.2795,4.2138,4.1773,4.0159,3.9703,3.9848,3.9848,3.9848,3.9804,3.965,3.9602,3.965,3.9823,3.9848,3.9804,3.9631,3.9661,3.9785,4.002,4.0291,4.0725,4.1639,4.1952,4.2328,4.3258,4.4066,4.4679,4.4935,4.5539,4.5997,4.5997,4.5997,4.5997,4.5997,4.6113,4.6504,4.7295,4.7624,4.8415,4.996,5.0227,5.0305,5.0301,5.0875,5.1195,5.1159,5.1063,5.0979,5.0913,5.0793,5.074,5.074,5.0702,5.0702,5.0702,5.0702,5.0702,2.7523,2.739,2.7175,2.6564,2.5264,2.4235,2.4682,2.4189,2.3885,2.4701,2.4973,2.4956,2.4682,2.4723,2.4509,2.38,2.3714,2.3533,2.2864,2.2473,2.1963,2.1172,2.1243,2.1322,2.1308,2.1431,2.2027,2.3441,2.4074,2.5075,2.6607,2.7229,2.8078,2.9192,2.9889,3.0495,3.1043,3.2259,3.3415,3.4544,3.5493,3.6636,3.7923,3.8506,3.9479,4.0778,0.0,4.2415,4.2973,4.3714,4.4204,4.4496,4.4524,4.4524,4.443,4.3643,4.2781,4.1773,4.0159,3.9626,3.965,3.965,3.965,3.965,3.9602,3.9602,3.962,3.965,3.965,3.965,3.9602,3.9727,3.9889,3.9914,4.0632,4.1361,4.1532,4.2197,4.3013,4.3895,4.4341,4.4828,4.5609,4.5875,4.5997,4.5997,4.5997,4.5997,4.5997,4.6638,4.7162,4.73,4.8639,4.9653,4.9996,5.0741,5.1206,5.1199,5.1206,5.115,5.1042,5.102,5.0996,5.0972,5.0913,5.0874,5.0874,5.0758,5.0702,5.0702,5.0702,5.0702,2.7523,2.7523,2.7323,2.6552,2.5836,2.5479,2.6094,2.5408,2.4926,2.5711,2.5687,2.555,2.5432,2.5464,2.5295,2.502,2.4327,2.3821,2.3721,2.3398,2.2998,2.2352,2.2059,2.1974,2.2293,2.2542,2.3198,2.4337,2.5169,2.6146,2.7377,2.7999,2.8684,2.9442,3.0495,3.1513,3.2536,3.3666,3.4484,3.5037,3.6055,3.7292,3.8714,3.9269,4.0185,4.1359,0.0,4.2588,4.3162,4.3819,4.417,4.4277,4.4277,4.4364,4.4346,4.3182,4.2159,4.1191,4.0009,3.9602,3.9602,3.9602,3.9602,3.9602,3.9602,3.9602,3.9695,4.0121,3.9934,3.9602,3.9602,3.9994,4.041,4.048,4.1241,4.2134,4.2635,4.3139,4.3771,4.4708,4.507,4.5341,4.5815,4.596,4.5997,4.5997,4.5997,4.6171,4.6638,4.7045,4.7667,4.8599,4.9419,5.0128,5.0668,5.1128,5.1403,5.1398,5.1333,5.1284,5.1211,5.115,5.1113,5.1113,5.1004,5.0959,5.0959,5.0889,5.0863,5.0863,5.0863,5.0863,2.7323,2.7255,2.7066,2.6439,2.6325,2.6462,2.7092,2.6297,2.5678,2.6473,2.6341,2.6135,2.5895,2.5895,2.5895,2.5895,2.502,2.4374,2.4545,2.4159,2.3649,2.3289,2.2917,2.2887,2.3544,2.3999,2.4661,2.5732,2.6639,2.7537,2.8425,2.9043,2.9672,3.044,3.159,3.2719,3.3836,3.5032,3.5638,3.5638,3.6547,3.7847,3.9504,3.9851,4.0748,4.1995,4.2213,4.2647,4.3338,4.3809,4.403,4.4109,4.417,4.4306,4.4308,4.2637,4.1623,4.0947,3.9934,3.9602,3.9577,3.9527,3.9527,3.9546,3.9733,3.9789,3.9977,4.0828,4.0647,4.0159,4.0159,4.0635,4.1155,4.1273,4.1997,4.289,4.3589,4.4024,4.4475,4.5304,4.5582,4.5746,4.588,4.596,4.5997,4.5997,4.6171,4.654,4.722,4.7667,4.8425,4.9765,5.0072,5.0502,5.1216,5.134,5.1404,5.1408,5.1398,5.1394,5.1394,5.1297,5.1252,5.1252,5.1123,5.1042,5.1042,5.102,5.1008,5.1008,5.1008,5.1008,2.6701,2.6496,2.6402,2.6105,2.5997,2.6226,2.6769,2.6081,2.5566,2.6862,2.7151,2.6857,2.6063,2.5895,2.5895,2.5895,2.5812,2.5801,2.5768,2.5757,2.5489,2.5093,2.5006,2.5269,2.6019,2.624,2.6904,2.8164,2.8976,2.9651,3.0337,3.0996,3.1861,3.3168,3.3874,3.4545,3.5252,3.6388,3.6986,3.6986,3.7547,3.8706,4.0313,4.0355,4.1256,4.281,4.2829,4.3014,4.3338,4.3612,4.3873,4.4121,4.4364,4.4487,4.4308,4.2637,4.1954,4.1698,4.014,3.9602,3.9552,3.9309,3.9237,3.9386,4.0113,4.0337,4.0578,4.1627,4.186,4.1849,4.1849,4.1964,4.2102,4.2102,4.2848,4.3531,4.3587,4.4368,4.5074,4.5282,4.551,4.5746,4.588,4.596,4.5997,4.5997,4.6696,4.724,4.7298,4.8716,4.9765,4.9881,5.0631,5.1122,5.1203,5.133,5.1406,5.1406,5.1391,5.1394,5.1394,5.139,5.139,5.139,5.1252,5.1195,5.1195,5.1063,5.1008,5.1008,5.1008,5.1008,2.6633,2.6701,2.6896,2.6142,2.6236,2.662,2.7236,2.7411,2.7387,2.7233,2.7185,2.694,2.6063,2.5895,2.5895,2.5895,2.5895,2.6063,2.6622,2.6218,2.6224,2.7059,2.6428,2.6324,2.7292,2.7718,2.8192,2.8782,3.0048,3.0894,3.1135,3.2169,3.3164,3.4027,3.4685,3.5713,3.7122,3.756,3.8152,3.8975,3.8993,3.9738,4.1104,4.1379,4.1993,4.2882,4.2882,4.2957,4.3069,4.3338,4.3511,4.3646,4.3905,4.3905,4.3647,4.2674,4.201,4.1471,4.081,4.0384,4.0157,4.0552,4.0821,4.1004,4.1285,4.1378,4.1592,4.2535,4.2806,4.2693,4.2149,4.2438,4.2886,4.2886,4.3611,4.4323,4.4378,4.4763,4.5148,4.5258,4.5457,4.5618,4.5761,4.5874,4.6154,4.6724,4.7084,4.7686,4.8774,4.9493,5.0114,5.0658,5.0996,5.12,5.1195,5.1284,5.1361,5.1406,5.1394,5.1394,5.1394,5.1394,5.1394,5.1394,5.1357,5.1327,5.1327,5.1265,5.1252,5.1252,5.1252,5.1252,2.6633,2.6896,2.7232,2.6481,2.6644,2.7095,2.7387,2.7729,2.7746,2.7267,2.694,2.6787,2.6693,2.6456,2.6302,2.6302,2.6539,2.6928,2.7487,2.7092,2.708,2.8267,2.7628,2.7482,2.8504,2.9011,2.9528,3.0148,3.1351,3.2273,3.2723,3.3613,3.4409,3.5027,3.589,3.6915,3.8233,3.8617,3.9244,4.0121,3.9939,4.0348,4.1303,4.176,4.2239,4.2673,4.2844,4.2882,4.292,4.3196,4.3338,4.3442,4.3612,4.3579,4.3351,4.2709,4.216,4.1643,4.1298,4.0959,4.0736,4.1241,4.1486,4.1706,4.1949,4.2023,4.2238,4.3269,4.354,4.3437,4.2929,4.3238,4.367,4.3724,4.4218,4.4738,4.487,4.501,4.5148,4.5258,4.5611,4.5933,4.607,4.6424,4.6907,4.7551,4.7917,4.8541,4.9745,5.0134,5.0542,5.1144,5.119,5.12,5.12,5.1239,5.1288,5.1333,5.1367,5.1377,5.1394,5.1394,5.1394,5.1394,5.1394,5.1394,5.1394,5.1394,5.1394,5.1394,5.1394,5.1394,2.6633,2.6816,2.7226,2.6966,2.7336,2.761,2.7302,2.6539,2.6135,2.7021,2.6539,2.6373,2.8108,2.773,2.7185,2.7185,2.7879,2.8426,2.8426,2.8426,2.8426,2.8426,2.8426,2.8821,2.9909,3.0241,3.1044,3.2791,3.3073,3.3837,3.5335,3.54,3.5737,3.6492,3.7663,3.8294,3.8334,3.9506,4.007,4.007,4.007,4.0353,4.0802,4.1276,4.176,4.2257,4.2711,4.2882,4.292,4.3196,4.3442,4.3679,4.3679,4.3679,4.3586,4.2793,4.2498,4.2369,4.152,4.1224,4.1193,4.1009,4.0928,4.1074,4.1857,4.213,4.2396,4.3745,4.4091,4.417,4.444,4.4515,4.4524,4.4659,4.4712,4.4738,4.487,4.501,4.5148,4.5301,4.6071,4.6742,4.6901,4.7743,4.841,4.841,4.9259,4.9901,4.9901,5.0678,5.1202,5.1202,5.1202,5.1202,5.1202,5.121,5.1203,5.1203,5.1269,5.1322,5.1398,5.1394,5.1394,5.1394,5.1394,5.1394,5.1394,5.1394,5.1394,5.1394,5.1394,5.1394,2.6402,2.6652,2.6915,2.599,2.6724,2.7387,2.6509,2.701,2.7557,2.7255,2.6539,2.6218,2.7325,2.7336,2.7418,2.7959,2.8267,2.8585,2.9225,2.8821,2.8821,3.0101,2.9845,2.9922,3.1035,3.1347,3.1909,3.3017,3.363,3.438,3.5335,3.5879,3.6677,3.7722,3.8108,3.8739,3.9575,3.9901,4.007,4.007,4.007,4.0353,4.0802,4.1276,4.176,4.2257,4.2711,4.2882,4.292,4.2995,4.3069,4.3142,4.3142,4.3142,4.3105,4.2868,4.2431,4.1994,4.2304,4.2136,4.1922,4.2406,4.2711,4.2916,4.3137,4.3342,4.359,4.4004,4.4248,4.4411,4.4487,4.4515,4.4515,4.4551,4.4632,4.4738,4.487,4.5485,4.6043,4.6137,4.6849,4.7526,4.7645,4.7931,4.8386,4.9195,4.9581,5.0009,5.0724,5.1047,5.1202,5.1202,5.1202,5.1202,5.1202,5.1197,5.1211,5.1195,5.1225,5.1255,5.1322,5.1367,5.1403,5.1403,5.1408,5.1394,5.1394,5.1394,5.1394,5.1394,5.1394,5.1394,2.6333,2.7037,2.7632,2.6188,2.6877,2.7557,2.6235,2.6693,2.7406,2.7255,2.6539,2.6302,2.7499,2.7649,2.7959,2.8743,2.9225,2.9626,3.0101,2.9781,2.9781,3.0911,3.0646,3.0722,3.1522,3.195,3.2632,3.3561,3.4312,3.5059,3.5816,3.6289,3.6937,3.7895,3.8165,3.8794,3.9747,3.9969,4.007,4.007,4.007,4.0254,4.0531,4.1185,4.176,4.2257,4.2711,4.2882,4.2882,4.2882,4.2882,4.2882,4.2882,4.2882,4.2882,4.2882,4.2592,4.2248,4.2719,4.2668,4.2486,4.296,4.3232,4.3373,4.3373,4.3511,4.366,4.3873,4.4048,4.4248,4.444,4.474,4.4909,4.4626,4.4877,4.521,4.5363,4.6168,4.6896,4.6927,4.7678,4.8337,4.8426,4.8738,4.924,4.9905,5.0132,5.0453,5.1043,5.1178,5.1202,5.1202,5.1202,5.1202,5.1202,5.1202,5.1197,5.1201,5.1201,5.1209,5.1264,5.1324,5.1363,5.1363,5.1367,5.1364,5.1394,5.1394,5.1408,5.1394,5.1394,5.1402,2.6327,2.7551,2.8605,2.6923,2.7293,2.7799,2.6373,2.599,2.6146,2.694,2.6467,2.6373,2.8108,2.8426,2.8743,2.9626,3.0508,3.0986,3.0986,3.0986,3.0986,3.0986,3.1061,3.1211,3.1669,3.2359,3.3241,3.4312,3.4993,3.5737,3.6492,3.6554,3.6831,3.746,3.8067,3.8684,3.9259,3.9816,4.007,4.007,4.007,4.0121,4.0221,4.1094,4.1803,4.2297,4.2711,4.2882,4.2882,4.2882,4.2882,4.2882,4.2882,4.2882,4.2882,4.2882,4.2882,4.2882,4.2882,4.2882,4.2882,4.2882,4.2882,4.2882,4.2882,4.292,4.3032,4.3511,4.3679,4.3828,4.4429,4.5125,4.5528,4.5036,4.5458,4.604,4.6196,4.6985,4.771,4.7734,4.8533,4.9213,4.9213,4.992,5.0486,5.0507,5.0771,5.0971,5.0971,5.1108,5.119,5.119,5.119,5.1202,5.1202,5.1202,5.1202,5.1202,5.1202,5.1202,5.1202,5.1271,5.1288,5.1288,5.1293,5.1333,5.1386,5.1386,5.1385,5.1385,5.1385,5.1398,2.634,2.6493,2.6633,2.5825,2.5917,2.6373,2.6775,2.6385,2.5979,2.6135,2.6063,2.6373,2.8108,2.8426,2.89,3.0508,3.0898,3.0986,3.0986,3.0986,3.0986,3.0986,3.1299,3.173,3.2431,3.2818,3.3699,3.5059,3.5335,3.5737,3.6492,3.6952,3.746,3.8067,3.8684,3.9312,3.9918,4.002,4.007,4.007,4.007,4.0303,4.0659,4.123,4.1973,4.2768,4.2844,4.2882,4.2882,4.2882,4.2882,4.2882,4.2882,4.2882,4.2882,4.2882,4.2882,4.2882,4.2882,4.2882,4.2882,4.2882,4.2882,4.2882,4.2882,4.3069,4.3232,4.3338,4.3545,4.3925,4.4892,4.5251,4.5574,4.6336,4.6723,4.6946,4.7087,4.7859,4.859,4.8766,4.9457,5.0034,5.0034,5.021,5.0396,5.0486,5.0643,5.0767,5.0767,5.0937,5.1048,5.1048,5.1134,5.1202,5.1202,5.1202,5.1202,5.1202,5.1202,5.1202,5.1202,5.1209,5.1225,5.1225,5.1279,5.1301,5.1327,5.1327,5.1313,5.1318,5.1318,5.1316,2.7262,2.7791,2.8268,2.7474,2.6835,2.6539,2.7103,2.6857,2.6622,2.701,2.6775,2.701,2.8743,2.8978,2.9459,3.0748,3.0986,3.0986,3.0986,3.0986,3.1061,3.1123,3.1629,3.22,3.2747,3.3561,3.4447,3.532,3.5737,3.6085,3.6492,3.7058,3.7695,3.8278,3.892,3.947,4.007,4.007,4.007,4.007,4.007,4.0483,4.1139,4.163,4.2221,4.2882,4.2882,4.2882,4.2882,4.2882,4.2882,4.2882,4.2882,4.2882,4.2882,4.2882,4.2882,4.2882,4.2882,4.2882,4.2882,4.2882,4.2882,4.2882,4.2882,4.3267,4.3707,4.3852,4.434,4.5035,4.5704,4.629,4.6843,4.7432,4.7634,4.7702,4.7787,4.8602,4.9366,4.9461,4.9945,5.0302,5.0302,5.0302,5.0306,5.0377,5.0527,5.0587,5.0587,5.0752,5.0887,5.0986,5.1062,5.1134,5.1202,5.1202,5.1202,5.1202,5.1202,5.1202,5.1202,5.12,5.1191,5.1191,5.1226,5.1245,5.1258,5.1258,5.1274,5.1297,5.1297,5.1284,2.84,2.9554,3.0482,2.9484,2.8351,2.7534,2.7441,2.7418,2.7649,2.8438,2.7959,2.7891,2.9394,2.9704,3.0024,3.0823,3.0986,3.0986,3.0986,3.0986,3.1136,3.1408,3.2028,3.2648,3.3213,3.4432,3.5255,3.5544,3.6148,3.6554,3.6662,3.7238,3.7854,3.8463,3.9028,3.9592,4.0087,4.007,4.007,4.007,4.007,4.0611,4.1525,4.1888,4.2378,4.2882,4.2882,4.2882,4.2882,4.2882,4.2882,4.2882,4.2882,4.2882,4.2882,4.2882,4.2882,4.2882,4.2882,4.2882,4.2882,4.2882,4.2973,4.3099,4.3099,4.3661,4.4334,4.46,4.526,4.608,4.645,4.7322,4.8122,4.8302,4.8371,4.842,4.8431,4.9211,4.9871,4.9925,5.0114,5.0302,5.0302,5.0302,5.0302,5.0302,5.0377,5.0485,5.0485,5.0587,5.0733,5.089,5.0956,5.1048,5.1166,5.119,5.1202,5.1202,5.1202,5.1202,5.1202,5.1202,5.1202,5.1202,5.1202,5.1189,5.1198,5.1198,5.1238,5.1269,5.1269,5.1323,2.8919,2.9351,2.9594,2.9164,2.8939,2.8678,2.8295,2.8267,2.8505,2.9381,2.8834,2.8505,2.9537,2.9704,3.0024,3.0823,3.0986,3.0986,3.0986,3.0986,3.1259,3.1869,3.239,3.3171,3.4528,3.5059,3.5672,3.6289,3.6414,3.6723,3.7238,3.7838,3.8463,3.9082,3.9696,4.002,4.007,4.007,4.007,4.007,4.007,4.0611,4.1481,4.1569,4.2056,4.2882,4.2882,4.2882,4.2882,4.2882,4.2882,4.2882,4.2882,4.2882,4.2882,4.2882,4.2882,4.2882,4.2882,4.2882,4.2882,4.2882,4.3371,4.3932,4.3932,4.4494,4.5146,4.5167,4.5279,4.5633,4.6579,4.7186,4.7745,4.8673,4.9126,4.9352,4.9464,4.9617,4.9807,5.0031,5.0207,5.0302,5.0302,5.0302,5.0302,5.0302,5.0325,5.0325,5.0325,5.0423,5.0547,5.0567,5.0841,5.102,5.1034,5.1134,5.1202,5.1202,5.1202,5.1202,5.1202,5.1202,5.1202,5.1202,5.1202,5.1214,5.1206,5.1206,5.1197,5.1208,5.1208,5.1567,3.0816,3.1145,3.1028,3.0466,2.9868,2.9364,2.9197,2.9147,2.9381,3.0266,3.0101,2.9947,3.0343,3.0419,3.0583,3.0911,3.0986,3.1123,3.1529,3.1603,3.1955,3.2946,3.3575,3.4259,3.5073,3.5672,3.6148,3.6492,3.6492,3.6785,3.7358,3.7953,3.8574,3.9206,3.9799,4.007,4.007,4.007,4.007,4.0121,4.0353,4.0832,4.1525,4.176,4.2279,4.2882,4.2882,4.2882,4.2882,4.2882,4.2882,4.2882,4.2882,4.2882,4.2882,4.2882,4.2882,4.2955,4.3407,4.357,4.3643,4.4095,4.4476,4.4765,4.4765,4.5327,4.5979,4.5979,4.6549,4.7277,4.772,4.8229,4.8698,4.9169,4.9377,4.9539,4.9582,4.9653,4.9778,5.0057,5.0158,5.0207,5.0278,5.0302,5.0302,5.0302,5.0302,5.0302,5.0302,5.0352,5.0421,5.0486,5.0699,5.0871,5.0986,5.1121,5.1202,5.1202,5.163,5.1863,5.1863,5.2348,5.2601,5.2601,5.1688,5.1202,5.1202,5.1649,5.1863,5.1882,5.2368,5.2795,3.2346,3.2828,3.273,3.1924,3.1052,3.0367,3.0088,3.0024,3.0177,3.0898,3.0986,3.0986,3.0986,3.0986,3.0986,3.0986,3.1123,3.1468,3.2015,3.229,3.2791,3.3782,3.4476,3.5073,3.5479,3.6148,3.6492,3.6492,3.6662,3.7013,3.7578,3.8181,3.8794,3.9418,3.9867,4.007,4.007,4.007,4.007,4.0138,4.058,4.1065,4.1525,4.199,4.2458,4.2882,4.2882,4.2882,4.2882,4.2882,4.2882,4.2882,4.2882,4.2882,4.29,4.3118,4.319,4.3317,4.4132,4.4403,4.4494,4.5091,4.5436,4.5599,4.5599,4.6178,4.6812,4.6812,4.7576,4.8364,4.8364,4.882,4.9281,4.9281,4.9396,4.9509,4.9509,4.9612,4.9778,5.0005,5.0082,5.0133,5.0278,5.0474,5.0627,5.0627,5.0799,5.0932,5.0932,5.0932,5.096,5.1075,5.1202,5.1371,5.1563,5.1701,5.18,5.1824,5.2407,5.2737,5.2737,5.3339,5.3689,5.3689,5.2465,5.1843,5.1843,5.2445,5.2737,5.2756,5.3397,5.3824,3.2672,3.3483,3.4045,3.288,3.2567,3.2241,3.1159,3.0898,3.0986,3.0986,3.0986,3.0986,3.0986,3.0986,3.0986,3.0986,3.1603,3.2087,3.2074,3.272,3.3422,3.4177,3.4662,3.5154,3.591,3.6289,3.6492,3.6492,3.7013,3.7637,3.8222,3.881,3.9418,4.002,4.007,4.007,4.007,4.007,4.007,4.0138,4.058,4.1065,4.1525,4.199,4.2458,4.2882,4.2882,4.2882,4.2882,4.2882,4.2882,4.2882,4.2882,4.2882,4.2973,4.3751,4.4023,4.415,4.4965,4.5236,4.5236,4.5291,4.5816,4.645,4.645,4.7011,4.7645,4.7645,4.7681,4.7741,4.7741,4.819,4.866,4.866,4.9079,4.9509,4.9509,4.9612,4.975,4.9898,5.0005,5.0133,5.0278,5.099,5.1544,5.1544,5.2174,5.2671,5.2671,5.2671,5.2671,5.2695,5.282,5.2972,5.3165,5.3304,5.3427,5.3553,5.3611,5.363,5.363,5.3669,5.3689,5.3689,5.3611,5.3572,5.3572,5.3611,5.363,5.363,5.3669,5.4135,3.2685,3.3273,3.3692,3.2894,3.2411,3.194,3.1156,3.0986,3.0986,3.0986,3.0986,3.0986,3.0986,3.0986,3.1123,3.1603,3.1942,3.242,3.3408,3.3754,3.4245,3.527,3.5494,3.5767,3.6289,3.6429,3.6662,3.7074,3.7298,3.7854,3.8794,3.9082,3.947,4.007,4.007,4.007,4.007,4.007,4.007,4.0138,4.058,4.1065,4.1525,4.199,4.2458,4.2918,4.3444,4.3371,4.2882,4.2882,4.319,4.3661,4.3661,4.3987,4.4476,4.4765,4.4874,4.4983,4.5798,4.6069,4.616,4.6667,4.7047,4.7283,4.7283,4.7482,4.7717,4.7717,4.7806,4.7974,4.7974,4.8288,4.866,4.8802,4.9027,4.923,4.9459,4.9551,4.9653,4.9871,5.0369,5.0836,5.1075,5.183,5.2365,5.2365,5.2614,5.2805,5.2805,5.2805,5.2805,5.2805,5.2931,5.3044,5.3106,5.3262,5.3389,5.344,5.3923,5.4213,5.4213,5.4752,5.5062,5.5062,5.5141,5.4691,5.3689,5.4252,5.4524,5.4543,5.5106,5.5534,3.2934,3.3417,3.3679,3.2894,3.2411,3.1927,3.1156,3.0986,3.0986,3.0986,3.0986,3.1061,3.1334,3.1408,3.1529,3.2015,3.2506,3.3199,3.4163,3.4581,3.5059,3.5831,3.6022,3.6148,3.6352,3.6492,3.6723,3.7358,3.7578,3.8141,3.9152,3.9365,3.9696,4.007,4.007,4.007,4.007,4.007,4.0171,4.0353,4.0802,4.1276,4.176,4.2239,4.2739,4.3317,4.386,4.3788,4.3317,4.3588,4.4023,4.4494,4.4494,4.482,4.5327,4.5599,4.5707,4.5816,4.6631,4.6902,4.6993,4.7536,4.7717,4.7717,4.7717,4.7717,4.7717,4.7717,4.7847,4.7974,4.8075,4.8421,4.8802,4.9113,4.9384,4.9622,4.9853,4.9903,4.9977,5.0204,5.0875,5.1528,5.1827,5.252,5.3079,5.3169,5.3398,5.3595,5.3664,5.3664,5.3664,5.3664,5.3743,5.384,5.3865,5.3991,5.4091,5.413,5.4651,5.494,5.494,5.548,5.5789,5.5789,5.5882,5.5443,5.4415,5.504,5.5297,5.5288,5.585,5.6121,0.0,0.0,0.0,3.2973,3.2685,3.2372,3.131,3.1048,3.1048,3.1048,3.1061,3.1259,3.1942,3.2146,3.2146,3.2146,3.3339,3.4312,3.4312,3.5139,3.5688,3.5688,3.6006,3.6196,3.6211,3.6414,3.6785,3.7417,3.801,3.8574,3.9206,3.9799,4.007,4.007,4.007,4.007,4.007,4.007,4.0353,4.0802,4.1293,4.1778,4.2234,4.2727,4.3389,4.4132,4.415,4.4168,4.4222,4.4983,4.5309,4.5345,4.5345,4.5345,4.5472,4.625,4.654,4.6649,4.7446,4.7717,4.7717,4.7717,4.7717,4.7717,4.7717,4.7717,4.7717,4.7717,4.7717,4.7783,4.7995,4.855,4.9098,4.9415,5.0147,5.0729,5.0729,5.0748,5.0811,5.0926,5.1598,5.2224,5.2409,5.312,5.3727,5.3905,5.4599,5.5168,5.5358,5.5403,5.5403,5.5403,5.5403,5.544,5.5573,5.5596,5.5643,5.5769,5.5789,5.5789,5.5789,5.5789,5.5789,5.5789,5.5789,5.5789,5.5789,5.5935,5.5935,5.5789,5.5789,5.5789,3.2894,0.0,0.0,0.0,0.0,0.0,3.1837,3.1809,3.1809,3.1809,3.2232,3.2519,3.2146,3.2989,3.3685,3.3685,3.4027,3.4528,3.5067,3.5509,3.5752,3.5894,3.6085,3.6274,3.6414,3.6892,3.7401,3.801,3.8629,3.9189,3.9799,4.002,4.007,4.007,4.007,4.007,4.007,4.007,4.0171,4.032,4.1696,4.2431,4.2626,4.3994,4.4747,4.5001,4.558,4.5834,4.5816,4.5454,4.5635,4.6178,4.6178,4.6522,4.7065,4.7301,4.7373,4.7409,4.7627,4.7717,4.7717,4.7717,4.7717,4.7717,4.7717,4.7717,4.7717,4.7717,4.7717,4.7699,4.7806,4.855,4.9361,4.9656,5.0501,5.1323,5.1541,5.2043,5.2371,5.1869,5.2537,5.3252,5.347,5.4284,5.4917,5.4962,5.5179,5.5332,5.5403,5.5403,5.5403,5.5403,5.5403,5.5428,5.546,5.546,5.5465,5.5495,5.5519,5.5519,5.5519,5.5519,5.5519,5.5519,5.5596,5.5618,5.5519,5.5749,5.5827,5.5789,5.5789,5.5789,0.0,0.0,0.0,0.0,0.0,0.0,3.1676,3.1882,3.2074,3.2074,3.272,3.3143,3.3059,3.3754,3.438,3.4758,3.4824,3.4971,3.5424,3.5668,3.5894,3.5973,3.6226,3.6461,3.6831,3.7178,3.7738,3.8629,3.8974,3.947,4.007,4.007,4.007,4.007,4.007,4.0223,4.0544,4.0544,4.0798,4.1323,4.2327,4.3039,4.351,4.4527,4.5292,4.5834,4.6305,4.6703,4.6975,4.6504,4.6576,4.7011,4.7011,4.7301,4.7717,4.7717,4.7717,4.7717,4.7717,4.7717,4.7717,4.7717,4.7717,4.7717,4.7717,4.7717,4.7717,4.7717,4.7765,4.7943,4.8288,4.897,4.9687,5.0193,5.1046,5.1825,5.2006,5.2819,5.3312,5.2666,5.3345,5.4046,5.4172,5.4752,5.5206,5.526,5.5286,5.5305,5.5403,5.5403,5.5403,5.5403,5.5403,5.5403,5.5403,5.5403,5.5403,5.5403,5.5403,5.5403,5.5403,5.5403,5.5403,5.5403,5.549,5.549,5.5403,5.5618,5.5686,5.5621,5.5621,5.5621,0.0,0.0,0.0,0.0,3.1861,0.0,3.1453,3.1882,3.2349,3.2349,3.2932,3.363,3.4177,3.438,3.4677,3.5409,3.5504,3.5504,3.5504,3.5797,3.6037,3.6037,3.6289,3.6723,3.7358,3.7476,3.7969,3.9082,3.9259,3.9573,4.0189,4.0206,4.024,4.0324,4.0324,4.0646,4.1322,4.1322,4.1835,4.291,4.3047,4.3637,4.4573,4.4706,4.543,4.6631,4.6631,4.7047,4.7717,4.7717,4.7717,4.7717,4.7717,4.7717,4.7717,4.7717,4.7717,4.7717,4.7717,4.7717,4.7717,4.7717,4.7717,4.7717,4.7717,4.7717,4.7735,4.7826,4.7997,4.8346,4.9168,4.9682,5.0191,5.0968,5.1782,5.2375,5.2432,5.3237,5.3812,5.3418,5.403,5.4629,5.4629,5.4822,5.499,5.5113,5.5121,5.5214,5.5377,5.5403,5.5403,5.5403,5.5403,5.5403,5.5403,5.5403,5.5403,5.5403,5.5403,5.5403,5.5403,5.5403,5.5403,5.5403,5.5403,5.5403,5.5403,5.5519,5.5519,5.5403,5.5403,5.5403,0.0,0.0,0.0,0.0,0.0,0.0,3.3437,3.3754,3.3891,3.3891,3.4491,3.492,3.438,3.4824,3.5344,3.5638,3.5638,3.5638,3.5638,3.5846,3.6037,3.6148,3.6352,3.6723,3.7358,3.7854,3.8407,3.9152,3.9644,4.0222,4.095,4.0984,4.1255,4.1847,4.1863,4.1931,4.2066,4.2083,4.2187,4.2445,4.3494,4.4309,4.4953,4.596,4.6819,4.7482,4.7482,4.7554,4.7717,4.7717,4.7717,4.7717,4.7717,4.7717,4.7717,4.7717,4.7717,4.7717,4.7717,4.7717,4.7717,4.7717,4.7717,4.7717,4.7717,4.7717,4.7844,4.8496,4.8702,4.8926,4.9724,5.0696,5.1499,5.189,5.2789,5.3628,5.3919,5.4174,5.4265,5.4183,5.4541,5.4822,5.4822,5.5095,5.5305,5.5332,5.5332,5.5377,5.5403,5.5403,5.5403,5.5403,5.5403,5.5403,5.5403,5.5403,5.5403,5.5403,5.5403,5.5403,5.5403,5.5403,5.5403,5.5403,5.5403,5.5403,5.5403,5.5409,5.5428,5.5403,5.5403,5.5403,0.0,0.0,0.0,3.2475,0.0,0.0,0.0,3.4041,3.4312,3.4312,3.5023,3.5444,3.5073,3.5444,3.5797,3.5831,3.5752,3.5864,3.6337,3.6258,3.6148,3.6196,3.6646,3.7178,3.7796,3.8715,3.9704,4.0645,4.1013,4.1339,4.1728,4.1745,4.1914,4.2286,4.2286,4.2472,4.2861,4.2861,4.3047,4.3436,4.4119,4.4768,4.5554,4.623,4.6954,4.7717,4.7717,4.7717,4.7717,4.7717,4.7717,4.7717,4.7717,4.7717,4.7717,4.7717,4.7717,4.7717,4.7717,4.7717,4.7717,4.7717,4.7717,4.7717,4.7717,4.7989,4.8387,4.8804,4.9202,4.9673,5.0488,5.1111,5.1668,5.2206,5.2779,5.3281,5.3621,5.3795,5.3944,5.4108,5.4486,5.4742,5.4742,5.499,5.5151,5.5151,5.5151,5.5178,5.5241,5.5241,5.5286,5.5403,5.5403,5.5403,5.5403,5.5403,5.5403,5.5403,5.5403,5.5403,5.5403,5.5403,5.5403,5.5403,5.5403,5.5403,5.5403,5.5403,5.5403,5.5403,5.5403,5.5403,0.0,0.0,0.0,0.0,0.0,3.3422,0.0,0.0,0.0,3.4528,3.5154,3.5703,3.5688,3.5831,3.5958,3.6037,3.6113,3.6474,3.7259,3.7141,3.6956,3.6817,3.7411,3.8051,3.8796,3.9952,4.1113,4.2236,4.2286,4.2354,4.2489,4.2506,4.2574,4.2726,4.2726,4.3031,4.3639,4.3639,4.3961,4.4587,4.4665,4.5196,4.6098,4.6213,4.6799,4.7717,4.7717,4.7717,4.7717,4.7717,4.7717,4.7717,4.7717,4.7717,4.7717,4.7717,4.7717,4.7717,4.7717,4.7717,4.7717,4.7717,4.7717,4.7735,4.7898,4.8387,4.8967,4.9275,4.9836,5.0506,5.1303,5.152,5.1729,5.2427,5.2572,5.269,5.3023,5.324,5.3487,5.3738,5.4123,5.4416,5.4578,5.4791,5.4901,5.4901,5.4901,5.496,5.5066,5.5094,5.5168,5.5377,5.5403,5.5403,5.5403,5.5403,5.5403,5.5403,5.5403,5.5403,5.5403,5.5403,5.5403,5.5403,5.5556,5.5632,5.5632,5.5804,5.5804,5.5632,5.5632,5.5728,0.0,0.0,0.0,0.0,3.4095,0.0,0.0,0.0,3.5359,3.5359,0.0,3.5554,3.5688,0.0,0.0,3.6148,3.7157,3.8026,3.8286,3.9294,3.9753,3.9124,3.9134,3.9666,4.0948,4.1653,4.2148,4.2286,4.2286,4.2591,4.325,4.3301,4.3606,4.4299,4.4316,4.4367,4.4451,4.4451,4.4485,4.4643,4.5035,4.5511,4.6116,4.6613,4.7151,4.7717,4.7717,4.7717,4.7717,4.7717,4.7717,4.7717,4.7717,4.7717,4.7717,4.7717,4.7717,4.7717,4.7717,4.7717,4.7717,4.7717,4.7717,4.7844,4.8568,4.884,4.9202,5.0633,5.1086,5.1339,5.2154,5.2353,5.2463,5.285,5.2955,5.3023,5.3304,5.3367,5.3407,5.3447,5.3526,5.3777,5.4482,5.4791,5.4901,5.4901,5.4901,5.496,5.5066,5.5094,5.5168,5.5377,5.5403,5.5403,5.5403,5.5403,5.5403,5.5403,5.5403,5.5403,5.5403,5.5403,5.5403,5.5403,5.6091,5.6454,5.6473,5.7237,5.7218,5.6454,5.6454,5.6874,0.0,0.0,0.0,0.0,0.0,0.0,3.5424,0.0,3.5504,0.0,0.0,0.0,0.0,0.0,0.0,0.0,3.8013,3.9013,3.9562,4.0339,4.0713,4.0112,4.0328,4.108,4.2406,4.2766,4.3132,4.3589,4.3606,4.3758,4.4079,4.4096,4.4248,4.457,4.4587,4.4587,4.4587,4.4587,4.4587,4.4643,4.5089,4.5563,4.6098,4.666,4.7196,4.7717,4.7717,4.7717,4.7717,4.7717,4.7717,4.7717,4.7717,4.7717,4.7717,4.7717,4.7717,4.7717,4.7717,4.7717,4.7717,4.7717,4.8025,4.8478,4.8822,4.9564,5.0434,5.1104,5.1629,5.2063,5.2408,5.2498,5.2544,5.2663,5.2708,5.2779,5.3091,5.3175,5.3281,5.3623,5.37,5.3851,5.4386,5.4386,5.4368,5.4468,5.4648,5.4833,5.5066,5.5094,5.5168,5.5377,5.5403,5.5403,5.5403,5.5403,5.5403,5.5403,5.5403,5.5613,5.6071,5.6091,5.632,5.6836,5.7179,5.7351,5.7351,5.7714,5.7944,5.8039,5.7562,5.7542,3.2232,0.0,0.0,0.0,0.0,0.0,0.0,0.0,0.0,0.0,0.0,0.0,0.0,0.0,0.0,0.0,0.0,4.0328,4.0886,4.1651,4.1946,4.1371,4.1896,4.2657,4.3618,4.3741,4.3978,4.4536,4.4587,4.4587,4.4587,4.4587,4.4587,4.4587,4.4587,4.4587,4.4587,4.4587,4.4587,4.4643,4.5089,4.5563,4.6098,4.666,4.7196,4.7717,4.7717,4.7717,4.7717,4.7717,4.7717,4.7717,4.7717,4.7717,4.7717,4.7717,4.7717,4.7717,4.7717,4.7717,4.7753,4.7971,4.8442,4.9003,4.9438,5.0361,5.1339,5.1556,5.2045,5.2498,5.2498,5.2498,5.2498,5.2498,5.2498,5.259,5.2824,5.2868,5.298,5.3444,5.3524,5.3584,5.3851,5.3963,5.4089,5.4281,5.45,5.4723,5.5066,5.5094,5.5168,5.5377,5.5403,5.5403,5.5403,5.5403,5.5498,5.5708,5.5957,5.6358,5.6931,5.695,5.7237,5.7886,5.8116,5.823,5.823,5.8459,5.888,5.9434,5.8612,5.8364,0.0,0.0,0.0,3.5279,0.0,0.0,0.0,0.0,3.6499,0.0,0.0,0.0,0.0,0.0,0.0,0.0,0.0,0.0,0.0,4.3602,4.4231,4.3415,4.399,4.4519,4.4536,4.4536,4.4553,4.4587,4.4587,4.4587,4.4587,4.4587,4.4587,4.4587,4.4587,4.4587,4.4587,4.4587,4.4587,4.4643,4.5089,4.5563,4.6098,4.666,4.7196,4.7717,4.7717,4.7717,4.7717,4.7717,4.7717,4.7717,4.7717,4.7717,4.7717,4.7717,4.7717,4.7717,4.7717,4.7717,4.7844,4.8623,4.8894,4.9202,5.0741,5.1249,5.1448,5.2226,5.248,5.2498,5.2498,5.2498,5.2498,5.2498,5.2498,5.2498,5.2498,5.2498,5.2544,5.2526,5.2526,5.2544,5.2572,5.3563,5.4405,5.4565,5.4597,5.4723,5.5066,5.5094,5.5168,5.5377,5.5403,5.5403,5.5403,5.5403,5.5728,5.6511,5.7351,5.7829,5.7867,5.7867,5.7867,5.7905,5.867,5.9071,5.9071,5.9911,6.0332,6.0332,5.9472,5.951,0.0,0.0,3.4631,3.5814,0.0,0.0,0.0,0.0,0.0,0.0,0.0,0.0,0.0,0.0,0.0,0.0,0.0,0.0,0.0,4.4011,4.4485,4.4215,4.4418,4.4587,4.4587,4.4587,4.4587,4.4587,4.4587,4.4587,4.4587,4.4587,4.4587,4.4587,4.4587,4.4587,4.4587,4.4587,4.4587,4.4626,4.5425,4.59,4.6098,4.6999,4.7511,4.7717,4.7717,4.7717,4.7717,4.7717,4.7717,4.7717,4.7717,4.7717,4.7717,4.7717,4.7717,4.779,4.8315,4.8496,4.8641,4.9438,5.0053,5.0578,5.1122,5.1665,5.2136,5.2426,5.2498,5.2498,5.2498,5.2498,5.2498,5.2498,5.2498,5.2498,5.2498,5.2498,5.259,5.2779,5.2824,5.2912,5.3072,5.3447,5.372,5.3664,5.4069,5.4416,5.4623,5.4914,5.514,5.5195,5.5809,5.6186,5.6186,5.6721,5.716,5.7447,5.7734,5.8135,5.867,5.8689,5.8975,5.9529,5.9816,5.995,5.995,6.0255,6.0389,6.0389,6.0102,6.0122,3.3422,3.4124,0.0,3.6164,3.6492,0.0,3.7504,0.0,0.0,0.0,0.0,0.0,0.0,0.0,0.0,0.0,0.0,0.0,0.0,4.431,4.4587,4.4587,4.4587,4.4587,4.4587,4.4587,4.4587,4.4587,4.4587,4.4587,4.4587,4.4587,4.4587,4.4587,4.4587,4.4587,4.4587,4.4587,4.4587,4.4626,4.5249,4.5767,4.6098,4.6817,4.7363,4.7717,4.7717,4.7717,4.7717,4.7717,4.7717,4.7717,4.7717,4.7717,4.7717,4.7717,4.7898,4.8206,4.8731,4.9094,4.9456,5.0253,5.0868,5.1339,5.1629,5.2082,5.2498,5.2498,5.2498,5.2498,5.2498,5.2498,5.2498,5.2498,5.2498,5.2498,5.2498,5.2498,5.2572,5.2798,5.2824,5.2868,5.3072,5.3072,5.3203,5.3528,5.3925,5.4375,5.4924,5.528,5.5589,5.595,5.6567,5.6973,5.7065,5.7848,5.8326,5.8326,5.8612,5.9014,5.9548,5.9568,5.9835,6.0389,6.0389,6.0389,6.0389,6.0389,6.0389,6.0389,6.0389,6.0389]},{"header":{"parameterUnit":"m.s-1","parameterCategory":1,"la1":30.6,"la2":29.2853,"lo1":-89.7004,"lo2":-87.6739,"dy":0.0162,"dx":0.0183,"nx":112,"ny":82,"refTime":"2024-03-18T18:00:00:Z","depth":0,"parameterNumber":3,"parameterNumberName":"V-component_of_WINDS"},"data":[0.0,0.0,0.0,0.0,0.0,0.0,0.0,0.0,0.0,0.0,0.0,0.0,0.0,0.0,0.0,0.0,0.0,0.0,0.0,0.0,0.0,0.0,0.0,0.0,0.0,0.0,0.0,0.0,0.0,0.0,0.0,0.0,0.0,0.0,0.0,0.0,0.0,0.0,0.0,0.0,0.0,0.0,0.0,0.0,0.0,0.0,0.0,0.0,0.0,0.0,0.0,0.0,0.0,0.0,0.0,0.0,0.0,0.0,0.0,0.0,0.0,0.0,0.0,0.0,0.0,0.0,0.0,0.0,0.0,0.0,0.0,0.0,0.0,0.0,0.0,0.0,0.0,0.0,0.0,0.0,0.0,0.0,0.0,0.0,0.0,0.0,0.0,0.0,0.0,0.0,0.2889,0.1892,0.2674,0.3344,0.3344,0.4242,0.436,0.3357,0.0,0.0,0.0,0.0,0.0,0.0,0.0,0.0,0.0,0.0,0.0,0.0,0.0,0.0,0.0,0.0,0.0,0.0,0.0,0.0,0.0,0.0,0.0,0.0,0.0,0.0,0.0,0.0,0.0,0.0,0.0,0.0,0.0,0.0,0.0,0.0,0.0,0.0,0.0,0.0,0.0,0.0,0.0,0.0,0.0,0.0,0.0,0.0,0.0,0.0,0.0,0.0,0.0,0.0,0.0,0.0,0.0,0.0,0.0,0.0,0.0,0.0,0.0,0.0,0.0,0.0,0.0,0.0,0.0,0.0,0.0,0.0,0.0,0.0,0.0,0.0,0.0,0.0,0.0,0.0,0.0,0.0,0.0,0.0,0.0,0.0,0.0,0.0,0.0,0.0,0.0,0.0,0.0,0.0,0.0,0.0,0.0,0.0,0.0,0.0,0.0,0.0,0.0,0.0,0.1932,0.1718,0.1958,0.2085,0.2085,0.2224,0.2242,0.213,0.0,0.0,0.0,0.0,0.0,0.0,0.0,0.0,0.0,0.0,0.0,0.0,0.0,0.0,0.0,0.0,0.0,0.0,0.0,0.0,0.0,0.0,0.0,0.0,0.0,0.0,0.0,0.0,0.0,0.0,0.0,0.0,0.0,0.0,0.0,0.0,0.0,0.0,0.0,0.0,0.0,0.0,0.0,0.0,0.0,0.0,0.0,0.0,0.0,0.0,0.0,0.0,0.0,0.0,0.0,0.0,0.0,0.0,0.0,0.0,0.0,0.0,0.0,0.0,0.0,0.0,0.0,0.0,0.0,0.0,0.0,0.0,0.0,0.0,0.0,0.0,0.0,0.0,0.0,0.0,0.0,0.0,0.0,0.0,0.0,0.0,0.0,0.0,0.0,0.0,0.0,0.0,0.0,0.0,0.0,0.0,0.0,0.0,0.0,0.0,0.0,0.0,0.0,0.1704,0.1704,0.1704,0.1717,0.1725,0.1725,0.1752,0.177,0.177,0.2342,0.0,0.0,0.0,0.0,0.0,0.0,0.0,0.0,0.0,0.0,0.0,0.0,0.0,0.0,0.0,0.0,0.0,0.0,0.0,0.0,0.0,0.0,0.0,0.0,0.0,0.0,0.0,0.0,0.0,0.0,0.0,0.0,0.0,0.0,0.0,0.0,0.0,0.0,0.0,0.0,0.0,0.0,0.0,0.0,0.0,0.0,0.0,0.0,0.0,0.0,0.0,0.0,0.0,0.0,0.0,0.0,0.0,0.0,0.0,0.0,0.0,0.0,0.0,0.0,0.0,0.0,0.0,0.0,0.0,0.0,0.0,0.0,0.0,0.0,0.0,0.0,0.0,0.0,0.0,0.0,0.0,0.0,0.0,0.0,0.0,0.0,0.0,0.0,0.0,0.0,0.0,0.0,0.0,0.0,0.0,0.0,0.0,0.0,0.0,0.0,0.0,0.0,0.1684,0.1684,0.1684,0.169,0.1695,0.1695,0.1722,0.1739,0.1739,0.1767,0.0,0.0,0.0,0.0,0.0,0.0,0.0,0.0,0.0,0.0,0.0,0.0,0.0,0.0,0.0,0.0,0.0,0.0,0.0,0.0,0.0,0.0,0.0,0.0,0.0,0.0,0.0,0.0,0.0,0.0,0.0,0.0,0.0,0.0,0.0,0.0,0.0,0.0,0.0,0.0,0.0,0.0,0.0,0.0,0.0,0.0,0.0,0.0,0.0,0.0,0.0,0.0,0.0,0.0,0.0,0.0,0.0,0.0,0.0,0.0,0.0,0.0,0.0,0.0,0.0,0.0,0.0,0.0,0.0,0.0,0.0,0.0,0.0,0.0,0.0,0.0,0.0,0.0,0.0,0.0,0.0,0.0,0.0,0.0,0.0,0.0,0.0,0.0,0.0,0.0,0.0,0.0,0.0,0.0,0.0,0.0,0.0,0.0,0.0,0.0,0.0,0.0,0.1623,0.1623,0.1623,0.1648,0.1665,0.1665,0.1691,0.1707,0.1707,0.1736,0.0,0.0,0.0,0.0,0.0,0.0,0.0,0.0,0.0,0.0,0.0,0.0,0.0,0.0,0.0,0.0,0.0,0.0,0.0,0.0,0.0,0.0,0.0,0.0,0.0,0.0,0.0,0.0,0.0,0.0,0.0,0.0,0.0,0.0,0.0,0.0,0.0,0.0,0.0,0.0,0.0,0.0,0.0,0.0,0.0,0.0,0.0,0.0,0.0,0.0,0.0,0.0,0.0,0.0,0.0,0.0,0.0,0.0,0.0,0.0,0.0,0.0,0.0,0.0,0.0,0.0,0.0,0.0,0.0,0.0,0.0,0.0,0.0,0.0,0.0,0.0,0.0,0.0,0.0,0.0,0.0,0.0,0.0,0.0,0.0,0.0,0.0,0.0,0.0,0.0,0.0,0.0,0.0,0.0,0.0,0.0,0.0,0.0,0.0,0.0,0.0,0.0,0.1617,0.1617,0.1617,0.1627,0.1634,0.1634,0.1661,0.1678,0.1678,0.0,0.0,0.0,0.0,0.0,0.0,0.0,0.0,0.0,0.0,0.0,0.0,0.0,0.0,0.0,0.0,0.0,0.0,0.0,0.0,0.0,0.0,0.0,0.0,0.0,0.0,0.0,0.0,0.0,0.0,0.0,0.0,0.0,0.0,0.0,0.0,0.0,0.0,0.0,0.0,0.0,0.0,0.0,0.0,0.0,0.0,0.0,0.0,0.0,0.0,0.0,0.0,0.0,0.0,0.0,0.0,0.0,0.0,0.0,0.0,0.0,0.0,0.0,0.0,0.0,0.0,0.0,0.0,0.0,0.0,0.0,0.0,0.0,0.0,0.0,0.0,0.0,0.0,0.0,0.0,0.0,0.0,0.0,0.0,0.0,0.0,0.0,0.0,0.0,0.0,0.0,0.0,0.0,0.0,0.0,0.0,0.0,0.0,0.0,0.0,0.0,0.0,0.1617,0.1617,0.1617,0.0,0.1617,0.1617,0.1617,0.1636,0.1648,0.1648,0.0,0.0,0.0,0.0,0.0,0.0,0.0,0.0,0.0,0.0,0.0,0.0,0.0,0.0,0.0,0.0,0.0,0.0,0.0,0.0,0.0,0.0,0.0,0.0,0.0,0.0,0.0,0.0,0.0,0.0,0.0,0.0,0.0,0.0,0.0,0.0,0.0,0.0,0.0,0.0,0.0,0.0,0.0,0.0,0.0,0.0,0.0,0.0,0.0,0.0,0.0,0.0,0.0,0.0,0.0,0.0,0.0,0.0,0.0,0.0,0.0,0.0,0.0,0.0,0.0,0.0,0.0,0.0,0.0,0.0,0.0,0.0,0.0,0.0,0.0,0.0,0.0,0.0,0.0,0.0,0.0,0.0,0.0,0.0,0.0,0.0,0.0,0.0,0.0,0.0,0.0,0.0,0.0,0.0,0.0,0.0,0.0,0.0,0.0,0.0,0.0,0.0,0.1617,0.1617,0.1617,0.1617,0.1617,0.1617,0.1617,0.1617,0.1617,0.0,0.0,0.0,0.0,0.0,0.0,0.0,0.0,0.0,0.0,0.0,0.0,0.0,0.0,0.0,0.0,0.0,0.0,0.0,0.0,0.0,0.0,0.0,0.0,0.0,0.0,0.0,0.0,0.0,0.0,0.0,0.0,0.0,0.0,0.0,0.0,0.0,0.0,0.0,0.0,0.0,0.0,0.0,0.0,0.0,0.0,0.0,0.0,0.0,0.0,0.0,0.0,0.0,0.0,0.0,0.0,0.0,0.0,0.0,0.0,0.0,0.0,0.0,0.0,0.0,0.0,0.0,0.0,0.0,0.0,0.0,0.0,0.0,0.0,0.0,0.0,0.0,0.0,0.0,0.0,0.0,0.0,0.0,0.0,0.0,0.0,0.0,0.0,0.0,0.0,0.0,0.0,0.0,0.0,0.0,0.0,0.0,0.0,0.0,0.0,0.0,0.0,0.0,0.1617,0.1617,0.1617,0.1617,0.1617,0.1617,0.1617,0.1617,0.1617,0.1617,0.0,0.0,0.0,0.0,0.0,0.0,0.0,0.0,0.0,0.0,0.0,0.0,0.0,0.0,0.0,0.0,0.0,0.0,0.0,0.0,0.0,0.0,0.0,0.0,0.0,0.0,0.0,0.0,0.0,0.0,0.0,0.0,0.0,0.0,0.0,0.0,0.0,0.0,0.0,0.0,0.0,0.0,0.0,0.0,0.0,0.0,0.0,0.0,0.0,0.0,0.0,0.0,0.0,0.0,0.0,0.0,0.0,0.0,0.0,0.0,0.0,0.0,0.0,0.0,0.0,0.0,0.0,0.0,0.0,0.0,0.0,0.0,0.0,0.0,0.0,0.0,0.0,0.0,0.0,0.0,0.0,0.0,0.0,0.0,0.0,0.0,0.0,0.0,0.0,0.0,0.0,0.0,0.0,0.0,0.0,0.0,0.0,0.0,0.0,0.0,0.0,0.0,0.1617,0.1617,0.1617,0.1617,0.1617,0.1617,0.1617,0.1617,0.1617,0.1617,0.0,0.0,0.0,0.0,0.0,0.0,0.0,0.0,0.0,0.0,0.0,0.0,0.0,0.0,0.0,0.0,0.0,0.0,0.0,0.0,0.0,0.0,0.0,0.0,0.0,0.0,0.0,0.0,0.0,0.0,0.0,0.0,0.0,0.0,0.0,0.0,0.0,0.0,0.0,0.0,0.0,0.0,0.0,0.0,0.0,0.0,0.0,0.0,0.0,0.0,0.0,0.0,0.0,0.0,0.0,0.0,0.0,0.0,0.0,0.0,0.0,0.0,0.0,0.0,0.0,0.0,0.0,0.0,0.0,0.0,0.0,0.0,0.0,0.0,0.0,0.0,0.0,0.0,0.0,0.0,0.0,0.0,0.0,0.0,0.0,0.0,0.0,0.0,0.0,0.0,0.0,0.0,0.0,0.0,0.0,0.0,0.0,0.0,0.0,0.0,0.0,0.0,0.1617,0.1617,0.1617,0.1617,0.1617,0.1617,0.1617,0.1617,0.1617,0.1617,0.0,0.0,0.0,0.0,0.0,0.0,0.0,0.0,0.0,0.0,0.0,0.0,0.0,0.0,0.0,0.0,0.0,0.0,0.0,0.0,0.0,0.0,0.0,0.0,0.0,0.0,0.0,0.0,0.0,0.0,0.0,0.0,0.0,0.0,0.0,0.0,0.0,0.0,0.0,0.0,0.0,0.0,0.0,0.0,0.0,0.0,0.0,0.0,0.0,0.0,0.0,0.0,0.0,0.0,0.0,0.0,0.0,0.0,0.0,0.0,1.4956,0.0,0.0,0.0,0.0,0.0,0.0,0.0,0.0,0.0,0.0,0.0,0.0,0.0,0.0,0.0,0.0,0.0,0.0,0.0,0.0,0.0,0.0,0.0,0.0,0.0,0.0,0.0,0.0,0.0,0.0,0.0,0.0,0.0,0.0,0.0,0.0,0.0,0.0,0.0,0.0,0.0,0.1617,0.1617,0.1617,0.1617,0.1617,0.1617,0.1617,0.1617,0.1617,0.1617,0.1617,0.0,0.0,0.0,0.0,0.0,0.0,0.0,0.0,0.0,0.0,0.0,0.0,0.0,0.0,0.0,0.0,0.0,0.0,0.0,0.0,0.0,0.0,0.0,0.0,0.0,0.0,0.0,0.0,0.0,0.0,0.0,0.0,0.0,0.0,0.0,0.0,0.0,0.0,0.0,0.0,0.0,0.0,0.0,0.0,0.0,0.0,0.0,0.0,0.0,0.0,0.0,0.0,0.0,0.0,0.0,0.0,0.0,0.0,0.0,0.0,1.4094,0.0,0.0,0.0,0.0,0.0,0.0,0.0,0.0,0.0,0.0,0.0,0.0,0.0,0.0,0.0,0.0,0.0,0.0,0.0,0.0,0.0,0.0,0.0,0.0,0.0,0.0,0.0,0.0,0.0,0.0,0.0,0.0,0.0,0.0,0.0,0.0,0.0,0.0,0.0,0.0,0.1617,0.1818,0.1918,0.1617,0.1617,0.1617,0.1617,0.1617,0.1617,0.1617,0.1617,0.0,0.0,0.0,0.0,0.0,0.0,0.0,0.0,0.0,0.0,0.0,0.0,0.0,0.0,0.0,0.0,0.0,0.0,0.0,0.0,0.0,0.0,0.0,0.0,0.0,0.0,0.0,0.0,0.0,0.0,0.0,0.0,0.0,0.0,0.0,0.0,0.0,0.0,0.0,0.0,0.0,0.0,0.0,0.0,0.0,0.0,0.0,0.0,0.0,0.0,0.0,0.0,0.0,1.5466,1.6052,1.6679,1.6588,1.6267,1.5752,1.4576,1.3957,1.3811,1.2748,0.0,0.0,0.0,0.0,0.0,0.0,0.0,0.0,0.0,0.0,0.0,0.0,0.0,0.0,0.0,0.0,0.0,0.0,0.0,0.0,0.0,0.0,0.0,0.0,0.4834,0.4834,0.4834,0.0,0.0,0.0,0.0,0.0,0.0,0.0,0.0,0.0,0.0,0.0,0.1818,0.2119,0.2221,0.1617,0.1617,0.1617,0.1617,0.1617,0.1617,0.1617,0.1516,0.101,0.0,0.0,0.0,0.0,0.0,0.0,0.0,0.0,0.0,0.0,0.0,0.0,0.0,0.0,0.0,0.0,0.0,0.0,0.0,0.0,0.0,0.0,0.0,0.0,0.0,0.0,0.0,0.0,0.0,0.0,0.0,0.0,2.0592,1.9995,0.0,0.0,0.0,0.0,0.0,0.0,0.0,0.0,0.0,0.0,0.0,0.0,0.0,1.6536,1.5102,1.5191,1.484,1.4038,1.3489,1.4147,1.5817,1.5183,1.4753,1.4436,1.4488,0.0,1.3902,1.3715,0.0,0.0,0.0,0.0,0.0,0.0,0.0,0.0,0.0,0.0,0.0,0.0,0.0,0.0,0.0,0.0,0.0,0.0,0.0,0.0,0.0,0.0,0.4834,0.4834,0.4834,0.4834,0.0,0.4834,0.4834,0.4834,0.4834,0.0,0.0,0.0,0.0,0.0,0.0,0.0,0.2422,0.2321,0.2221,0.1617,0.1617,0.1617,0.1617,0.1617,0.1617,0.1617,0.0909,0.0202,-0.0605,-0.1311,0.0,0.0,0.0,0.0,0.0,0.0,0.0,0.0,0.0,0.0,0.0,0.0,0.0,0.0,0.0,0.0,0.0,0.0,0.0,0.0,0.0,0.0,0.0,0.0,0.0,0.0,0.0,0.0,0.0,2.1724,2.1329,2.131,2.0578,2.009,0.0,0.0,0.0,0.0,0.0,0.0,0.0,0.0,0.0,1.5105,1.5212,1.5133,1.4781,1.5126,1.5383,1.5469,1.5119,1.5217,1.5835,1.5304,1.4592,1.3767,1.3793,1.3454,1.2935,1.3126,1.2948,1.237,0.0,0.0,0.0,0.0,0.5932,0.4331,0.4029,0.3929,0.3929,0.3929,0.0,0.0,0.0,0.0,0.0,0.0,0.0,0.0,0.0,0.0,0.413,0.4836,0.5037,0.4937,0.4834,0.4937,0.4937,0.0,0.4834,0.4834,0.4834,0.0,0.0,0.0,0.0,0.3729,0.2522,0.2623,0.2524,0.1718,0.1617,0.1617,0.1617,0.1617,0.1415,0.0909,0.0606,0.0,-0.0806,-0.1613,-0.2118,0.0,0.0,0.0,0.0,0.0,0.0,0.0,0.0,0.0,0.0,0.0,0.0,0.0,0.0,0.0,0.0,0.0,0.0,0.0,0.0,0.0,0.0,0.0,0.0,0.0,0.0,0.0,0.0,2.2708,2.2181,2.233,2.1058,2.0347,0.0,0.0,0.0,0.0,0.0,0.0,1.59,1.5336,1.4782,1.4105,1.3529,1.3613,1.4531,1.4441,1.4525,1.4942,1.4942,1.4811,1.4527,1.4349,1.3598,1.2563,1.2445,1.2026,1.1339,1.2215,1.2518,1.218,1.1002,0.9653,0.8212,0.6722,0.4926,0.3123,0.2922,0.2821,0.2821,0.2821,0.3324,0.3828,0.3225,0.0,0.0,0.0,0.0,0.3731,0.4435,0.4236,0.4034,0.4943,0.5144,0.5244,0.5041,0.502,0.5109,0.0,0.4834,0.4834,0.4834,0.0,0.0,0.0,0.0,0.4332,0.3025,0.3027,0.2827,0.1919,0.1718,0.1617,0.1617,0.1617,0.1212,0.0404,0.0202,-0.0303,-0.1109,-0.1916,-0.232,-0.232,0.0,0.0,0.0,0.0,0.0,0.0,0.0,0.0,0.0,0.0,0.0,0.0,0.0,0.0,0.0,0.0,0.0,0.0,0.0,0.0,0.0,0.0,0.0,0.0,0.0,0.0,0.0,0.0,0.0,2.2947,2.1461,0.0,0.0,0.0,0.0,1.6609,1.7269,1.7041,1.5499,1.4601,1.5486,1.8585,1.4788,1.3355,1.4849,1.2608,1.1107,1.0265,1.0265,1.0443,1.0885,1.0885,1.0544,1.0052,1.0336,0.9889,0.9194,1.1329,1.1651,1.0791,1.0027,0.8672,0.7021,0.522,0.3922,0.3022,0.2016,0.1713,0.1713,0.1713,0.1714,0.1916,0.2521,0.2724,0.0,0.0,0.3736,0.4448,0.3128,0.4142,0.5365,0.4956,0.5155,0.5354,0.5354,0.5271,0.5029,0.0,0.4834,0.4834,0.4834,0.0,0.4834,0.4734,0.4734,0.4634,0.4033,0.3531,0.3027,0.2422,0.1919,0.1617,0.1617,0.1617,0.1212,0.0404,-0.0303,-0.1109,-0.1916,-0.2725,-0.313,-0.313,-0.313,0.0,0.0,0.0,0.0,0.0,0.0,0.0,0.0,0.0,0.0,0.0,0.0,0.0,0.0,0.0,0.0,0.0,0.0,0.0,0.0,0.0,0.0,0.0,0.0,0.0,0.0,0.0,0.0,2.5448,2.4151,0.0,2.2499,2.2633,2.1829,1.9556,2.0495,1.9425,1.5673,1.5165,1.4421,1.3199,1.169,0.8932,0.4862,0.3958,0.1009,-0.3912,-0.3214,-0.3144,-0.3502,-0.2977,-0.1962,-0.0718,-0.0081,0.1424,0.3606,0.6068,0.8382,1.0332,0.7925,0.6576,0.5713,0.3457,0.1993,0.1108,0.0705,0.0605,0.0706,0.1411,0.0705,-0.0402,0.0101,-0.0302,-0.0703,-0.0,0.0604,0.1309,0.262,0.2297,0.1881,0.3367,0.3632,0.3599,0.399,0.3964,0.3852,0.3781,0.4219,0.4753,0.4753,0.48,0.4834,0.4834,0.4834,0.4634,0.4033,0.3531,0.3027,0.2422,0.1919,0.1617,0.1617,0.1111,0.0505,-0.0303,-0.1109,-0.1917,-0.2725,-0.3029,-0.323,-0.323,-0.323,-0.3531,0.0,0.0,0.0,0.0,0.0,0.0,0.0,0.0,0.0,0.0,0.0,0.0,0.0,0.0,0.0,0.0,0.0,0.0,0.0,0.0,0.0,0.0,0.0,0.0,0.0,2.8265,2.7577,2.7774,2.6642,2.5623,2.5081,2.5425,2.4711,2.2368,2.1997,2.0171,1.6461,1.219,1.029,1.1198,0.7543,0.4894,0.3612,0.2517,-0.0265,-0.4689,-0.4186,-0.4277,-0.482,-0.4267,-0.4779,-0.5949,-0.4589,-0.4135,-0.4091,-0.0688,0.299,0.628,0.4728,0.3784,0.3182,0.1355,0.0195,-0.0494,-0.0896,-0.1102,-0.1007,-0.0604,-0.1408,-0.2512,-0.2616,-0.3017,-0.3311,-0.2597,-0.2193,-0.1492,0.0692,-0.0098,-0.1066,0.0678,0.1438,0.1807,0.1903,0.2271,0.2636,0.2636,0.3445,0.4272,0.4564,0.4708,0.4747,0.4747,0.4773,0.4593,0.4296,0.362,0.3029,0.2724,0.202,0.1617,0.1617,0.0909,0.0101,-0.0706,-0.1513,-0.2321,-0.313,-0.3331,-0.3531,-0.3732,-0.3732,-0.4133,-0.4834,0.0,0.0,0.0,0.0,0.0,0.0,0.0,0.0,0.0,0.0,0.0,0.0,0.0,0.0,0.0,0.0,0.0,0.0,0.0,0.0,0.0,0.0,0.0,3.0924,3.0544,3.0279,2.9711,2.8806,2.8202,2.8198,2.7876,2.6801,2.4784,2.1568,1.9199,1.7966,0.5979,0.3607,1.3486,0.3065,0.1901,1.1582,0.8676,0.7479,0.8085,0.7476,0.7181,0.7181,0.7223,0.2756,-0.4872,-0.2555,-0.6179,-1.3393,-0.8482,-0.4703,-0.1688,0.0446,0.0555,-0.0661,-0.1137,-0.1423,-0.1523,-0.2817,-0.3268,-0.3318,-0.4121,-0.4422,-0.4524,-0.514,-0.514,-0.4816,-0.463,-0.4212,-0.3605,-0.2674,-0.2755,-0.2943,-0.2943,-0.1327,0.0,-0.0665,0.0187,0.1199,0.1476,0.2341,0.3323,0.4375,0.4569,0.4573,0.4577,0.4653,0.0,0.4712,0.3791,0.323,0.323,0.2222,0.1516,0.1516,0.0808,-0.0,-0.0806,-0.1613,-0.2422,-0.313,-0.3732,-0.4234,-0.4734,-0.4834,-0.4834,-0.4834,0.0,0.0,0.0,0.0,0.0,0.0,0.0,0.0,0.0,0.0,0.0,0.0,0.0,0.0,0.0,0.0,0.0,0.0,0.0,0.0,0.0,3.6661,3.6124,3.42,3.3273,3.2806,3.2755,3.2526,3.1803,3.0437,3.2029,3.2019,2.9356,2.6196,2.3622,2.1913,1.1836,0.785,1.161,0.6212,0.2149,-0.0105,-0.0356,-0.3595,-0.9731,-0.9031,-0.8716,-0.8663,-0.78,-0.7395,-0.7624,-1.2248,-1.3614,-1.2815,-1.5855,-1.5652,-1.2698,-0.4746,-0.2721,-0.4173,-0.3345,-0.3098,-0.333,-0.3637,-0.3754,-0.3771,-0.3866,-0.4442,-0.5019,-0.5028,-0.5509,-0.5885,-0.5088,-0.5086,-0.5081,-0.372,-0.4146,-0.4946,-0.4957,-0.4434,-0.3375,-0.1185,-0.127,-0.1354,0.0181,0.0636,0.1373,0.316,0.4056,0.4594,0.4661,0.4694,0.0,0.4792,0.382,0.323,0.323,0.1716,0.0707,0.0707,-0.0505,-0.1412,-0.1613,-0.2422,-0.2927,-0.323,-0.3331,-0.3531,-0.3632,-0.5129,-0.5927,0.0,0.0,0.0,0.0,0.0,0.0,0.0,0.0,0.0,0.0,0.0,0.0,0.0,0.0,0.0,0.0,0.0,0.0,0.0,0.0,0.0,0.0,3.8285,3.8137,3.7405,3.6199,3.5328,3.5246,3.5404,3.5044,3.3664,3.517,3.5261,3.286,2.8504,2.528,2.3692,1.2015,0.7194,1.1148,0.5633,0.216,0.1244,0.1885,-0.0422,-0.5571,-0.4744,-0.4556,-0.4833,-0.4124,-0.5046,-0.7539,-1.3777,-1.7016,-1.8173,-2.2346,-2.3194,0.0,0.0,0.0,0.0,0.0,-0.4518,-0.4319,-0.4414,-0.4532,-0.4563,-0.4847,-0.5317,-0.5792,-0.5514,-0.5797,-0.6164,-0.5551,-0.5637,-0.5725,-0.4752,-0.5071,-0.5673,-0.5686,-0.5729,-0.5039,-0.2691,-0.2241,-0.1972,-0.0807,-0.0269,0.0,0.2093,0.3224,0.401,0.4434,0.4569,0.4626,0.4714,0.377,0.3203,0.3228,0.1817,0.0808,0.0404,-0.0807,0.0,0.0,0.0,-0.3331,-0.3531,-0.423,0.0,0.0,0.0,-0.7024,-0.7024,0.0,0.0,0.0,-0.6597,-0.6492,0.0,0.0,0.0,0.0,0.0,0.0,0.0,0.0,0.0,0.0,0.0,0.0,0.0,0.0,0.0,0.0,3.9411,3.9668,4.0072,3.8918,3.7808,3.7285,3.7644,3.7668,3.7003,3.7331,3.6878,3.5114,2.9184,2.5262,2.4397,0.0,0.0,0.0,0.0,0.2823,0.9602,1.0113,1.0204,0.9973,1.0225,0.9918,0.9203,0.9227,0.392,-0.5574,-1.067,-1.7817,-2.5974,-2.8031,-2.8135,-2.631,-1.9591,-1.495,-1.1685,-0.7861,-0.595,-0.5312,-0.5509,0.0,0.0,-0.6412,-0.6602,-0.6508,-0.6139,-0.6045,-0.6024,-0.5915,-0.5882,-0.5863,-0.5771,-0.5657,-0.557,-0.5124,-0.5223,-0.5133,-0.4039,-0.269,-0.1614,-0.1436,-0.0628,0.0358,0.1253,0.2238,0.3227,0.4133,0.4383,0.4378,0.4383,0.3591,0.2965,0.3022,0.0,0.0,0.0303,-0.0605,-0.1411,-0.2118,-0.2927,-0.3632,-0.4033,-0.5527,-0.6126,-0.5734,-0.7226,-0.8021,-0.8021,-0.712,-0.7223,-0.8223,-0.8924,-0.8627,0.0,0.0,0.0,0.0,0.0,0.0,0.0,0.0,0.0,0.0,0.0,0.0,0.0,0.0,0.0,3.9964,4.0207,4.0352,4.034,4.0063,3.9712,3.928,3.9182,3.8605,3.7275,3.7364,3.6789,3.5056,2.898,2.5894,2.7078,1.4653,0.9729,1.453,0.9829,0.8065,0.9795,1.1157,1.1232,0.9959,0.0,0.0,0.9067,0.9157,0.4593,-0.3765,-1.1374,-1.8963,-2.6326,-3.2015,-3.1974,-2.7412,-1.928,-1.4772,-1.26,-0.9933,-0.8794,-0.8644,-0.8316,-0.7904,-0.7578,-0.7399,-0.7042,-0.6594,-0.5978,-0.5801,0.0,-0.5773,-0.5765,-0.5763,-0.5749,-0.5657,-0.4935,-0.1792,-0.2331,-0.2959,-0.1255,-0.2061,-0.278,-0.1614,-0.0448,0.0628,0.1253,0.2238,0.3244,0.4215,0.4424,0.4118,0.3491,0.2639,0.2073,0.1913,-0.0,-0.1109,-0.0605,-0.1917,-0.2826,-0.2927,-0.3932,-0.4533,-0.4634,-0.5727,-0.6323,-0.6226,-0.7422,-0.8021,-0.8021,-0.8623,-0.9126,-0.9225,-0.772,-0.7223,0.0,0.0,0.0,0.0,0.0,0.0,0.0,0.0,0.0,0.0,0.0,3.9618,3.9971,0.0,4.0447,4.0444,4.0613,4.0701,4.0574,4.0081,3.9786,3.99,3.9457,3.874,3.7644,3.7035,3.606,3.4534,2.9849,2.6943,2.6737,1.851,1.4582,1.6193,1.3331,1.1446,1.0914,1.2265,1.1822,0.9744,1.0329,1.0001,0.8855,0.9037,0.4441,-0.406,-1.1843,-1.9474,-2.6932,-3.3253,-3.3835,-3.0205,-2.4274,-1.9367,-1.5373,-1.2349,-1.0833,-1.0168,-0.9309,-0.8707,-0.8273,-0.7837,-0.7309,-0.6691,-0.6343,-0.5994,-0.5733,-0.5733,-0.5733,-0.5735,-0.566,-0.5665,-0.4759,-0.0897,-0.0718,-0.1166,-0.0179,-0.1165,-0.1973,-0.1345,-0.0448,0.0538,0.1253,0.2238,0.3236,0.4178,0.4367,0.4047,0.3129,0.2304,0.1751,0.1687,-0.02,-0.121,-0.0806,-0.232,-0.343,-0.3932,-0.4535,-0.5033,-0.5529,-0.6625,-0.7223,-0.7223,-0.8223,-0.8825,-0.8825,-0.9327,-0.9628,-0.9529,-0.8524,-0.8024,0.0,0.0,0.0,0.0,0.0,0.0,0.0,3.8816,3.9521,3.973,4.0178,4.0515,4.0527,4.0716,4.0844,4.0699,4.071,4.0624,4.0354,3.9449,3.8922,3.9209,3.8743,3.8152,3.7508,3.6193,3.4822,3.3485,3.0227,2.743,2.552,2.0989,1.8105,1.7161,1.5371,1.3727,1.2238,1.3077,1.2271,0.99,1.0732,1.0282,0.8703,0.8851,0.3373,-0.6841,-1.5599,-2.297,-2.9103,-3.4001,-3.4857,-3.2812,-2.9624,-2.4932,-1.943,-1.5478,-1.3161,-1.1866,-1.0666,-0.9726,-0.896,-0.8528,-0.783,-0.7129,-0.6864,-0.6343,-0.5908,-0.5733,-0.5735,-0.5738,-0.5665,-0.567,-0.4949,-0.1797,-0.0539,-0.009,-0.0269,-0.0538,-0.0807,-0.0718,-0.009,0.0717,0.1522,0.2508,0.3403,0.421,0.43,0.3881,0.2856,0.1974,0.1438,0.1174,-0.0299,-0.121,-0.131,-0.2422,-0.3632,-0.4734,-0.5033,-0.5629,-0.6623,-0.7723,-0.8322,-0.8322,-0.9126,-0.9628,-0.9628,-0.9628,-0.9628,-0.9628,-0.9727,-0.9422,3.0036,3.2651,3.4777,3.578,3.697,3.8242,0.0,3.9846,4.0152,4.0643,4.0835,4.0921,4.093,4.0863,4.0776,4.0617,4.0323,3.9832,3.9033,3.832,3.7536,3.6645,3.6812,3.669,3.5854,3.4385,3.2962,3.1707,2.8383,2.5912,2.4749,2.1012,1.8378,1.7434,1.6027,1.4633,1.3302,1.3455,1.2652,1.0956,1.1037,1.0282,0.8703,0.8699,0.0782,-1.3828,-2.8225,-3.4635,-3.4988,-3.6273,-3.5669,-3.3677,-3.0964,-2.8085,-2.4888,-1.9802,-1.7103,-1.574,-1.4469,-1.2735,-1.0971,-1.0702,-0.9749,-0.8452,-0.7217,-0.6779,-0.6517,-0.5908,-0.5738,-0.5657,-0.566,-0.567,-0.5592,-0.5138,-0.2427,-0.0269,-0.1077,-0.1256,-0.0987,0.009,0.1344,0.2239,0.2688,0.3492,0.4208,0.43,0.43,0.3609,0.1842,0.1222,0.048,-0.0784,-0.1896,-0.2623,-0.2927,-0.313,-0.3632,-0.4734,-0.5729,-0.6722,-0.7822,-0.8825,-0.9426,-0.9426,-0.9529,-0.9628,-0.9628,-0.9628,-0.9628,-0.9628,-1.0314,-1.0015,3.2157,3.4275,3.5761,3.7237,3.8125,3.8867,3.97,4.0102,4.0383,4.0801,4.0945,4.0955,4.0791,4.0784,4.0662,4.0267,3.97,3.9108,3.855,3.7242,3.6114,3.5469,3.4834,3.4431,3.4355,3.2875,3.1406,3.0236,2.8044,2.5948,2.4068,2.2177,2.0222,1.8133,1.7512,1.6192,1.4178,1.4178,1.3157,1.1111,1.0657,0.9825,0.8699,0.8327,0.0065,-1.4869,-2.9756,-3.6095,-3.5867,-3.5602,-3.4934,-3.3879,-3.155,-2.9491,-2.721,-2.2061,-1.8758,-1.6742,-1.5486,-1.3587,-1.1671,-1.1316,-1.0101,-0.8715,-0.7658,-0.7129,-0.6602,-0.5908,-0.5735,-0.5471,-0.4393,-0.4039,-0.3773,-0.2697,-0.1168,-0.009,-0.0539,-0.0987,-0.1256,-0.0718,0.0717,0.1879,0.197,0.3312,0.43,0.43,0.43,0.3592,0.163,0.112,0.0096,-0.1889,-0.221,-0.2522,-0.313,-0.3732,-0.4632,-0.5629,-0.6725,-0.7822,-0.8924,-0.9327,-0.9628,-0.9628,-1.0207,-1.0498,-1.0498,-1.1082,-1.1375,-1.1375,-1.157,-1.1272,3.4018,3.5514,3.6527,3.8303,3.9005,3.9435,4.0013,4.0343,4.0584,4.0878,4.098,4.0937,4.0694,4.0688,4.0588,4.0101,3.9299,3.8553,3.8018,3.641,3.5032,3.4402,3.335,3.2698,3.2841,3.1632,3.0443,2.9399,2.7905,2.6169,2.4089,2.3059,2.142,1.889,1.8422,1.7033,1.4601,1.4386,1.3222,1.1111,1.0271,0.9448,0.8528,0.3855,-0.5125,-1.7733,-3.0266,-3.5648,-3.5507,-3.4804,-3.4095,-3.3352,-3.1662,-3.0056,-2.8112,-2.3833,-2.0428,-1.7877,-1.6561,-1.4518,-1.2437,-1.1923,-1.0707,-0.9323,-0.8185,-0.7482,-0.6868,-0.5997,-0.5735,-0.5379,-0.4036,-0.2868,-0.1703,-0.0359,0.0,-0.0,-0.018,-0.0718,-0.1166,-0.1076,0.0269,0.1522,0.179,0.3223,0.43,0.43,0.43,0.358,0.161,0.0557,-0.0676,-0.2613,-0.2522,-0.2522,-0.313,-0.4133,-0.5231,-0.6323,-0.7422,-0.8524,-0.9529,-0.9628,-0.9723,-1.0015,-1.0783,-1.1365,-1.1658,-1.2339,-1.2727,-1.2727,-1.2727,-1.2441,3.4881,3.6015,3.7274,3.8506,3.9288,3.9947,4.0618,4.0774,4.0823,4.0969,4.0998,4.0953,4.0815,4.0688,4.0559,4.0422,3.9376,3.8256,3.719,3.5806,3.44,3.3046,3.2537,3.202,3.1257,3.0764,3.0192,2.9435,2.756,2.6048,2.5204,2.3106,2.1164,1.953,1.818,1.6531,1.4601,1.389,1.2725,1.1111,1.0271,0.9448,0.817,-0.6745,-1.7615,-2.5093,-3.2486,-3.5329,-3.471,-3.4581,-3.3516,-3.1926,-3.1234,-2.9719,-2.7645,-2.533,-2.2709,-2.0082,-1.8443,-1.6191,-1.388,-1.2936,-1.1997,-1.0804,-0.8532,-0.7746,-0.7485,-0.6086,-0.5741,-0.566,-0.5668,-0.2871,-0.009,-0.0,0.0,-0.009,-0.0538,-0.0718,-0.0628,-0.009,0.0717,0.17,0.2688,0.3671,0.43,0.43,0.43,0.358,0.161,-0.0743,-0.2323,-0.2714,-0.3027,-0.313,-0.323,-0.4133,-0.5231,-0.6323,-0.7422,-0.8524,-0.9529,-0.9628,-1.0113,-1.117,-1.1175,-1.1658,-1.263,-1.2727,-1.2727,-1.2732,-1.3511,-1.3221,3.5805,3.6763,3.7731,3.892,3.9505,3.9967,4.0649,4.0801,4.0847,4.0969,4.1,4.0953,4.0807,4.0692,4.032,3.9482,3.848,3.7381,3.6109,3.507,3.4027,3.2939,3.2716,3.2265,3.1317,3.0925,3.036,2.9585,2.8148,2.6725,2.5382,2.3586,2.1856,2.0063,1.8803,1.7161,1.5138,1.4522,1.3448,1.1855,1.0029,0.6198,0.0392,-1.0219,-1.8696,-2.5402,-3.2398,-3.5002,-3.426,-3.368,-3.2666,-3.1361,-3.0176,-2.8983,-2.7577,-2.5007,-2.2437,-2.0159,-1.8523,-1.5838,-1.3105,-1.276,-1.1305,-0.9497,-0.8185,-0.7482,-0.6956,-0.5997,-0.5741,-0.566,-0.5668,-0.4723,-0.3105,-0.0631,-0.0454,-0.1004,-0.117,-0.1166,-0.1076,-0.0987,0.0358,0.1522,0.1879,0.3223,0.43,0.43,0.3223,0.2079,0.1394,-0.0756,-0.2323,-0.2513,-0.2927,-0.323,-0.323,-0.483,-0.6027,-0.6423,-0.812,-0.9225,-0.9628,-0.9628,-1.0109,-1.1175,-1.1853,-1.2732,-1.3806,-1.4472,-1.4758,-1.4758,-1.4867,-1.4675,3.6277,3.7159,3.7987,3.9107,3.9588,3.9967,4.0649,4.0801,4.0847,4.0969,4.0991,4.0955,4.0818,4.0688,4.0249,3.9116,3.808,3.6986,3.5833,3.4801,3.3935,3.3248,3.2983,3.2517,3.1605,3.1184,3.0608,2.9789,2.8529,2.73,2.6227,2.4393,2.2627,2.1032,1.9781,1.8045,1.5834,1.5508,1.414,1.1755,0.7088,0.0558,-0.7444,-1.5326,-2.2524,-2.9098,-3.3407,-3.4831,-3.4017,-3.3045,-3.1846,-3.05,-2.9064,-2.7537,-2.5936,-2.3795,-2.1439,-1.9186,-1.832,-1.5928,-1.3105,-1.2845,-1.1214,-0.9231,-0.8093,-0.7305,-0.6602,-0.5908,-0.5741,-0.5576,-0.4892,-0.5233,-0.4723,-0.0919,-0.0464,-0.1023,-0.1367,-0.1361,-0.1357,-0.1438,0.009,0.1431,0.1431,0.3042,0.421,0.3851,0.2416,0.1363,0.1136,-0.0857,-0.2323,-0.2513,-0.2927,-0.323,-0.323,-0.5127,-0.6423,-0.6423,-0.8425,-0.9628,-0.9628,-0.9628,-1.0109,-1.1175,-1.2145,-1.3221,-1.4298,-1.535,-1.5832,-1.5832,-1.5635,-1.5356,3.6236,3.7159,3.7987,3.9107,3.9588,3.9967,4.0649,4.0801,4.0842,4.099,4.1016,4.0964,4.0839,4.0699,4.0285,3.9296,3.8191,3.7089,3.6159,3.5011,3.413,3.3828,3.3343,3.2763,3.1987,3.1568,3.0971,3.0074,0.0,2.7807,2.7605,2.537,2.3566,2.2371,2.1032,1.9125,1.6697,1.6567,1.4601,1.0885,0.2414,-0.601,-1.4409,-2.1335,-2.8604,-3.5738,-3.5348,-3.4745,-3.3927,-3.2683,-3.1085,-2.9287,-2.8006,-2.5695,-2.2955,-2.194,-1.9807,-1.7467,-1.7738,-1.6175,-1.388,-1.3021,-1.1558,-0.9836,-0.8265,-0.7305,-0.6605,-0.5908,-0.5744,-0.5328,-0.3489,-0.4262,-0.4483,-0.0854,-0.0,-0.0285,-0.121,-0.1389,-0.138,-0.1443,0.009,0.1431,0.1522,0.3042,0.3941,0.3045,0.2061,0.1273,0.0852,-0.0953,-0.2421,-0.2714,-0.3027,-0.323,-0.323,-0.5127,-0.6423,-0.6423,-0.8425,-0.9628,-0.9628,-0.9624,-1.0207,-1.1272,-1.2242,-1.3318,-1.4394,-1.535,-1.5825,-1.5737,-1.5635,-1.5356,3.6222,3.725,3.8387,3.9014,3.9496,3.9967,4.0649,4.0809,4.0857,4.1034,4.1074,4.1054,4.0961,4.0882,4.0291,3.8659,3.804,3.7175,3.5439,3.4924,3.4486,3.3854,3.3688,3.3306,3.255,3.2196,3.1808,3.1435,3.01,2.9162,2.893,2.6572,2.4831,2.4085,2.1611,1.9509,1.7939,1.5694,1.3418,1.1187,0.7935,-0.0831,-1.4205,-1.6562,-2.4074,-3.5255,-3.4902,-3.4173,-3.314,-3.2156,-3.0476,-2.8373,-2.6718,-2.465,-2.2289,-2.0522,-1.8889,-1.7277,-1.607,-1.4496,-1.3021,-1.276,-1.0773,-0.8356,-0.7918,-0.6959,-0.5908,-0.5741,-0.5719,-0.5613,-0.5087,-0.3218,-0.1254,-0.0191,-0.0289,-0.0679,-0.0856,-0.1029,-0.1201,-0.147,0.0091,0.1878,0.331,0.3939,0.3941,0.3045,0.2087,0.111,0.0285,-0.1144,-0.213,-0.2513,-0.2725,-0.3027,-0.323,-0.5127,-0.6423,-0.6423,-0.8425,-0.9628,-0.9628,-1.04,-1.1272,-1.2339,-1.3318,-1.4388,-1.5445,-1.5635,-1.5737,-1.554,-1.554,-1.5261,3.6071,3.7193,3.8346,3.8803,3.9207,3.9678,4.0303,4.0526,4.0645,4.084,4.0961,4.1041,4.1008,4.0947,4.0298,3.8407,3.7901,3.7132,3.5283,3.4889,3.4674,3.4364,3.4061,3.375,3.3346,3.2692,3.2332,3.2502,3.096,2.9962,2.9794,2.785,2.6237,2.5149,2.2968,2.0825,1.8839,1.559,1.3397,1.2111,0.3539,-0.5264,-1.4287,-2.1031,-2.8059,-3.4895,0.0,-3.3488,-3.2225,-3.0891,-2.9062,-2.6896,-2.5038,-2.2623,-2.003,-1.8863,-1.7124,-1.5312,-1.4532,-1.3283,-1.1934,-1.2049,-1.0173,-0.7834,-0.7834,-0.6828,-0.5724,-0.5729,-0.5729,-0.5743,-0.5705,-0.2898,-0.0098,-0.0587,-0.0888,-0.1086,-0.1055,-0.1135,-0.1026,-0.0366,0.0993,0.2506,0.403,0.43,0.3849,0.2417,0.1731,0.0931,-0.057,-0.1442,-0.2053,-0.2413,-0.2623,-0.3128,-0.3833,-0.5427,-0.6623,-0.7024,-0.8627,-0.9628,-0.9628,-1.0207,-1.0984,-1.2047,-1.3022,-1.4094,-1.4962,-1.5445,-1.5547,-1.5356,-1.5166,-1.4975,3.5839,3.6981,3.7998,3.845,3.8822,3.9252,3.9812,4.0093,4.0323,4.0552,4.0779,4.0968,4.098,4.095,4.0292,3.8435,3.7882,3.7113,3.5452,3.4925,3.4774,3.498,3.4513,3.4134,3.4152,3.3263,3.2849,3.3314,3.1704,3.064,3.0592,2.9159,2.7504,2.5638,2.4514,2.2548,1.9661,1.6601,1.405,1.1709,-0.3742,-1.2545,-1.5725,-2.8267,-3.4051,-3.4134,-3.3595,-3.2475,-3.0876,-2.9162,-2.7142,-2.4969,-2.3022,-2.0142,-1.7095,-1.6883,-1.5038,-1.2665,-1.3039,-1.217,-1.091,-1.107,-0.9685,-0.7779,-0.7687,-0.6821,-0.566,-0.5378,-0.5472,-0.559,-0.5094,-0.2454,-0.0197,-0.1203,-0.1507,-0.159,-0.1442,-0.1332,-0.0751,0.1263,0.2329,0.3226,0.4119,0.43,0.3669,0.17,0.1369,0.0653,-0.1237,-0.1747,-0.2077,-0.2416,-0.2623,-0.3328,-0.4734,-0.5829,-0.6822,-0.7922,-0.9023,-0.9628,-0.9628,-0.9723,-1.0306,-1.1365,-1.2436,-1.3318,-1.419,-1.5064,-1.5356,-1.5083,-1.479,-1.4688,3.5537,3.6528,3.7506,3.7799,3.8486,3.92,3.9572,3.9872,4.0125,4.0455,4.0597,4.0719,4.0884,4.0953,4.0394,3.856,3.8169,3.745,3.5608,3.5321,3.5212,3.5105,3.498,3.4775,3.437,3.4176,3.392,3.3551,3.3027,3.2503,3.2074,3.0228,2.8074,2.5692,2.5441,2.4129,2.1549,2.0341,1.4685,0.4688,0.1133,-0.813,-2.2171,-2.4524,-2.7687,-3.1336,-3.159,0.0,-2.7891,-2.7007,-2.5173,-2.2698,-2.0784,-1.7999,-1.4977,-1.4307,-1.3082,-1.1707,-1.1209,-1.0701,-1.0228,-1.0373,-0.9336,-0.7862,-0.7319,-0.6605,-0.5591,-0.3878,-0.4522,-0.4997,-0.1765,-0.0491,-0.0,-0.0197,-0.0877,-0.1539,-0.1528,-0.0847,0.0277,0.225,0.2777,0.3226,0.4119,0.43,0.3669,0.17,0.1386,0.0664,-0.1239,-0.1747,-0.2077,-0.2416,-0.2623,-0.3328,-0.4734,-0.5829,-0.6822,-0.7922,-0.9023,-0.9628,-0.9628,-1.0498,-1.137,-1.2436,-1.3511,-1.4484,-1.5445,-1.5445,-1.5356,-1.5083,-1.479,-1.4592,3.5357,3.634,3.7155,3.7417,3.8023,3.8596,3.8914,3.9252,3.9602,3.9834,4.0177,4.0516,4.0719,4.0867,4.0366,3.8589,3.8264,3.7607,3.5755,3.553,3.5481,3.5325,3.5254,3.5283,3.542,3.4824,3.4539,3.4884,3.408,3.3211,3.2433,3.0616,2.8949,2.7448,2.689,2.5937,2.453,2.249,1.7652,1.0077,0.4256,-0.4672,-1.6168,-1.9878,-2.3522,-2.6924,-2.7052,-2.5993,-2.4229,-2.3355,-2.1901,-2.0024,-1.8157,-1.6033,-1.3822,-1.3219,-1.1809,-1.0299,-1.0172,-0.9526,-0.8717,-0.8653,-0.8067,-0.7331,-0.7161,-0.6548,-0.5823,-0.4693,-0.3618,-0.232,-0.0483,-0.0387,-0.0773,-0.0773,-0.0572,-0.0375,-0.0094,0.0831,0.1814,0.2693,0.3314,0.3762,0.421,0.43,0.3685,0.1726,0.1307,0.0573,-0.1354,-0.1774,-0.21,-0.242,-0.2522,-0.3426,-0.5429,-0.5927,-0.6924,-0.8722,-0.9229,-0.943,-0.9628,-1.0113,-1.1082,-1.2635,-1.3216,-1.4094,-1.5458,-1.5363,-1.507,-1.4688,-1.4592,-1.4394,3.5191,3.6037,3.6684,3.6869,3.7396,3.7931,3.8117,3.8573,3.9026,3.9208,3.9694,4.0162,4.0413,4.0656,4.0288,3.8745,3.8385,3.7737,3.6106,3.5947,3.5968,3.5841,3.589,3.617,3.6738,3.5848,3.559,3.6439,3.5302,3.4018,3.2715,3.1339,3.0352,2.9815,2.9088,2.8314,2.7508,2.5116,2.1138,1.5602,0.6462,-0.2039,-0.989,-1.6389,-2.0366,-2.2075,-2.2642,-2.1806,-2.0086,-1.9265,-1.8207,-1.6921,-1.5234,-1.3674,-1.2296,-1.1818,-1.0494,-0.8964,-0.9382,-0.8568,-0.7382,-0.7288,-0.7084,-0.6923,-0.6847,-0.6506,-0.6163,-0.5887,-0.2448,0.124,0.1239,0.0665,-0.0,-0.0565,0.0186,0.1194,0.1926,0.2536,0.2957,0.3135,0.3762,0.43,0.43,0.43,0.3697,0.2025,0.1503,0.0671,-0.1077,-0.1598,-0.2021,-0.2322,-0.2321,-0.3423,-0.6024,-0.6126,-0.7027,-0.9327,-0.9331,-0.9335,-0.9529,-0.9529,-1.0502,-1.2533,-1.263,-1.3414,-1.5083,-1.5083,-1.479,-1.4394,-1.4298,-1.4298,3.4787,3.5316,3.5749,3.5732,3.6568,3.7379,3.7379,3.7946,3.8597,3.9026,3.9252,3.9526,3.9965,4.0275,4.0146,3.9271,3.8654,3.7948,3.6916,3.6883,3.6949,3.6876,3.7547,3.8043,3.8112,3.8006,3.7918,3.782,3.7193,3.5808,3.3529,3.3303,3.2915,3.2128,3.2486,3.1747,2.9815,2.9917,2.3985,1.2126,0.7968,-0.0402,-1.2328,-1.6118,-1.7701,-1.7587,-2.0523,-1.9312,0.0,-1.5283,-1.4479,-1.3146,-1.1721,-1.0211,-0.8851,-0.8958,-0.8446,-0.7899,-0.8352,-0.7945,-0.7253,-0.7584,-0.7541,-0.7184,-0.6182,-0.6098,-0.6398,-0.6306,-0.0761,0.5172,0.5165,0.5092,0.453,0.2263,0.2249,0.3054,0.4222,0.3678,0.3135,0.403,0.4208,0.43,0.43,0.43,0.3969,0.304,0.1973,0.0958,-0.0,-0.0997,-0.1718,-0.2021,-0.2221,-0.3324,-0.5522,-0.5827,-0.693,-0.9133,-0.9236,-0.9236,-0.9236,-0.9236,-1.0113,-1.2052,-1.2242,-1.3216,-1.5083,-1.4885,-1.4694,-1.4688,-1.4394,-1.4298,3.4643,3.5241,3.5616,3.5616,3.6357,3.7076,3.7076,3.765,3.8267,3.8609,3.8952,3.9295,3.969,4.0082,4.0262,3.9959,3.9419,3.8917,3.8561,3.8114,3.7832,3.7838,3.8143,3.8521,3.8973,3.8583,3.8266,3.8183,3.7876,3.7261,3.6251,3.5744,3.5312,3.4936,3.5166,3.4541,3.2936,3.1992,2.7128,1.8413,1.5847,0.8711,-0.2328,-0.3713,-0.6029,-0.9183,-1.1783,-1.1815,0.0,-1.2164,-1.2098,-1.077,-0.9661,-0.8946,-0.8501,-0.834,-0.7897,-0.7177,-0.6577,-0.5604,-0.4789,-0.61,-0.4869,-0.3256,-0.5096,-0.5874,-0.4984,-0.0367,0.3221,0.545,0.4326,0.4112,0.4166,0.3769,0.3401,0.3312,0.43,0.4121,0.3851,0.421,0.43,0.43,0.43,0.4344,0.4043,0.3094,0.2104,0.1073,0.0099,-0.0904,-0.1617,-0.1718,-0.2021,-0.2823,-0.4524,-0.5227,-0.6229,-0.7925,-0.8627,-0.8977,-0.9179,-0.9284,-1.0025,-1.1235,-1.2048,-1.3057,-1.4266,-1.471,-1.4838,-1.4649,-1.4377,-1.4298,3.4382,3.4897,3.5207,3.5362,3.595,3.644,3.644,3.7076,3.7685,3.7946,3.8368,3.8822,3.9271,3.9816,4.0253,4.0421,4.002,3.9688,3.9743,3.9101,3.8663,3.8745,3.8983,3.9336,3.9859,3.9373,3.8965,3.8866,3.8765,3.8629,3.8488,3.7754,3.7126,3.665,3.6425,3.581,3.4781,3.3113,2.9706,2.4502,2.1716,1.5583,0.6769,0.5192,0.1934,-0.2608,-0.4127,-0.5152,0.0,-0.7605,-0.8242,-0.815,-0.7102,-0.7111,-0.7748,-0.7562,-0.7098,-0.6337,-0.4326,-0.2154,-0.0627,-0.2511,-0.1343,0.0537,-0.0984,-0.2239,-0.2062,0.3323,0.5581,0.5847,0.4125,0.4026,0.4467,0.4837,0.4297,0.3758,0.43,0.4389,0.43,0.43,0.43,0.4308,0.4334,0.4391,0.4194,0.3633,0.2331,0.1283,0.0603,-0.0707,-0.1617,-0.1617,-0.1819,-0.2423,-0.3624,-0.4325,-0.5425,-0.7024,-0.7865,-0.8549,-0.8973,-0.9229,-0.9713,-1.0543,-1.1484,-1.2309,-1.3125,-1.3774,-1.4102,-1.4313,-1.405,-1.4075,3.3933,3.4101,3.425,3.4787,3.5178,3.5419,3.5419,3.6088,3.6808,3.7064,3.7433,3.7931,3.8664,3.9416,4.0044,4.0528,4.0309,4.0098,4.0104,3.9702,3.9438,3.958,4.0355,4.0886,4.0886,4.0753,4.0546,4.0223,4.0125,0.0,3.9586,3.9136,3.8214,3.6759,3.5861,3.519,3.4705,3.3564,3.1454,2.8374,2.3482,1.8021,1.2009,0.681,0.3033,0.0742,0.0764,-0.0688,0.0,-0.0972,-0.2051,-0.4914,-0.3471,-0.406,-0.5752,-0.6062,-0.5943,-0.5191,-0.1659,0.2186,0.5318,0.3409,0.2867,0.3583,0.7279,0.5741,0.2867,0.2867,0.5191,0.7258,0.6014,0.6174,0.6514,0.5636,0.5015,0.4661,0.4661,0.448,0.43,0.43,0.43,0.4326,0.4418,0.4434,0.4498,0.4679,0.2841,0.148,0.1609,-0.0303,-0.1617,-0.1617,-0.1617,-0.2019,-0.3123,-0.3422,-0.4522,-0.6628,-0.6952,-0.7642,-0.8674,-0.8827,-0.9321,-1.0136,-1.0356,-1.0871,-1.1573,-1.1676,-1.2299,-1.3437,-1.31,-1.3462,3.3614,3.4052,3.4399,3.4594,3.4944,3.5283,3.5283,3.5873,3.6626,3.7044,3.7323,3.7829,3.8891,3.9272,3.9905,4.1453,4.126,4.1054,4.1423,4.0864,4.0266,3.9856,4.0039,4.0226,4.0226,4.0096,3.9854,3.9489,3.8968,3.8464,3.8063,3.7243,3.6999,3.7436,3.6646,3.5488,3.3972,3.2787,3.0289,2.6612,2.4587,2.0165,1.3787,1.2149,0.947,0.5981,0.4731,0.3696,0.2904,0.2226,0.1442,0.0638,0.055,0.0187,-0.0478,-0.1591,-0.1961,-0.1591,0.1002,0.3517,0.5855,0.6471,0.6456,0.6355,0.7535,0.6462,0.4851,0.4846,0.5997,0.6976,0.6002,0.5911,0.5905,0.546,0.5104,0.4835,0.475,0.448,0.43,0.43,0.43,0.4328,0.442,0.4487,0.4569,0.4692,0.3567,0.2402,0.1713,0.0403,-0.0807,-0.1516,-0.1617,-0.1717,-0.212,-0.2821,-0.3945,-0.5528,-0.6592,-0.7623,-0.8666,-0.8934,-0.9115,-0.9331,-1.0189,-1.0721,-1.1035,-1.1544,-1.1931,-1.2196,-1.2955,-1.3306,3.2848,3.3407,3.3901,3.4102,3.4529,3.4864,3.4864,3.5402,3.5985,3.6435,3.6956,3.7658,3.8724,3.9319,4.0131,4.1541,4.1522,4.1397,4.1576,4.1004,4.0373,3.9888,3.9677,3.9597,3.9597,3.9328,3.8995,3.8569,3.793,3.7359,3.6881,3.5919,3.5572,3.605,3.5575,3.4643,3.3214,3.1588,2.9142,2.5803,2.4578,2.0964,1.5509,1.4835,1.2668,0.9318,0.7811,0.6966,0.0,0.4786,0.4665,0.5403,0.5071,0.4968,0.4756,0.3753,0.327,0.3288,0.489,0.5824,0.6557,0.7631,0.797,0.7955,0.7955,0.6897,0.5749,0.6094,0.6881,0.7492,0.6877,0.6786,0.6697,0.5985,0.5455,0.5013,0.4659,0.4389,0.43,0.43,0.4326,0.4379,0.4471,0.4563,0.4655,0.4743,0.3901,0.2922,0.2318,0.131,0.0202,-0.0908,-0.1009,-0.1215,-0.1633,-0.2243,-0.3173,-0.4341,-0.5654,-0.692,-0.7942,-0.8652,-0.8948,-0.8937,-0.9588,-1.0021,-1.0021,-1.0995,-1.1372,-1.1172,-1.2328,-1.273,0.0,3.2336,3.2949,3.3391,3.3885,3.425,3.4234,3.4625,0.0,3.5436,3.6372,3.7448,3.8382,3.9517,4.0479,4.1034,4.1294,4.127,4.0876,4.0283,3.9807,3.958,3.9212,3.9008,3.9008,3.8514,3.8022,3.7523,3.6964,3.6409,3.5848,3.4994,3.4023,3.3061,3.294,3.2654,3.2219,3.0079,2.7864,2.5529,2.3496,2.0629,1.6911,1.5133,1.3128,0.0,1.0096,0.916,0.8159,0.68,0.7451,0.9235,0.9464,0.9627,0.9569,0.8989,0.8726,0.8579,0.9161,0.8593,0.7609,0.7411,0.7929,0.8632,0.8632,0.7404,0.626,0.6962,0.7841,0.8544,0.8544,0.8627,0.8448,0.6858,0.5983,0.5282,0.4654,0.4387,0.4391,0.4397,0.4377,0.4467,0.4565,0.4653,0.4736,0.4822,0.3927,0.3324,0.3224,0.2318,0.131,0.0202,0.0,-0.0407,-0.1452,-0.1662,-0.2182,-0.3223,-0.4609,-0.578,-0.6875,-0.8197,-0.894,-0.894,-0.894,-0.894,-0.894,-1.0025,-1.0482,-1.0214,-1.1385,-1.1805,3.0911,0.0,3.3039,3.2734,3.3403,3.4034,0.0,3.4152,3.5015,3.5785,3.6243,3.7072,3.887,3.9313,3.9853,4.1174,4.1435,4.1345,4.1002,3.9769,3.8705,3.8096,3.792,3.7887,3.7887,3.7718,3.7234,3.6284,3.5625,3.4708,3.3419,3.2763,3.2139,3.1519,3.0616,2.9825,2.917,2.7682,2.579,2.3514,2.1782,1.9643,1.6968,1.5313,1.3665,1.202,1.0715,1.0018,0.9714,0.8846,0.8824,0.9382,0.944,0.9538,0.9514,0.835,0.843,0.8846,0.7968,0.794,0.8376,0.9074,0.9419,0.9593,0.9593,0.9772,0.9772,0.8544,0.8807,0.9419,0.8719,0.8277,0.7921,0.7566,0.6953,0.6425,0.6248,0.563,0.5126,0.5204,0.4785,0.4487,0.4649,0.4694,0.4736,0.4822,0.4632,0.413,0.3324,0.3022,0.2418,0.131,0.051,-0.0103,-0.0415,-0.1245,-0.2205,-0.3335,-0.4669,-0.5811,-0.6995,-0.8251,-0.894,-0.894,-0.894,-0.894,-0.894,-0.9154,-0.9244,-0.9208,-1.0397,-1.0837,3.0568,3.1507,3.2336,3.2048,3.2841,3.3594,3.3251,3.4108,3.5103,3.5811,3.6506,3.7403,3.8751,3.9174,3.9695,4.0797,4.0784,4.0464,3.9954,3.9142,3.8324,3.7594,3.7358,3.7152,3.702,3.6803,3.6281,3.5335,3.4669,3.3772,3.2579,3.1977,3.1379,3.0732,2.9737,2.8983,2.8611,2.71,2.532,2.3363,2.2221,2.0149,1.739,1.6577,1.5264,1.349,1.2323,1.1795,1.1742,1.0459,1.0342,1.0913,1.0426,1.059,1.0937,1.0054,1.0001,1.032,0.9376,0.9069,0.9244,0.9772,0.9859,0.9946,1.0386,1.0911,1.0997,0.951,0.9506,0.9859,0.9772,0.9414,0.8973,0.8448,0.7837,0.733,0.6866,0.6346,0.5932,0.5681,0.5371,0.497,0.4789,0.4741,0.4781,0.4826,0.4834,0.4632,0.4029,0.3927,0.3537,0.255,0.1441,0.0521,0.0,-0.1063,-0.2036,-0.2727,-0.3847,-0.4762,-0.5475,-0.6702,-0.7593,-0.8045,-0.8605,-0.894,-0.894,-0.894,-0.894,-0.894,-0.9588,-0.976,3.0568,3.097,3.1364,3.1495,3.2336,3.3214,3.3324,3.4338,3.5337,3.5824,3.6943,3.7989,3.8469,3.9105,3.9679,4.0121,3.9833,3.9362,3.8688,3.8594,3.8263,3.7418,3.7018,3.6643,3.6215,3.5864,3.5299,3.4464,3.3919,3.3235,3.2321,3.1751,3.1014,3.0054,2.9303,2.8898,2.8757,2.695,2.5228,2.3677,2.284,2.0904,1.8083,1.784,1.6711,1.4918,0.0,0.0,1.3438,1.1947,1.1889,1.2662,1.177,1.1965,1.2711,1.217,1.1983,1.1978,1.1515,1.0824,1.012,1.012,1.012,1.0294,1.1089,1.1262,1.1089,1.0299,1.012,1.0294,1.1084,1.0906,1.0289,0.9331,0.8656,0.8101,0.7249,0.6926,0.6799,0.6272,0.5997,0.5684,0.502,0.4887,0.4834,0.4834,0.4834,0.4834,0.4834,0.4847,0.4478,0.3722,0.26,0.1479,0.0327,-0.0877,-0.1647,-0.1757,-0.2889,-0.3692,-0.3914,-0.4804,-0.5808,-0.6816,-0.8045,-0.8605,-0.8605,-0.8826,-0.894,-0.894,-0.894,-0.894,3.0568,3.0687,3.0851,3.1379,3.2336,3.3356,3.3972,3.4707,3.5578,3.6794,3.7199,3.7704,3.8743,3.8995,3.9222,3.961,3.9662,3.936,3.8622,3.8535,3.8041,3.6671,3.6426,3.6017,3.5115,3.4971,3.4576,3.3633,3.3135,3.2384,3.1291,3.0777,2.9979,2.8812,2.8117,2.7458,2.6867,2.5204,2.3616,2.2113,2.0595,1.9377,1.8394,1.7043,1.6051,1.5246,0.0,1.4192,1.3549,1.3469,1.3199,1.2759,1.2662,1.2662,1.2635,1.1592,1.1563,1.1978,1.1515,1.1176,1.1089,1.1089,1.1089,1.1089,1.1262,1.1262,1.1267,1.1089,1.1089,1.1089,1.1262,1.0738,1.0038,0.9859,0.9287,0.8697,0.8544,0.8107,0.7778,0.7839,0.6825,0.5902,0.5802,0.5227,0.4834,0.4834,0.4834,0.4834,0.4834,0.4902,0.4957,0.4763,0.3828,0.2711,0.1528,0.0332,-0.067,-0.1788,-0.2908,-0.4026,-0.5027,-0.525,-0.5472,-0.5695,-0.6816,-0.7376,-0.7376,-0.838,-0.894,-0.894,-0.894,-0.894,3.0568,3.0568,3.0747,3.1364,3.1905,3.2465,3.31,3.4337,3.5598,3.655,3.7375,3.8059,3.8606,3.8655,3.8766,3.8898,3.9312,3.9256,3.8332,3.837,3.8087,3.7017,3.6532,3.6035,3.5332,3.4546,3.3754,3.3039,3.236,3.1577,3.0673,3.0025,2.9317,2.8556,2.7458,2.6678,2.6113,2.4572,2.3479,2.2754,2.1027,1.9724,1.8777,1.7586,1.6748,1.6188,0.0,1.5186,1.4967,1.4238,1.3715,1.3431,1.3431,1.3141,1.2716,1.1874,1.1692,1.1811,1.1472,1.1262,1.1262,1.1262,1.1262,1.1262,1.1262,1.1262,1.1289,1.1505,1.1451,1.1262,1.1262,1.1091,1.0828,1.0563,1.0187,0.9727,0.955,0.9071,0.8707,0.8387,0.734,0.6473,0.6032,0.5338,0.4834,0.4834,0.4834,0.4853,0.4902,0.4945,0.501,0.5108,0.4106,0.2956,0.188,0.0669,-0.0561,-0.1683,-0.2353,-0.2912,-0.3469,-0.4026,-0.4472,-0.4472,-0.5586,-0.6144,-0.6144,-0.67,-0.7035,-0.7035,-0.7035,-0.7035,3.0747,3.0807,3.0999,3.179,3.1935,3.2101,3.272,3.4426,3.5999,3.6437,3.7444,3.8205,3.8391,3.8391,3.8391,3.8391,3.8898,3.9007,3.8159,3.8289,3.8216,3.7451,3.6854,3.6274,3.557,3.4434,3.348,3.2788,3.203,3.1262,3.0483,2.9813,2.9159,2.8385,2.71,2.6259,2.5846,2.4303,2.3477,2.3477,2.1959,2.0549,1.9161,1.8477,1.7718,1.6967,1.631,1.6158,1.6096,1.4765,1.4094,1.3908,1.3715,1.3335,1.2705,1.2226,1.1935,1.1741,1.1451,1.1262,1.1348,1.1521,1.1521,1.1527,1.1581,1.1598,1.1652,1.1804,1.1655,1.1515,1.1515,1.1556,1.151,1.1156,1.0861,1.0594,1.0364,0.9962,0.9453,0.8704,0.7832,0.6939,0.6142,0.5338,0.4834,0.4834,0.4853,0.4892,0.4963,0.501,0.509,0.523,0.4491,0.3531,0.2348,0.0896,-0.0449,-0.1346,-0.1683,-0.1795,-0.1795,-0.2688,-0.3135,-0.3135,-0.436,-0.5027,-0.5027,-0.525,-0.5361,-0.5361,-0.5361,-0.5361,3.1263,3.1437,3.1745,3.2966,3.3275,3.3418,3.4109,3.5733,3.7198,3.7313,3.737,3.7653,3.8278,3.8391,3.8391,3.8391,3.8448,3.8432,3.8383,3.8367,3.8147,3.7378,3.7248,3.6596,3.5002,3.4665,3.4127,3.3121,3.2465,3.1797,3.1006,3.0459,2.9581,2.8079,2.7066,2.6269,2.5612,2.3971,2.3111,2.3111,2.2227,2.1015,1.9553,1.9465,1.8693,1.7296,1.7196,1.6835,1.6096,1.5337,1.4573,1.3806,1.3141,1.2861,1.2705,1.2226,1.2129,1.1957,1.151,1.1262,1.1435,1.2112,1.2277,1.2324,1.2552,1.2622,1.2503,1.2133,1.2102,1.2,1.2,1.1736,1.138,1.138,1.1081,1.0853,1.0868,1.055,1.0096,0.9316,0.8127,0.6939,0.6142,0.5338,0.4834,0.4834,0.4908,0.4965,0.4971,0.512,0.523,0.5243,0.521,0.481,0.358,0.1344,-0.0,-0.0112,-0.1234,-0.1795,-0.1795,-0.1907,-0.1907,-0.1907,-0.3135,-0.3692,-0.3692,-0.4804,-0.5361,-0.5361,-0.5361,-0.5361,3.1321,3.1263,3.1353,3.3012,3.3732,3.4226,3.486,3.5243,3.5854,3.714,3.7417,3.7594,3.8278,3.8391,3.8391,3.8391,3.8391,3.8278,3.7844,3.8148,3.7978,3.6904,3.6711,3.6232,3.5089,3.4076,3.3302,3.2819,3.1664,3.0894,3.0596,2.9478,2.8324,2.7188,2.6375,2.5474,2.4454,2.3813,2.338,2.3073,2.1949,2.0907,1.9937,1.9405,1.8478,1.7326,1.7326,1.7138,1.6857,1.6096,1.5622,1.5242,1.4478,1.4478,1.4816,1.3969,1.3549,1.3375,1.326,1.2733,1.2277,1.2786,1.2578,1.2243,1.2327,1.2355,1.232,1.2297,1.2274,1.2242,1.2086,1.2069,1.1994,1.1994,1.1787,1.1463,1.1168,1.0747,1.0216,0.962,0.863,0.7736,0.6839,0.6039,0.5361,0.5014,0.4949,0.5012,0.5126,0.5202,0.5267,0.5324,0.4686,0.4142,0.3692,0.2127,0.0784,0.0,-0.1121,-0.1795,-0.1795,-0.1795,-0.1795,-0.1795,-0.2242,-0.2465,-0.2465,-0.2911,-0.3135,-0.3135,-0.3135,-0.3135,3.1321,3.1353,3.1605,3.3291,3.4257,3.4994,3.5854,3.5813,3.5997,3.7188,3.7594,3.7727,3.777,3.796,3.8091,3.8091,3.7902,3.7578,3.7147,3.746,3.7445,3.6508,3.6333,3.5978,3.5199,3.4118,3.3229,3.2614,3.1488,3.0626,3.0117,2.9091,2.8113,2.7244,2.6196,2.5253,2.4357,2.378,2.3348,2.3047,2.2138,2.1341,2.0593,1.9695,1.8696,1.7785,1.7419,1.7326,1.7232,1.6473,1.6096,1.5812,1.5337,1.5432,1.5778,1.5019,1.4517,1.4339,1.4321,1.3804,1.3236,1.3699,1.358,1.315,1.3226,1.325,1.3216,1.2919,1.2897,1.2764,1.2411,1.2398,1.2522,1.2331,1.2159,1.1883,1.1292,1.0806,1.0216,0.962,0.8969,0.8203,0.74,0.6628,0.5967,0.5523,0.5248,0.5102,0.5228,0.5269,0.5312,0.5375,0.4704,0.4142,0.4142,0.3022,0.2015,0.1232,0.0,-0.1009,-0.1795,-0.1795,-0.1795,-0.1795,-0.1795,-0.1795,-0.1795,-0.1795,-0.1795,-0.1795,-0.1795,-0.1795,3.1321,3.1958,3.2736,3.4053,3.4831,3.5658,3.7065,3.7902,3.8205,3.7535,3.7902,3.8017,3.6631,3.6966,3.7417,3.7417,3.6829,3.6384,3.6384,3.6384,3.6384,3.6384,3.6384,3.6072,3.5175,3.4942,3.4177,3.2506,3.2218,3.1415,2.9781,2.9704,2.9328,2.851,2.6741,2.583,2.5735,2.3973,2.3135,2.3135,2.3135,2.2599,2.1695,2.0692,1.9695,1.8703,1.7692,1.7326,1.7232,1.6473,1.5812,1.5146,1.5146,1.5146,1.5114,1.4839,1.4737,1.4692,1.4398,1.4295,1.4385,1.5129,1.5404,1.5459,1.565,1.5647,1.5431,1.4214,1.3902,1.3715,1.2953,1.2764,1.2662,1.2175,1.198,1.1883,1.1292,1.0806,1.0216,0.932,0.8955,0.8452,0.7638,0.6922,0.6373,0.6373,0.5721,0.5245,0.5245,0.5326,0.5382,0.5382,0.5382,0.5382,0.5382,0.4255,0.358,0.358,0.2463,0.0784,-0.1683,-0.1795,-0.1795,-0.1795,-0.1795,-0.1795,-0.1795,-0.1795,-0.1795,-0.1795,-0.1795,-0.1795,3.1465,3.2045,3.2942,3.4804,3.5303,3.5854,3.7684,3.7519,3.7071,3.7342,3.7902,3.8148,3.7266,3.7282,3.7222,3.6768,3.6508,3.6259,3.577,3.6072,3.6072,3.5088,3.5255,3.519,3.4317,3.4059,3.3479,3.2304,3.1636,3.082,2.9781,2.9184,2.8143,2.6659,2.6069,2.5158,2.3897,2.3387,2.3135,2.3135,2.3135,2.2599,2.1695,2.0692,1.9695,1.8703,1.7692,1.7326,1.7232,1.7044,1.6857,1.6669,1.6669,1.6669,1.6655,1.6563,1.6394,1.6225,1.6345,1.5964,1.5362,1.5855,1.5651,1.5197,1.5276,1.4924,1.4374,1.398,1.3528,1.305,1.2861,1.2764,1.2764,1.2565,1.2273,1.1883,1.1292,1.092,1.0418,0.9807,0.9745,0.9453,0.8723,0.8344,0.788,0.6695,0.6307,0.603,0.5443,0.5365,0.5382,0.5382,0.5382,0.5382,0.5382,0.5043,0.448,0.3692,0.3245,0.235,0.0784,-0.0112,-0.0561,-0.0561,-0.1346,-0.1795,-0.1795,-0.1795,-0.1795,-0.1795,-0.1795,-0.1795,3.1522,3.2079,3.2931,3.4753,3.5506,3.624,3.7994,3.777,3.7207,3.7342,3.7902,3.8091,3.7163,3.7027,3.6768,3.6134,3.577,3.5464,3.5088,3.5335,3.5335,3.4481,3.4639,3.4572,3.3951,3.3521,3.2775,3.1709,3.0895,3.0075,2.9263,2.8736,2.7834,2.6412,2.5986,2.5073,2.3647,2.3309,2.3135,2.3135,2.3135,2.2775,2.2236,2.0872,1.9695,1.8703,1.7692,1.7326,1.7326,1.7326,1.7326,1.7326,1.7326,1.7326,1.7326,1.7326,1.7208,1.7069,1.726,1.6915,1.6415,1.6598,1.6379,1.6001,1.6001,1.5622,1.514,1.4573,1.41,1.3528,1.2953,1.2829,1.2877,1.2586,1.234,1.2008,1.1415,1.1084,1.0719,1.0403,1.0352,1.0164,0.9633,0.9363,0.8793,0.7904,0.7046,0.6418,0.5929,0.5605,0.5382,0.5382,0.5382,0.5382,0.5382,0.5382,0.5043,0.4367,0.4367,0.403,0.3248,0.1568,0.0672,0.0672,0.0,-0.056,-0.1121,-0.1121,-0.1346,-0.1795,-0.1795,-0.157,3.1655,3.2258,3.3051,3.446,3.5729,3.689,3.8017,3.8351,3.8221,3.7594,3.7976,3.8017,3.6631,3.6384,3.6134,3.5464,3.4787,3.4414,3.4414,3.4414,3.4414,3.4414,3.4346,3.421,3.3813,3.3072,3.2101,3.0895,3.0152,2.9328,2.851,2.8431,2.8007,2.7092,2.6163,2.5242,2.4413,2.357,2.3135,2.3135,2.3135,2.3047,2.2872,2.1051,1.9604,1.8611,1.7692,1.7326,1.7326,1.7326,1.7326,1.7326,1.7326,1.7326,1.7326,1.7326,1.7326,1.7326,1.7326,1.7326,1.7326,1.7326,1.7326,1.7326,1.7326,1.7232,1.6951,1.5622,1.5146,1.4771,1.3266,1.3046,1.3055,1.2278,1.2287,1.2229,1.1625,1.128,1.1015,1.0911,1.0648,1.0461,1.0461,0.993,0.9471,0.9361,0.7928,0.6824,0.6824,0.6049,0.5493,0.5493,0.5493,0.5382,0.5382,0.5382,0.5382,0.5382,0.5382,0.5382,0.5382,0.3136,0.2015,0.2015,0.1903,0.1232,0.0112,0.0112,-0.0448,-0.1458,-0.1458,-0.0897,3.2528,3.3606,3.4709,3.6206,3.7359,3.8017,3.7711,3.8033,3.8335,3.8205,3.8278,3.8017,3.6631,3.6384,3.6009,3.4787,3.4467,3.4414,3.4414,3.4414,3.4414,3.4414,3.4157,3.373,3.3002,3.2533,3.1563,3.0075,2.9781,2.9328,2.851,2.7846,2.7092,2.6163,2.5242,2.4327,2.3396,2.3222,2.3135,2.3135,2.3135,2.2687,2.1961,2.0782,1.9239,1.7606,1.7419,1.7326,1.7326,1.7326,1.7326,1.7326,1.7326,1.7326,1.7326,1.7326,1.7326,1.7326,1.7326,1.7326,1.7326,1.7326,1.7326,1.7326,1.7326,1.6857,1.6379,1.6096,1.5527,1.491,1.4154,1.4051,1.3933,1.3287,1.2848,1.247,1.1849,1.149,1.1106,1.0588,1.0625,1.0635,1.0635,1.0558,1.0139,0.9471,0.8475,0.77,0.77,0.6932,0.6381,0.6381,0.5826,0.5382,0.5382,0.5382,0.5382,0.5382,0.5382,0.5382,0.5382,0.403,0.3245,0.3245,0.2239,0.1679,0.1456,0.1456,0.1232,0.1008,0.1008,0.112,3.3516,3.4319,3.5064,3.6792,3.7621,3.7902,3.7476,3.7653,3.7844,3.7519,3.7711,3.7519,3.6134,3.5946,3.5578,3.4601,3.4414,3.4414,3.4414,3.4414,3.4346,3.4264,3.377,3.3199,3.2605,3.1709,3.0745,2.9768,2.9328,2.8961,2.851,2.7672,2.6764,2.5819,2.4914,2.4069,2.3135,2.3135,2.3135,2.3135,2.3135,2.2325,2.0962,1.9968,1.8688,1.7326,1.7326,1.7326,1.7326,1.7326,1.7326,1.7326,1.7326,1.7326,1.7326,1.7326,1.7326,1.7326,1.7326,1.7326,1.7326,1.7326,1.7326,1.7326,1.7326,1.7152,1.6887,1.6505,1.6029,1.5287,1.463,1.4263,1.3987,1.3713,1.3434,1.3117,1.2804,1.223,1.1738,1.1419,1.0958,1.0692,1.0692,1.0692,1.0578,1.0135,0.9251,0.8692,0.8692,0.7925,0.7152,0.6712,0.627,0.5826,0.5382,0.5382,0.5382,0.5382,0.5382,0.5382,0.5382,0.4817,0.4479,0.4479,0.3807,0.3246,0.2686,0.2686,0.2351,0.1791,0.1791,0.2127,3.4452,3.5066,3.5533,3.7067,3.7452,3.738,3.7254,3.7222,3.7027,3.6399,3.6768,3.6845,3.5657,3.54,3.5154,3.4534,3.4414,3.4414,3.4414,3.4414,3.4278,3.3977,3.3311,3.2648,3.2074,3.0732,2.9845,2.9561,2.8882,2.8431,2.8259,2.7429,2.6505,2.5579,2.4744,2.3907,2.3144,2.3135,2.3135,2.3135,2.3135,2.205,2.0141,1.9422,1.8427,1.7326,1.7326,1.7326,1.7326,1.7326,1.7326,1.7326,1.7326,1.7326,1.7326,1.7326,1.7326,1.7326,1.7326,1.7326,1.7326,1.7326,1.7362,1.7413,1.7413,1.764,1.78,1.712,1.6697,1.6092,1.5429,1.4694,1.414,1.4079,1.3984,1.3884,1.3773,1.3071,1.255,1.2332,1.1455,1.0692,1.0692,1.0692,1.0692,1.0692,1.0135,0.9585,0.9585,0.8806,0.7922,0.7265,0.6935,0.6381,0.5717,0.5493,0.5382,0.5382,0.5382,0.5382,0.5382,0.5382,0.5382,0.5382,0.5382,0.4929,0.3917,0.3917,0.3358,0.2463,0.2463,0.2914,3.5238,3.6899,3.8049,3.7666,3.7544,3.7374,3.6708,3.6508,3.6322,3.5642,3.6087,3.6322,3.5514,3.54,3.5154,3.4534,3.4414,3.4414,3.4414,3.4414,3.4113,3.3437,3.296,3.2173,3.0683,3.0075,2.9406,2.8736,2.8578,2.8179,2.7429,2.6494,2.5579,2.4659,2.3734,2.3222,2.3135,2.3135,2.3135,2.3135,2.3135,2.205,2.0232,2.0051,1.9055,1.7326,1.7326,1.7326,1.7326,1.7326,1.7326,1.7326,1.7326,1.7326,1.7326,1.7326,1.7326,1.7326,1.7326,1.7326,1.7326,1.7326,1.7523,1.775,1.775,1.7977,1.824,1.8134,1.8065,1.786,1.7299,1.6478,1.5744,1.5347,1.4669,1.4035,1.3485,1.3295,1.2881,1.1896,1.1131,1.0692,1.0692,1.0692,1.0692,1.0692,1.0582,1.0582,1.0582,0.9801,0.914,0.903,0.7598,0.6604,0.6492,0.5826,0.5382,0.5382,0.5382,0.5382,0.5382,0.5382,0.5382,0.5382,0.5382,0.527,0.5156,0.5156,0.5043,0.4931,0.4931,0.5079,3.5606,3.679,3.7474,3.7455,3.6884,3.6262,3.5894,3.5834,3.5642,3.4971,3.5088,3.5219,3.4905,3.4839,3.4721,3.4481,3.4414,3.4264,3.3811,3.3742,3.3381,3.2376,3.1723,3.0983,3.0088,2.9406,2.8882,2.851,2.851,2.8099,2.7267,2.6329,2.5411,2.4498,2.356,2.3135,2.3135,2.3135,2.3135,2.3047,2.2599,2.1596,2.0141,1.9695,1.8603,1.7326,1.7326,1.7326,1.7326,1.7326,1.7326,1.7326,1.7326,1.7326,1.7326,1.7326,1.7326,1.7355,1.7538,1.7604,1.7633,1.7816,1.7969,1.8086,1.8086,1.8313,1.8577,1.8577,1.7985,1.7324,1.7133,1.602,1.5005,1.4798,1.4509,1.4088,1.3867,1.3537,1.2989,1.1787,1.135,1.1131,1.0802,1.0692,1.0692,1.0692,1.0692,1.0692,1.0692,1.0359,0.9915,0.9471,0.8257,0.7263,0.6712,0.5938,0.5382,0.5382,0.5426,0.5451,0.5451,0.5502,0.5529,0.5529,0.5433,0.5382,0.5382,0.5429,0.5451,0.5453,0.5504,0.5549,3.5923,3.6619,3.6994,3.705,3.6357,3.5555,3.5228,3.5154,3.5023,3.4467,3.4414,3.4414,3.4414,3.4414,3.4414,3.4414,3.4264,3.3894,3.3297,3.3003,3.2506,3.1502,3.0771,3.0088,2.9639,2.8882,2.851,2.851,2.8259,2.7765,2.6928,2.5997,2.5073,2.4155,2.3484,2.3135,2.3135,2.3135,2.3135,2.3057,2.2148,2.115,2.0141,1.9247,1.8241,1.7326,1.7326,1.7326,1.7326,1.7326,1.7326,1.7326,1.7326,1.7326,1.7333,1.7421,1.745,1.7501,1.783,1.794,1.7977,1.8218,1.8357,1.8423,1.8423,1.8657,1.8913,1.8913,1.8144,1.7364,1.7364,1.6099,1.4832,1.4832,1.4515,1.4196,1.4196,1.3759,1.2989,1.2005,1.1678,1.1459,1.0802,1.0729,1.0761,1.0761,1.0798,1.0826,1.0826,1.0826,1.06,0.9928,0.9028,0.8136,0.7247,0.6348,0.5673,0.5447,0.5508,0.5543,0.5543,0.5606,0.5643,0.5643,0.5514,0.5449,0.5449,0.5512,0.5543,0.5545,0.5612,0.5657,3.6286,3.7186,3.781,3.6677,3.6328,3.5965,3.4758,3.4467,3.4414,3.4414,3.4414,3.4414,3.4414,3.4414,3.4414,3.4414,3.3742,3.3227,3.3213,3.2577,3.1856,3.1044,3.0532,3.0024,2.9209,2.8736,2.851,2.851,2.7765,2.6846,2.5902,2.5084,2.4155,2.3222,2.3135,2.3135,2.3135,2.3135,2.3135,2.3057,2.2148,2.115,2.0141,1.9247,1.8241,1.7326,1.7326,1.7326,1.7326,1.7326,1.7326,1.7326,1.7326,1.7326,1.7362,1.7677,1.7786,1.7838,1.8167,1.8277,1.8277,1.8299,1.8511,1.8767,1.8767,1.8994,1.925,1.925,1.9264,1.9168,1.9168,1.7898,1.6518,1.6518,1.5357,1.4196,1.4196,1.3759,1.3098,1.2441,1.2005,1.1459,1.0802,1.0838,1.0956,1.0956,1.109,1.1196,1.1196,1.1196,1.1196,1.1081,1.0267,0.934,0.8421,0.7491,0.656,0.5629,0.5635,0.5637,0.5637,0.5641,0.5643,0.5643,0.5635,0.5631,0.5631,0.5635,0.5637,0.5637,0.5641,0.569,3.6301,3.6954,3.7418,3.6533,3.5996,3.5473,3.4603,3.4414,3.4414,3.4414,3.4414,3.4414,3.4414,3.4414,3.4264,3.3742,3.3367,3.2847,3.1842,3.1476,3.097,2.9858,2.9651,2.9353,2.8736,2.859,2.8259,2.7684,2.7348,2.6505,2.5073,2.4659,2.4069,2.3135,2.3135,2.3135,2.3135,2.3135,2.3135,2.3057,2.2148,2.115,2.0141,1.9247,1.8241,1.734,1.7552,1.7523,1.7326,1.7326,1.745,1.764,1.764,1.7772,1.7969,1.8086,1.813,1.8174,1.8503,1.8613,1.865,1.8855,1.9008,1.9103,1.9103,1.9184,1.9279,1.9279,1.8952,1.8415,1.8415,1.7575,1.6518,1.6092,1.5458,1.4934,1.4299,1.3975,1.3537,1.255,1.2325,1.197,1.109,1.1017,1.1131,1.1131,1.1183,1.1224,1.1224,1.1224,1.1224,1.1224,1.0409,0.9711,0.9364,0.8555,0.786,0.751,0.7578,0.7619,0.7619,0.7573,0.7616,0.7616,0.7015,0.6352,0.5643,0.5702,0.5731,0.5733,0.5792,0.5837,3.6577,3.7114,3.7404,3.6533,3.5996,3.5459,3.4603,3.4414,3.4414,3.4414,3.4414,3.4346,3.4045,3.3977,3.3811,3.3297,3.2791,3.206,3.1031,3.0594,3.0075,2.9275,2.904,2.8882,2.8657,2.851,2.8179,2.7267,2.6928,2.6091,2.4584,2.4241,2.3734,2.3135,2.3135,2.3135,2.3135,2.3135,2.296,2.2599,2.1695,2.0692,1.9695,1.8696,1.8031,1.7501,1.7721,1.7691,1.7501,1.7611,1.7786,1.7977,1.7977,1.8108,1.8313,1.8423,1.8467,1.8511,1.884,1.895,1.8986,1.9206,1.9279,1.9279,1.9279,1.9279,1.9279,1.9279,1.8848,1.8415,1.8094,1.7147,1.6092,1.525,1.5098,1.5053,1.4413,1.4309,1.3977,1.2984,1.3039,1.2847,1.1846,1.1884,1.1889,1.1666,1.1716,1.1637,1.1407,1.1407,1.1407,1.1407,1.0934,1.0343,1.0105,0.952,0.9052,0.8694,0.8656,0.8702,0.8702,0.8787,0.8836,0.8836,0.8227,0.7422,0.6681,0.6393,0.6545,0.6788,0.6858,0.6891,0.0,0.0,0.0,3.662,3.6301,3.5952,3.4621,3.4332,3.4332,3.4332,3.4346,3.4113,3.3367,3.3143,3.3143,3.3143,3.1915,3.0895,3.0895,3.0012,2.9419,2.9419,2.9028,2.8791,2.8803,2.8578,2.8099,2.7185,2.6246,2.5411,2.4498,2.356,2.3135,2.3135,2.3135,2.3135,2.3135,2.3135,2.2599,2.1695,2.0701,1.9704,1.8804,1.7807,1.753,1.783,1.7838,1.7845,1.7867,1.8174,1.8306,1.8321,1.8321,1.8321,1.8372,1.8686,1.8803,1.8847,1.9169,1.9279,1.9279,1.9279,1.9279,1.9279,1.9279,1.9279,1.9279,1.9279,1.9279,1.9063,1.8304,1.6836,1.5363,1.452,1.4379,1.4546,1.4546,1.4552,1.433,1.3765,1.3826,1.3749,1.3189,1.3244,1.3147,1.2569,1.2605,1.2483,1.1893,1.1776,1.1776,1.1776,1.1776,1.1405,1.0425,1.0304,0.9937,0.8958,0.8836,0.8836,0.8836,0.8836,0.8836,0.8836,0.8836,0.8836,0.8836,0.7861,0.7861,0.8836,0.8836,0.8836,3.6533,0.0,0.0,0.0,0.0,0.0,3.3844,3.352,3.352,3.352,3.3087,3.2804,3.3143,3.2277,3.1549,3.1549,3.118,3.0683,3.0216,2.9664,2.9341,2.9197,2.8961,2.8724,2.8578,2.7926,2.7174,2.6246,2.5326,2.4488,2.356,2.3222,2.3135,2.3135,2.3135,2.3135,2.3135,2.3135,2.296,2.2696,2.1245,2.0466,2.0104,1.8674,1.8079,1.8182,1.8416,1.8518,1.8511,1.8364,1.8438,1.8657,1.8657,1.8796,1.9016,1.9111,1.914,1.9155,1.9242,1.9279,1.9279,1.9279,1.9279,1.9279,1.9279,1.9279,1.9279,1.9279,1.9279,1.9272,1.8952,1.8273,1.7358,1.6494,1.6044,1.5569,1.4901,1.4923,1.477,1.402,1.3709,1.3277,1.2714,1.2408,1.2175,1.2059,1.1981,1.2014,1.1776,1.1776,1.1776,1.1776,1.1776,1.1655,1.1409,1.1409,1.1285,1.1039,1.0917,1.0917,1.0917,1.0917,1.0917,1.0917,1.0304,1.0183,1.0917,0.9204,0.8593,0.8836,0.8836,0.8836,0.0,0.0,0.0,0.0,0.0,0.0,3.3968,3.3451,3.3213,3.3213,3.2577,3.2146,3.2205,3.1476,3.082,3.0482,3.0406,3.0266,2.9856,2.9534,2.9197,2.9131,2.8816,2.8486,2.8007,2.751,2.667,2.5326,2.4829,2.4069,2.3135,2.3135,2.3135,2.3135,2.3135,2.3223,2.3408,2.3408,2.3318,2.3024,2.2152,2.1225,2.0289,1.9361,1.876,1.8518,1.8708,1.8869,1.8979,1.8789,1.8818,1.8994,1.8994,1.9111,1.9279,1.9279,1.9279,1.9279,1.9279,1.9279,1.9279,1.9279,1.9279,1.9279,1.9279,1.9279,1.9279,1.9279,1.9056,1.8764,1.89,1.8431,1.784,1.7405,1.7204,1.6839,1.6273,1.6022,1.5665,1.473,1.4169,1.3726,1.3381,1.2892,1.2492,1.2251,1.213,1.2134,1.1776,1.1776,1.1776,1.1776,1.1776,1.1776,1.1776,1.1776,1.1776,1.1776,1.1776,1.1776,1.1776,1.1776,1.1776,1.1776,1.1163,1.1163,1.1776,1.0183,0.9694,1.0058,1.0058,1.0058,0.0,0.0,0.0,0.0,3.523,0.0,3.4174,3.3451,3.2918,3.2918,3.2362,3.1636,3.1044,3.082,3.0545,2.9844,2.9792,2.9792,2.9792,2.9378,2.9052,2.9052,2.8736,2.8179,2.7267,2.7103,2.634,2.4659,2.4413,2.4013,2.3203,2.3213,2.3232,2.3281,2.3281,2.3467,2.3857,2.3857,2.3669,2.3177,2.313,2.1995,2.0079,2.0021,1.9636,1.884,1.884,1.9008,1.9279,1.9279,1.9279,1.9279,1.9279,1.9279,1.9279,1.9279,1.9279,1.9279,1.9279,1.9279,1.9279,1.9279,1.9279,1.9279,1.9279,1.9279,1.9286,1.9323,1.8786,1.8317,1.8628,1.8083,1.7528,1.7674,1.783,1.7906,1.7798,1.7298,1.658,1.5443,1.4857,1.451,1.451,1.3923,1.3329,1.2724,1.2599,1.2367,1.1897,1.1776,1.1776,1.1776,1.1776,1.1776,1.1776,1.1776,1.1776,1.1776,1.1776,1.1776,1.1776,1.1776,1.1776,1.1776,1.1776,1.1776,1.1776,1.0917,1.0917,1.1776,1.1776,1.1776,0.0,0.0,0.0,0.0,0.0,0.0,3.1869,3.1476,3.1328,3.1328,3.0784,3.0355,3.082,3.0406,2.9921,2.9509,2.9509,2.9509,2.9509,2.9287,2.9052,2.8882,2.8657,2.8179,2.7267,2.6505,2.5663,2.4584,2.382,2.3457,2.3643,2.3662,2.3818,2.416,2.417,2.4209,2.4287,2.4297,2.4234,2.4137,2.3616,2.2699,2.1441,2.0945,2.0115,1.9184,1.9184,1.9213,1.9279,1.9279,1.9279,1.9279,1.9279,1.9279,1.9279,1.9279,1.9279,1.9279,1.9279,1.9279,1.9279,1.9279,1.9279,1.9279,1.9279,1.9279,1.933,1.9594,1.9553,1.9519,1.9838,1.9334,1.8744,1.7994,1.7535,1.7038,1.6228,1.5919,1.5817,1.5537,1.4614,1.3923,1.3923,1.2973,1.2134,1.2014,1.2014,1.1897,1.1776,1.1776,1.1776,1.1776,1.1776,1.1776,1.1776,1.1776,1.1776,1.1776,1.1776,1.1776,1.1776,1.1776,1.1776,1.1776,1.1776,1.1776,1.1776,1.1651,1.1655,1.1776,1.1776,1.1776,0.0,0.0,0.0,3.3776,0.0,0.0,0.0,3.1193,3.0895,3.0895,3.0177,2.9741,3.0088,2.9741,2.9378,2.9275,2.9341,2.9172,2.8518,2.8712,2.8882,2.8791,2.8247,2.751,2.6588,2.5869,2.5173,2.4543,2.4038,2.3867,2.4092,2.4102,2.4199,2.4414,2.4414,2.4521,2.4746,2.4746,2.4853,2.5078,2.4708,2.3804,2.2218,2.1803,2.0783,1.9279,1.9279,1.9279,1.9279,1.9279,1.9279,1.9279,1.9279,1.9279,1.9279,1.9279,1.9279,1.9279,1.9279,1.9279,1.9279,1.9279,1.9279,1.9279,1.9279,1.9389,1.955,1.9718,1.9879,2.0069,2.0398,2.0262,1.9963,1.9649,1.934,1.8868,1.7941,1.7349,1.6879,1.6414,1.511,1.4157,1.4157,1.3329,1.2733,1.2733,1.2733,1.2612,1.2247,1.2247,1.213,1.1776,1.1776,1.1776,1.1776,1.1776,1.1776,1.1776,1.1776,1.1776,1.1776,1.1776,1.1776,1.1776,1.1776,1.1776,1.1776,1.1776,1.1776,1.1776,1.1776,1.1776,0.0,0.0,0.0,0.0,0.0,3.1856,0.0,0.0,0.0,3.0683,3.0024,2.9431,2.9419,2.9275,2.9118,2.9052,2.9113,2.8754,2.7696,2.8115,2.8486,2.8378,2.7557,2.6768,2.5923,2.533,2.4826,2.4385,2.4414,2.4453,2.4531,2.4541,2.458,2.4668,2.4668,2.4844,2.5195,2.5195,2.5381,2.5742,2.5528,2.4412,2.2484,2.2291,2.1081,1.9279,1.9279,1.9279,1.9279,1.9279,1.9279,1.9279,1.9279,1.9279,1.9279,1.9279,1.9279,1.9279,1.9279,1.9279,1.9279,1.9279,1.9279,1.9286,1.9352,1.955,1.9784,1.9908,2.0135,2.0406,2.0728,2.0815,2.0769,2.0916,2.0974,2.0622,1.9693,1.8984,1.8156,1.7461,1.6161,1.5219,1.4624,1.4043,1.3688,1.3688,1.3688,1.3449,1.284,1.2719,1.2483,1.1897,1.1776,1.1776,1.1776,1.1776,1.1776,1.1776,1.1776,1.1776,1.1776,1.1776,1.1776,1.1776,1.1809,1.1825,1.1825,1.1861,1.1861,1.1825,1.1825,1.1845,0.0,0.0,0.0,0.0,3.1106,0.0,0.0,0.0,2.9934,2.9934,0.0,2.9702,2.9419,0.0,0.0,2.8882,2.8512,2.8138,2.7816,2.7514,2.7194,2.6764,2.6645,2.6379,2.5836,2.5028,2.4457,2.4414,2.4414,2.459,2.4971,2.5,2.5176,2.5576,2.5586,2.5615,2.5664,2.5664,2.5684,2.5645,2.4707,2.3692,2.2492,2.1489,2.038,1.9279,1.9279,1.9279,1.9279,1.9279,1.9279,1.9279,1.9279,1.9279,1.9279,1.9279,1.9279,1.9279,1.9279,1.9279,1.9279,1.9279,1.9279,1.933,1.9623,1.9733,1.9879,2.0457,2.064,2.0742,2.1072,2.1152,2.0931,2.0155,1.9931,1.9693,1.8745,1.8506,1.8389,1.8273,1.804,1.7214,1.4981,1.4043,1.3688,1.3688,1.3688,1.3449,1.284,1.2719,1.2483,1.1897,1.1776,1.1776,1.1776,1.1776,1.1776,1.1776,1.1776,1.1776,1.1776,1.1776,1.1776,1.1776,1.1922,1.2,1.2004,1.2166,1.2162,1.2,1.2,1.2089,0.0,0.0,0.0,0.0,0.0,0.0,2.9856,0.0,2.9792,0.0,0.0,0.0,0.0,0.0,0.0,0.0,2.8775,2.8344,2.7573,2.6954,2.6566,2.6802,2.644,2.592,2.548,2.5066,2.4902,2.5166,2.5176,2.5264,2.5449,2.5459,2.5547,2.5732,2.5742,2.5742,2.5742,2.5742,2.5742,2.5645,2.4609,2.3592,2.2484,2.1387,2.0277,1.9279,1.9279,1.9279,1.9279,1.9279,1.9279,1.9279,1.9279,1.9279,1.9279,1.9279,1.9279,1.9279,1.9279,1.9279,1.9279,1.9279,1.9403,1.9586,1.9725,2.0025,2.0377,2.0647,2.0859,2.1035,2.1174,2.1211,2.1096,2.0744,2.063,2.0392,1.9455,1.9223,1.8868,1.7812,1.7578,1.7109,1.5467,1.5467,1.5461,1.5105,1.4515,1.3799,1.284,1.2719,1.2483,1.1897,1.1776,1.1776,1.1776,1.1776,1.1776,1.1776,1.1776,1.1821,1.1918,1.1922,1.1971,1.2081,1.2154,1.219,1.219,1.2268,1.2316,1.2337,1.2235,1.2231,3.3087,0.0,0.0,0.0,0.0,0.0,0.0,0.0,0.0,0.0,0.0,0.0,0.0,0.0,0.0,0.0,0.0,2.7977,2.719,2.6407,2.6084,2.6483,2.6053,2.5631,2.531,2.5254,2.5391,2.5713,2.5742,2.5742,2.5742,2.5742,2.5742,2.5742,2.5742,2.5742,2.5742,2.5742,2.5742,2.5645,2.4609,2.3592,2.2484,2.1387,2.0277,1.9279,1.9279,1.9279,1.9279,1.9279,1.9279,1.9279,1.9279,1.9279,1.9279,1.9279,1.9279,1.9279,1.9279,1.9279,1.9294,1.9381,1.9572,1.9798,1.9974,2.0347,2.0742,2.083,2.1028,2.1211,2.1211,2.1211,2.1211,2.1211,2.1211,2.0981,2.0277,2.0162,1.9809,1.8402,1.8169,1.7929,1.7238,1.6885,1.6408,1.5693,1.4986,1.4152,1.284,1.2719,1.2483,1.1897,1.1776,1.1776,1.1776,1.1776,1.1797,1.1841,1.1894,1.1979,1.2101,1.2105,1.2166,1.2304,1.2353,1.2377,1.2377,1.2426,1.2515,1.2633,1.2458,1.2406,0.0,0.0,0.0,2.9998,0.0,0.0,0.0,0.0,3.049,0.0,0.0,0.0,0.0,0.0,0.0,0.0,0.0,0.0,0.0,2.6069,2.5537,2.5192,2.5526,2.5703,2.5713,2.5713,2.5723,2.5742,2.5742,2.5742,2.5742,2.5742,2.5742,2.5742,2.5742,2.5742,2.5742,2.5742,2.5742,2.5645,2.4609,2.3592,2.2484,2.1387,2.0277,1.9279,1.9279,1.9279,1.9279,1.9279,1.9279,1.9279,1.9279,1.9279,1.9279,1.9279,1.9279,1.9279,1.9279,1.9279,1.933,1.9645,1.9755,1.9879,2.0501,2.0706,2.0786,2.1101,2.1203,2.1211,2.1211,2.1211,2.1211,2.1211,2.1211,2.1211,2.1211,2.1211,2.1096,2.1089,2.1089,2.1096,2.0974,1.8052,1.5472,1.4748,1.4629,1.4152,1.284,1.2719,1.2483,1.1897,1.1776,1.1776,1.1776,1.1776,1.1845,1.2012,1.219,1.2292,1.23,1.23,1.23,1.2308,1.2471,1.2556,1.2556,1.2735,1.2824,1.2824,1.2641,1.2649,0.0,0.0,3.0773,3.0454,0.0,0.0,0.0,0.0,0.0,0.0,0.0,0.0,0.0,0.0,0.0,0.0,0.0,0.0,0.0,2.6184,2.5684,2.5527,2.5644,2.5742,2.5742,2.5742,2.5742,2.5742,2.5742,2.5742,2.5742,2.5742,2.5742,2.5742,2.5742,2.5742,2.5742,2.5742,2.5742,2.5635,2.3899,2.2885,2.2484,2.068,1.968,1.9279,1.9279,1.9279,1.9279,1.9279,1.9279,1.9279,1.9279,1.9279,1.9279,1.9279,1.9279,1.9308,1.952,1.9594,1.9652,1.9974,2.0223,2.0435,2.0655,2.0874,2.1064,2.1181,2.1211,2.1211,2.1211,2.1211,2.1211,2.1211,2.1211,2.1211,2.1211,2.1211,2.0981,2.0392,2.0277,2.0046,1.9448,1.8273,1.7455,1.7436,1.6273,1.5219,1.4381,1.331,1.2603,1.2363,1.2117,1.1943,1.1943,1.2056,1.215,1.2211,1.2272,1.2357,1.2471,1.2475,1.2536,1.2653,1.2714,1.2743,1.2743,1.2808,1.2836,1.2836,1.2775,1.2779,3.1856,3.1132,0.0,3.0615,3.062,0.0,3.1053,0.0,0.0,0.0,0.0,0.0,0.0,0.0,0.0,0.0,0.0,0.0,0.0,2.61,2.5742,2.5742,2.5742,2.5742,2.5742,2.5742,2.5742,2.5742,2.5742,2.5742,2.5742,2.5742,2.5742,2.5742,2.5742,2.5742,2.5742,2.5742,2.5742,2.5635,2.4313,2.3194,2.2484,2.1089,1.9983,1.9279,1.9279,1.9279,1.9279,1.9279,1.9279,1.9279,1.9279,1.9279,1.9279,1.9279,1.9352,1.9477,1.9689,1.9835,1.9981,2.0303,2.0552,2.0742,2.0859,2.1042,2.1211,2.1211,2.1211,2.1211,2.1211,2.1211,2.1211,2.1211,2.1211,2.1211,2.1211,2.1211,2.0974,2.0399,2.0277,2.0162,1.9448,1.9448,1.8971,1.791,1.6744,1.572,1.4845,1.3783,1.3089,1.2917,1.267,1.237,1.213,1.2296,1.2398,1.2398,1.2458,1.2544,1.2657,1.2661,1.2718,1.2836,1.2836,1.2836,1.2836,1.2836,1.2836,1.2836,1.2836,1.2836]}]]